<?xml version="1.0" encoding="UTF-8" standalone="no" ?>
<gpx xmlns="http://www.topografix.com/GPX/1/1" xmlns:xsi="http://www.w3.org/2001/XMLSchema-instance" xsi:schemaLocation="http://www.topografix.com/GPX/1/1 http://www.topografix.com/GPX/1/1/gpx.xsd" version="1.1" creator="VisuGPX - https://www.visugpx.com">
  <metadata>
    <name>Graissessac / Le Devois</name>
    <desc><![CDATA[Une courte, mais belle et difficile rando au coeur des Monts d'Orb, à Graissessac, avec des montées et des descentes très délicates et de superbes points de vue tout le long du circuit, mais plus particulièrement de la table d'orientation du Devois.
Départ et arrivée du parking du cimetière.]]></desc>
  </metadata>
  <trk>
    <name><![CDATA[2019-02-21 GRAISSESSAC - LE DEVOIS]]></name>
    <trkseg>
      <trkpt lat="43.6827" lon="3.08808">
        <ele>197.69</ele>
        <time>2019-02-21T07:55:33Z</time>
      </trkpt>
      <trkpt lat="43.68273" lon="3.08801">
        <ele>202.98</ele>
        <time>2019-02-21T07:55:42Z</time>
      </trkpt>
      <trkpt lat="43.68273" lon="3.088">
        <ele>207.78</ele>
        <time>2019-02-21T07:55:43Z</time>
      </trkpt>
      <trkpt lat="43.68273" lon="3.088">
        <ele>212.59</ele>
        <time>2019-02-21T07:55:44Z</time>
      </trkpt>
      <trkpt lat="43.68274" lon="3.088">
        <ele>217.4</ele>
        <time>2019-02-21T07:55:45Z</time>
      </trkpt>
      <trkpt lat="43.68272" lon="3.08804">
        <ele>242.39</ele>
        <time>2019-02-21T07:55:50Z</time>
      </trkpt>
      <trkpt lat="43.68272" lon="3.08804">
        <ele>242.39</ele>
        <time>2019-02-21T07:55:51Z</time>
      </trkpt>
      <trkpt lat="43.68272" lon="3.08804">
        <ele>249.12</ele>
        <time>2019-02-21T07:55:52Z</time>
      </trkpt>
      <trkpt lat="43.68271" lon="3.08804">
        <ele>249.12</ele>
        <time>2019-02-21T07:55:53Z</time>
      </trkpt>
      <trkpt lat="43.68271" lon="3.08804">
        <ele>255.85</ele>
        <time>2019-02-21T07:55:54Z</time>
      </trkpt>
      <trkpt lat="43.68271" lon="3.08804">
        <ele>255.85</ele>
        <time>2019-02-21T07:55:55Z</time>
      </trkpt>
      <trkpt lat="43.68271" lon="3.08804">
        <ele>259.21</ele>
        <time>2019-02-21T07:55:56Z</time>
      </trkpt>
      <trkpt lat="43.68271" lon="3.08804">
        <ele>262.1</ele>
        <time>2019-02-21T07:55:57Z</time>
      </trkpt>
      <trkpt lat="43.68271" lon="3.08805">
        <ele>270.75</ele>
        <time>2019-02-21T07:55:59Z</time>
      </trkpt>
      <trkpt lat="43.68271" lon="3.08805">
        <ele>273.15</ele>
        <time>2019-02-21T07:56:01Z</time>
      </trkpt>
      <trkpt lat="43.68271" lon="3.08805">
        <ele>277.96</ele>
        <time>2019-02-21T07:56:03Z</time>
      </trkpt>
      <trkpt lat="43.68272" lon="3.08804">
        <ele>282.77</ele>
        <time>2019-02-21T07:56:05Z</time>
      </trkpt>
      <trkpt lat="43.68272" lon="3.08804">
        <ele>287.09</ele>
        <time>2019-02-21T07:56:07Z</time>
      </trkpt>
      <trkpt lat="43.68272" lon="3.08804">
        <ele>290.94</ele>
        <time>2019-02-21T07:56:09Z</time>
      </trkpt>
      <trkpt lat="43.68272" lon="3.08805">
        <ele>294.78</ele>
        <time>2019-02-21T07:56:11Z</time>
      </trkpt>
      <trkpt lat="43.68273" lon="3.08804">
        <ele>298.15</ele>
        <time>2019-02-21T07:56:13Z</time>
      </trkpt>
      <trkpt lat="43.68273" lon="3.08803">
        <ele>299.59</ele>
        <time>2019-02-21T07:56:15Z</time>
      </trkpt>
      <trkpt lat="43.68273" lon="3.08803">
        <ele>302.95</ele>
        <time>2019-02-21T07:56:17Z</time>
      </trkpt>
      <trkpt lat="43.68273" lon="3.08802">
        <ele>307.28</ele>
        <time>2019-02-21T07:56:20Z</time>
      </trkpt>
      <trkpt lat="43.68273" lon="3.08802">
        <ele>311.12</ele>
        <time>2019-02-21T07:56:23Z</time>
      </trkpt>
      <trkpt lat="43.68273" lon="3.08801">
        <ele>314.49</ele>
        <time>2019-02-21T07:56:25Z</time>
      </trkpt>
      <trkpt lat="43.68273" lon="3.08801">
        <ele>314.49</ele>
        <time>2019-02-21T07:56:26Z</time>
      </trkpt>
      <trkpt lat="43.68273" lon="3.08801">
        <ele>317.85</ele>
        <time>2019-02-21T07:56:29Z</time>
      </trkpt>
      <trkpt lat="43.68273" lon="3.08802">
        <ele>321.7</ele>
        <time>2019-02-21T07:56:33Z</time>
      </trkpt>
      <trkpt lat="43.68274" lon="3.08803">
        <ele>325.06</ele>
        <time>2019-02-21T07:56:37Z</time>
      </trkpt>
      <trkpt lat="43.68274" lon="3.08803">
        <ele>328.91</ele>
        <time>2019-02-21T07:56:42Z</time>
      </trkpt>
      <trkpt lat="43.68274" lon="3.08803">
        <ele>331.79</ele>
        <time>2019-02-21T07:56:47Z</time>
      </trkpt>
      <trkpt lat="43.68273" lon="3.08803">
        <ele>335.16</ele>
        <time>2019-02-21T07:56:53Z</time>
      </trkpt>
      <trkpt lat="43.68272" lon="3.08803">
        <ele>338.04</ele>
        <time>2019-02-21T07:57:00Z</time>
      </trkpt>
      <trkpt lat="43.68271" lon="3.08801">
        <ele>340.92</ele>
        <time>2019-02-21T07:57:08Z</time>
      </trkpt>
      <trkpt lat="43.68273" lon="3.08796">
        <ele>343.81</ele>
        <time>2019-02-21T07:57:21Z</time>
      </trkpt>
      <trkpt lat="43.68273" lon="3.08799">
        <ele>346.69</ele>
        <time>2019-02-21T07:57:39Z</time>
      </trkpt>
      <trkpt lat="43.68273" lon="3.08798">
        <ele>196.73</ele>
        <time>2019-02-21T07:57:40Z</time>
      </trkpt>
      <trkpt lat="43.68273" lon="3.08798">
        <ele>347.17</ele>
        <time>2019-02-21T07:57:41Z</time>
      </trkpt>
      <trkpt lat="43.68275" lon="3.088">
        <ele>346.69</ele>
        <time>2019-02-21T07:57:56Z</time>
      </trkpt>
      <trkpt lat="43.68274" lon="3.088">
        <ele>348.13</ele>
        <time>2019-02-21T07:57:58Z</time>
      </trkpt>
      <trkpt lat="43.68276" lon="3.08797">
        <ele>348.13</ele>
        <time>2019-02-21T07:58:18Z</time>
      </trkpt>
      <trkpt lat="43.68272" lon="3.08796">
        <ele>348.13</ele>
        <time>2019-02-21T07:58:48Z</time>
      </trkpt>
      <trkpt lat="43.68272" lon="3.08796">
        <ele>351.5</ele>
        <time>2019-02-21T07:59:08Z</time>
      </trkpt>
      <trkpt lat="43.68272" lon="3.08797">
        <ele>351.5</ele>
        <time>2019-02-21T07:59:09Z</time>
      </trkpt>
      <trkpt lat="43.68276" lon="3.08795">
        <ele>351.02</ele>
        <time>2019-02-21T07:59:41Z</time>
      </trkpt>
      <trkpt lat="43.68273" lon="3.08799">
        <ele>351.02</ele>
        <time>2019-02-21T08:00:11Z</time>
      </trkpt>
      <trkpt lat="43.68273" lon="3.08803">
        <ele>351.02</ele>
        <time>2019-02-21T08:00:27Z</time>
      </trkpt>
      <trkpt lat="43.68269" lon="3.0881">
        <ele>350.06</ele>
        <time>2019-02-21T08:00:41Z</time>
      </trkpt>
      <trkpt lat="43.68264" lon="3.0882">
        <ele>349.58</ele>
        <time>2019-02-21T08:00:51Z</time>
      </trkpt>
      <trkpt lat="43.68258" lon="3.08831">
        <ele>349.1</ele>
        <time>2019-02-21T08:01:01Z</time>
      </trkpt>
      <trkpt lat="43.68255" lon="3.0884">
        <ele>348.62</ele>
        <time>2019-02-21T08:01:10Z</time>
      </trkpt>
      <trkpt lat="43.68251" lon="3.08845">
        <ele>348.62</ele>
        <time>2019-02-21T08:01:14Z</time>
      </trkpt>
      <trkpt lat="43.68246" lon="3.08854">
        <ele>348.62</ele>
        <time>2019-02-21T08:01:26Z</time>
      </trkpt>
      <trkpt lat="43.68246" lon="3.08855">
        <ele>348.62</ele>
        <time>2019-02-21T08:01:27Z</time>
      </trkpt>
      <trkpt lat="43.68246" lon="3.08858">
        <ele>348.62</ele>
        <time>2019-02-21T08:01:29Z</time>
      </trkpt>
      <trkpt lat="43.68239" lon="3.08871">
        <ele>348.62</ele>
        <time>2019-02-21T08:01:39Z</time>
      </trkpt>
      <trkpt lat="43.68238" lon="3.08874">
        <ele>348.62</ele>
        <time>2019-02-21T08:01:41Z</time>
      </trkpt>
      <trkpt lat="43.68235" lon="3.08881">
        <ele>348.62</ele>
        <time>2019-02-21T08:01:45Z</time>
      </trkpt>
      <trkpt lat="43.68225" lon="3.08906">
        <ele>348.62</ele>
        <time>2019-02-21T08:01:59Z</time>
      </trkpt>
      <trkpt lat="43.68221" lon="3.08924">
        <ele>348.62</ele>
        <time>2019-02-21T08:02:10Z</time>
      </trkpt>
      <trkpt lat="43.6821" lon="3.08945">
        <ele>347.17</ele>
        <time>2019-02-21T08:02:22Z</time>
      </trkpt>
      <trkpt lat="43.68202" lon="3.08963">
        <ele>347.17</ele>
        <time>2019-02-21T08:02:34Z</time>
      </trkpt>
      <trkpt lat="43.68198" lon="3.0897">
        <ele>347.17</ele>
        <time>2019-02-21T08:02:40Z</time>
      </trkpt>
      <trkpt lat="43.68194" lon="3.08977">
        <ele>347.17</ele>
        <time>2019-02-21T08:02:45Z</time>
      </trkpt>
      <trkpt lat="43.68186" lon="3.08994">
        <ele>346.21</ele>
        <time>2019-02-21T08:02:57Z</time>
      </trkpt>
      <trkpt lat="43.68185" lon="3.09001">
        <ele>348.13</ele>
        <time>2019-02-21T08:03:00Z</time>
      </trkpt>
      <trkpt lat="43.68176" lon="3.09025">
        <ele>348.13</ele>
        <time>2019-02-21T08:03:16Z</time>
      </trkpt>
      <trkpt lat="43.68166" lon="3.09048">
        <ele>345.73</ele>
        <time>2019-02-21T08:03:33Z</time>
      </trkpt>
      <trkpt lat="43.68155" lon="3.09076">
        <ele>344.29</ele>
        <time>2019-02-21T08:03:51Z</time>
      </trkpt>
      <trkpt lat="43.68158" lon="3.0908">
        <ele>345.25</ele>
        <time>2019-02-21T08:04:03Z</time>
      </trkpt>
      <trkpt lat="43.68167" lon="3.09069">
        <ele>348.62</ele>
        <time>2019-02-21T08:04:18Z</time>
      </trkpt>
      <trkpt lat="43.68176" lon="3.09062">
        <ele>349.58</ele>
        <time>2019-02-21T08:04:28Z</time>
      </trkpt>
      <trkpt lat="43.68188" lon="3.09054">
        <ele>351.98</ele>
        <time>2019-02-21T08:04:41Z</time>
      </trkpt>
      <trkpt lat="43.68192" lon="3.09046">
        <ele>352.94</ele>
        <time>2019-02-21T08:04:54Z</time>
      </trkpt>
      <trkpt lat="43.68198" lon="3.0904">
        <ele>353.9</ele>
        <time>2019-02-21T08:05:09Z</time>
      </trkpt>
      <trkpt lat="43.68207" lon="3.09027">
        <ele>355.83</ele>
        <time>2019-02-21T08:05:25Z</time>
      </trkpt>
      <trkpt lat="43.68213" lon="3.09021">
        <ele>358.23</ele>
        <time>2019-02-21T08:05:39Z</time>
      </trkpt>
      <trkpt lat="43.68221" lon="3.09021">
        <ele>360.15</ele>
        <time>2019-02-21T08:05:53Z</time>
      </trkpt>
      <trkpt lat="43.68226" lon="3.09012">
        <ele>363.04</ele>
        <time>2019-02-21T08:06:08Z</time>
      </trkpt>
      <trkpt lat="43.68229" lon="3.09009">
        <ele>364.48</ele>
        <time>2019-02-21T08:06:17Z</time>
      </trkpt>
      <trkpt lat="43.6823" lon="3.09">
        <ele>364.96</ele>
        <time>2019-02-21T08:06:25Z</time>
      </trkpt>
      <trkpt lat="43.68235" lon="3.08984">
        <ele>367.36</ele>
        <time>2019-02-21T08:06:42Z</time>
      </trkpt>
      <trkpt lat="43.68239" lon="3.08978">
        <ele>369.28</ele>
        <time>2019-02-21T08:06:49Z</time>
      </trkpt>
      <trkpt lat="43.68243" lon="3.08967">
        <ele>371.21</ele>
        <time>2019-02-21T08:07:04Z</time>
      </trkpt>
      <trkpt lat="43.68252" lon="3.08959">
        <ele>373.13</ele>
        <time>2019-02-21T08:07:21Z</time>
      </trkpt>
      <trkpt lat="43.68251" lon="3.08971">
        <ele>376.01</ele>
        <time>2019-02-21T08:07:37Z</time>
      </trkpt>
      <trkpt lat="43.6825" lon="3.08976">
        <ele>376.01</ele>
        <time>2019-02-21T08:07:45Z</time>
      </trkpt>
      <trkpt lat="43.6825" lon="3.0898">
        <ele>376.01</ele>
        <time>2019-02-21T08:07:48Z</time>
      </trkpt>
      <trkpt lat="43.68248" lon="3.08987">
        <ele>376.01</ele>
        <time>2019-02-21T08:07:54Z</time>
      </trkpt>
      <trkpt lat="43.68246" lon="3.08995">
        <ele>376.97</ele>
        <time>2019-02-21T08:08:04Z</time>
      </trkpt>
      <trkpt lat="43.68246" lon="3.08996">
        <ele>376.97</ele>
        <time>2019-02-21T08:08:05Z</time>
      </trkpt>
      <trkpt lat="43.68248" lon="3.08999">
        <ele>377.94</ele>
        <time>2019-02-21T08:08:11Z</time>
      </trkpt>
      <trkpt lat="43.68254" lon="3.08992">
        <ele>379.38</ele>
        <time>2019-02-21T08:08:21Z</time>
      </trkpt>
      <trkpt lat="43.68259" lon="3.08984">
        <ele>380.82</ele>
        <time>2019-02-21T08:08:29Z</time>
      </trkpt>
      <trkpt lat="43.68262" lon="3.08978">
        <ele>382.26</ele>
        <time>2019-02-21T08:08:40Z</time>
      </trkpt>
      <trkpt lat="43.68266" lon="3.08973">
        <ele>384.66</ele>
        <time>2019-02-21T08:08:51Z</time>
      </trkpt>
      <trkpt lat="43.68267" lon="3.08973">
        <ele>385.15</ele>
        <time>2019-02-21T08:08:53Z</time>
      </trkpt>
      <trkpt lat="43.68272" lon="3.08964">
        <ele>386.11</ele>
        <time>2019-02-21T08:09:03Z</time>
      </trkpt>
      <trkpt lat="43.68277" lon="3.08953">
        <ele>388.03</ele>
        <time>2019-02-21T08:09:14Z</time>
      </trkpt>
      <trkpt lat="43.68278" lon="3.0895">
        <ele>388.51</ele>
        <time>2019-02-21T08:09:17Z</time>
      </trkpt>
      <trkpt lat="43.68281" lon="3.08946">
        <ele>388.99</ele>
        <time>2019-02-21T08:09:22Z</time>
      </trkpt>
      <trkpt lat="43.68287" lon="3.08936">
        <ele>389.95</ele>
        <time>2019-02-21T08:09:33Z</time>
      </trkpt>
      <trkpt lat="43.68291" lon="3.08931">
        <ele>391.87</ele>
        <time>2019-02-21T08:09:41Z</time>
      </trkpt>
      <trkpt lat="43.68298" lon="3.08922">
        <ele>393.8</ele>
        <time>2019-02-21T08:09:56Z</time>
      </trkpt>
      <trkpt lat="43.68299" lon="3.08922">
        <ele>393.8</ele>
        <time>2019-02-21T08:09:57Z</time>
      </trkpt>
      <trkpt lat="43.68303" lon="3.08916">
        <ele>395.24</ele>
        <time>2019-02-21T08:10:08Z</time>
      </trkpt>
      <trkpt lat="43.68309" lon="3.08911">
        <ele>397.64</ele>
        <time>2019-02-21T08:10:20Z</time>
      </trkpt>
      <trkpt lat="43.68311" lon="3.08909">
        <ele>398.12</ele>
        <time>2019-02-21T08:10:23Z</time>
      </trkpt>
      <trkpt lat="43.68315" lon="3.08905">
        <ele>398.6</ele>
        <time>2019-02-21T08:10:28Z</time>
      </trkpt>
      <trkpt lat="43.6832" lon="3.089">
        <ele>400.05</ele>
        <time>2019-02-21T08:10:39Z</time>
      </trkpt>
      <trkpt lat="43.68326" lon="3.08894">
        <ele>401.97</ele>
        <time>2019-02-21T08:10:52Z</time>
      </trkpt>
      <trkpt lat="43.68333" lon="3.08886">
        <ele>404.37</ele>
        <time>2019-02-21T08:11:04Z</time>
      </trkpt>
      <trkpt lat="43.68338" lon="3.08885">
        <ele>405.33</ele>
        <time>2019-02-21T08:11:14Z</time>
      </trkpt>
      <trkpt lat="43.68344" lon="3.08879">
        <ele>407.26</ele>
        <time>2019-02-21T08:11:26Z</time>
      </trkpt>
      <trkpt lat="43.6835" lon="3.08872">
        <ele>409.18</ele>
        <time>2019-02-21T08:11:37Z</time>
      </trkpt>
      <trkpt lat="43.68356" lon="3.08866">
        <ele>410.14</ele>
        <time>2019-02-21T08:11:47Z</time>
      </trkpt>
      <trkpt lat="43.68358" lon="3.08862">
        <ele>411.1</ele>
        <time>2019-02-21T08:11:56Z</time>
      </trkpt>
      <trkpt lat="43.68363" lon="3.08846">
        <ele>410.14</ele>
        <time>2019-02-21T08:12:04Z</time>
      </trkpt>
      <trkpt lat="43.68365" lon="3.0884">
        <ele>410.14</ele>
        <time>2019-02-21T08:12:09Z</time>
      </trkpt>
      <trkpt lat="43.68367" lon="3.08836">
        <ele>410.14</ele>
        <time>2019-02-21T08:12:13Z</time>
      </trkpt>
      <trkpt lat="43.68367" lon="3.08835">
        <ele>411.58</ele>
        <time>2019-02-21T08:12:15Z</time>
      </trkpt>
      <trkpt lat="43.68368" lon="3.08835">
        <ele>411.58</ele>
        <time>2019-02-21T08:12:16Z</time>
      </trkpt>
      <trkpt lat="43.68369" lon="3.08833">
        <ele>411.58</ele>
        <time>2019-02-21T08:12:17Z</time>
      </trkpt>
      <trkpt lat="43.6837" lon="3.0883">
        <ele>412.54</ele>
        <time>2019-02-21T08:12:20Z</time>
      </trkpt>
      <trkpt lat="43.68372" lon="3.08829">
        <ele>413.02</ele>
        <time>2019-02-21T08:12:23Z</time>
      </trkpt>
      <trkpt lat="43.68374" lon="3.08828">
        <ele>412.54</ele>
        <time>2019-02-21T08:12:26Z</time>
      </trkpt>
      <trkpt lat="43.68374" lon="3.08826">
        <ele>412.54</ele>
        <time>2019-02-21T08:12:27Z</time>
      </trkpt>
      <trkpt lat="43.68378" lon="3.0882">
        <ele>412.54</ele>
        <time>2019-02-21T08:12:35Z</time>
      </trkpt>
      <trkpt lat="43.6838" lon="3.08818">
        <ele>412.54</ele>
        <time>2019-02-21T08:12:36Z</time>
      </trkpt>
      <trkpt lat="43.68381" lon="3.08813">
        <ele>413.5</ele>
        <time>2019-02-21T08:12:42Z</time>
      </trkpt>
      <trkpt lat="43.68384" lon="3.08809">
        <ele>413.98</ele>
        <time>2019-02-21T08:12:48Z</time>
      </trkpt>
      <trkpt lat="43.68388" lon="3.08803">
        <ele>415.43</ele>
        <time>2019-02-21T08:12:58Z</time>
      </trkpt>
      <trkpt lat="43.68393" lon="3.08796">
        <ele>417.35</ele>
        <time>2019-02-21T08:13:09Z</time>
      </trkpt>
      <trkpt lat="43.68396" lon="3.08793">
        <ele>418.31</ele>
        <time>2019-02-21T08:13:14Z</time>
      </trkpt>
      <trkpt lat="43.68399" lon="3.08787">
        <ele>418.79</ele>
        <time>2019-02-21T08:13:20Z</time>
      </trkpt>
      <trkpt lat="43.68404" lon="3.0878">
        <ele>419.75</ele>
        <time>2019-02-21T08:13:28Z</time>
      </trkpt>
      <trkpt lat="43.68406" lon="3.08779">
        <ele>419.75</ele>
        <time>2019-02-21T08:13:31Z</time>
      </trkpt>
      <trkpt lat="43.68409" lon="3.08777">
        <ele>420.71</ele>
        <time>2019-02-21T08:13:34Z</time>
      </trkpt>
      <trkpt lat="43.68413" lon="3.08773">
        <ele>421.68</ele>
        <time>2019-02-21T08:13:42Z</time>
      </trkpt>
      <trkpt lat="43.68416" lon="3.0877">
        <ele>422.16</ele>
        <time>2019-02-21T08:13:47Z</time>
      </trkpt>
      <trkpt lat="43.68416" lon="3.08768">
        <ele>422.16</ele>
        <time>2019-02-21T08:13:50Z</time>
      </trkpt>
      <trkpt lat="43.68417" lon="3.08767">
        <ele>422.64</ele>
        <time>2019-02-21T08:13:52Z</time>
      </trkpt>
      <trkpt lat="43.6842" lon="3.08763">
        <ele>424.08</ele>
        <time>2019-02-21T08:14:00Z</time>
      </trkpt>
      <trkpt lat="43.68423" lon="3.0876">
        <ele>424.56</ele>
        <time>2019-02-21T08:14:03Z</time>
      </trkpt>
      <trkpt lat="43.68429" lon="3.08753">
        <ele>425.04</ele>
        <time>2019-02-21T08:14:11Z</time>
      </trkpt>
      <trkpt lat="43.68434" lon="3.08748">
        <ele>426</ele>
        <time>2019-02-21T08:14:22Z</time>
      </trkpt>
      <trkpt lat="43.68438" lon="3.08742">
        <ele>427.92</ele>
        <time>2019-02-21T08:14:31Z</time>
      </trkpt>
      <trkpt lat="43.68443" lon="3.08738">
        <ele>427.92</ele>
        <time>2019-02-21T08:14:36Z</time>
      </trkpt>
      <trkpt lat="43.68445" lon="3.08736">
        <ele>428.4</ele>
        <time>2019-02-21T08:14:40Z</time>
      </trkpt>
      <trkpt lat="43.68447" lon="3.08734">
        <ele>428.89</ele>
        <time>2019-02-21T08:14:43Z</time>
      </trkpt>
      <trkpt lat="43.68452" lon="3.08728">
        <ele>429.37</ele>
        <time>2019-02-21T08:14:52Z</time>
      </trkpt>
      <trkpt lat="43.68454" lon="3.08726">
        <ele>429.37</ele>
        <time>2019-02-21T08:14:55Z</time>
      </trkpt>
      <trkpt lat="43.68459" lon="3.0872">
        <ele>430.33</ele>
        <time>2019-02-21T08:15:05Z</time>
      </trkpt>
      <trkpt lat="43.68462" lon="3.08715">
        <ele>431.29</ele>
        <time>2019-02-21T08:15:11Z</time>
      </trkpt>
      <trkpt lat="43.68465" lon="3.0871">
        <ele>431.29</ele>
        <time>2019-02-21T08:15:16Z</time>
      </trkpt>
      <trkpt lat="43.68465" lon="3.08709">
        <ele>431.77</ele>
        <time>2019-02-21T08:15:17Z</time>
      </trkpt>
      <trkpt lat="43.68467" lon="3.08705">
        <ele>432.25</ele>
        <time>2019-02-21T08:15:21Z</time>
      </trkpt>
      <trkpt lat="43.68469" lon="3.08703">
        <ele>432.25</ele>
        <time>2019-02-21T08:15:23Z</time>
      </trkpt>
      <trkpt lat="43.68474" lon="3.08697">
        <ele>434.17</ele>
        <time>2019-02-21T08:15:32Z</time>
      </trkpt>
      <trkpt lat="43.68474" lon="3.08695">
        <ele>435.13</ele>
        <time>2019-02-21T08:15:35Z</time>
      </trkpt>
      <trkpt lat="43.68475" lon="3.08689">
        <ele>435.61</ele>
        <time>2019-02-21T08:15:43Z</time>
      </trkpt>
      <trkpt lat="43.68478" lon="3.08683">
        <ele>437.06</ele>
        <time>2019-02-21T08:15:52Z</time>
      </trkpt>
      <trkpt lat="43.6848" lon="3.0868">
        <ele>437.54</ele>
        <time>2019-02-21T08:15:55Z</time>
      </trkpt>
      <trkpt lat="43.68481" lon="3.08677">
        <ele>437.54</ele>
        <time>2019-02-21T08:15:57Z</time>
      </trkpt>
      <trkpt lat="43.68483" lon="3.08673">
        <ele>438.5</ele>
        <time>2019-02-21T08:16:01Z</time>
      </trkpt>
      <trkpt lat="43.68484" lon="3.08671">
        <ele>439.46</ele>
        <time>2019-02-21T08:16:04Z</time>
      </trkpt>
      <trkpt lat="43.68485" lon="3.08663">
        <ele>440.42</ele>
        <time>2019-02-21T08:16:14Z</time>
      </trkpt>
      <trkpt lat="43.68486" lon="3.08655">
        <ele>441.86</ele>
        <time>2019-02-21T08:16:22Z</time>
      </trkpt>
      <trkpt lat="43.68487" lon="3.08651">
        <ele>442.34</ele>
        <time>2019-02-21T08:16:25Z</time>
      </trkpt>
      <trkpt lat="43.68489" lon="3.08645">
        <ele>443.31</ele>
        <time>2019-02-21T08:16:34Z</time>
      </trkpt>
      <trkpt lat="43.68491" lon="3.08641">
        <ele>443.79</ele>
        <time>2019-02-21T08:16:38Z</time>
      </trkpt>
      <trkpt lat="43.68494" lon="3.08631">
        <ele>445.23</ele>
        <time>2019-02-21T08:16:49Z</time>
      </trkpt>
      <trkpt lat="43.68497" lon="3.08623">
        <ele>447.15</ele>
        <time>2019-02-21T08:17:00Z</time>
      </trkpt>
      <trkpt lat="43.685" lon="3.08618">
        <ele>447.63</ele>
        <time>2019-02-21T08:17:05Z</time>
      </trkpt>
      <trkpt lat="43.68502" lon="3.08616">
        <ele>448.11</ele>
        <time>2019-02-21T08:17:08Z</time>
      </trkpt>
      <trkpt lat="43.68506" lon="3.08607">
        <ele>449.55</ele>
        <time>2019-02-21T08:17:18Z</time>
      </trkpt>
      <trkpt lat="43.6851" lon="3.086">
        <ele>451</ele>
        <time>2019-02-21T08:17:30Z</time>
      </trkpt>
      <trkpt lat="43.68512" lon="3.08597">
        <ele>451.96</ele>
        <time>2019-02-21T08:17:33Z</time>
      </trkpt>
      <trkpt lat="43.68514" lon="3.08594">
        <ele>452.44</ele>
        <time>2019-02-21T08:17:36Z</time>
      </trkpt>
      <trkpt lat="43.68516" lon="3.0859">
        <ele>452.92</ele>
        <time>2019-02-21T08:17:39Z</time>
      </trkpt>
      <trkpt lat="43.68517" lon="3.08588">
        <ele>452.92</ele>
        <time>2019-02-21T08:17:42Z</time>
      </trkpt>
      <trkpt lat="43.68522" lon="3.08583">
        <ele>454.84</ele>
        <time>2019-02-21T08:17:53Z</time>
      </trkpt>
      <trkpt lat="43.68525" lon="3.08579">
        <ele>454.84</ele>
        <time>2019-02-21T08:17:59Z</time>
      </trkpt>
      <trkpt lat="43.68529" lon="3.08575">
        <ele>455.32</ele>
        <time>2019-02-21T08:18:06Z</time>
      </trkpt>
      <trkpt lat="43.68533" lon="3.08571">
        <ele>457.72</ele>
        <time>2019-02-21T08:18:17Z</time>
      </trkpt>
      <trkpt lat="43.68541" lon="3.08565">
        <ele>459.17</ele>
        <time>2019-02-21T08:18:29Z</time>
      </trkpt>
      <trkpt lat="43.6855" lon="3.0856">
        <ele>460.61</ele>
        <time>2019-02-21T08:18:40Z</time>
      </trkpt>
      <trkpt lat="43.68555" lon="3.08557">
        <ele>461.57</ele>
        <time>2019-02-21T08:18:49Z</time>
      </trkpt>
      <trkpt lat="43.68562" lon="3.08554">
        <ele>463.01</ele>
        <time>2019-02-21T08:18:59Z</time>
      </trkpt>
      <trkpt lat="43.68565" lon="3.08553">
        <ele>463.49</ele>
        <time>2019-02-21T08:19:03Z</time>
      </trkpt>
      <trkpt lat="43.6857" lon="3.08551">
        <ele>464.93</ele>
        <time>2019-02-21T08:19:14Z</time>
      </trkpt>
      <trkpt lat="43.68573" lon="3.08549">
        <ele>466.38</ele>
        <time>2019-02-21T08:19:18Z</time>
      </trkpt>
      <trkpt lat="43.68575" lon="3.08548">
        <ele>466.86</ele>
        <time>2019-02-21T08:19:21Z</time>
      </trkpt>
      <trkpt lat="43.68578" lon="3.08547">
        <ele>466.86</ele>
        <time>2019-02-21T08:19:24Z</time>
      </trkpt>
      <trkpt lat="43.68584" lon="3.08547">
        <ele>468.3</ele>
        <time>2019-02-21T08:19:33Z</time>
      </trkpt>
      <trkpt lat="43.68585" lon="3.08546">
        <ele>468.3</ele>
        <time>2019-02-21T08:19:35Z</time>
      </trkpt>
      <trkpt lat="43.68589" lon="3.08545">
        <ele>469.26</ele>
        <time>2019-02-21T08:19:40Z</time>
      </trkpt>
      <trkpt lat="43.68595" lon="3.08546">
        <ele>470.22</ele>
        <time>2019-02-21T08:19:49Z</time>
      </trkpt>
      <trkpt lat="43.686" lon="3.08546">
        <ele>471.18</ele>
        <time>2019-02-21T08:19:57Z</time>
      </trkpt>
      <trkpt lat="43.68603" lon="3.08546">
        <ele>472.14</ele>
        <time>2019-02-21T08:20:08Z</time>
      </trkpt>
      <trkpt lat="43.68609" lon="3.08545">
        <ele>472.63</ele>
        <time>2019-02-21T08:20:17Z</time>
      </trkpt>
      <trkpt lat="43.68615" lon="3.08541">
        <ele>473.59</ele>
        <time>2019-02-21T08:20:25Z</time>
      </trkpt>
      <trkpt lat="43.68617" lon="3.08539">
        <ele>474.07</ele>
        <time>2019-02-21T08:20:38Z</time>
      </trkpt>
      <trkpt lat="43.68619" lon="3.0854">
        <ele>474.55</ele>
        <time>2019-02-21T08:20:42Z</time>
      </trkpt>
      <trkpt lat="43.68624" lon="3.08537">
        <ele>475.03</ele>
        <time>2019-02-21T08:20:49Z</time>
      </trkpt>
      <trkpt lat="43.68626" lon="3.08537">
        <ele>475.51</ele>
        <time>2019-02-21T08:20:52Z</time>
      </trkpt>
      <trkpt lat="43.68628" lon="3.08536">
        <ele>476.47</ele>
        <time>2019-02-21T08:20:55Z</time>
      </trkpt>
      <trkpt lat="43.68631" lon="3.08534">
        <ele>476.47</ele>
        <time>2019-02-21T08:20:58Z</time>
      </trkpt>
      <trkpt lat="43.68633" lon="3.08532">
        <ele>477.91</ele>
        <time>2019-02-21T08:21:01Z</time>
      </trkpt>
      <trkpt lat="43.68636" lon="3.08532">
        <ele>477.91</ele>
        <time>2019-02-21T08:21:04Z</time>
      </trkpt>
      <trkpt lat="43.68641" lon="3.0853">
        <ele>479.35</ele>
        <time>2019-02-21T08:21:12Z</time>
      </trkpt>
      <trkpt lat="43.68645" lon="3.08526">
        <ele>479.84</ele>
        <time>2019-02-21T08:21:18Z</time>
      </trkpt>
      <trkpt lat="43.68647" lon="3.08525">
        <ele>480.32</ele>
        <time>2019-02-21T08:21:21Z</time>
      </trkpt>
      <trkpt lat="43.68654" lon="3.0852">
        <ele>481.28</ele>
        <time>2019-02-21T08:21:31Z</time>
      </trkpt>
      <trkpt lat="43.68655" lon="3.0852">
        <ele>481.28</ele>
        <time>2019-02-21T08:21:32Z</time>
      </trkpt>
      <trkpt lat="43.68661" lon="3.08516">
        <ele>481.76</ele>
        <time>2019-02-21T08:21:40Z</time>
      </trkpt>
      <trkpt lat="43.68662" lon="3.08515">
        <ele>481.76</ele>
        <time>2019-02-21T08:21:41Z</time>
      </trkpt>
      <trkpt lat="43.68666" lon="3.08514">
        <ele>482.24</ele>
        <time>2019-02-21T08:21:45Z</time>
      </trkpt>
      <trkpt lat="43.68676" lon="3.08512">
        <ele>483.2</ele>
        <time>2019-02-21T08:21:55Z</time>
      </trkpt>
      <trkpt lat="43.68676" lon="3.08512">
        <ele>483.2</ele>
        <time>2019-02-21T08:21:57Z</time>
      </trkpt>
      <trkpt lat="43.68678" lon="3.08511">
        <ele>483.2</ele>
        <time>2019-02-21T08:22:00Z</time>
      </trkpt>
      <trkpt lat="43.68683" lon="3.08511">
        <ele>484.16</ele>
        <time>2019-02-21T08:22:06Z</time>
      </trkpt>
      <trkpt lat="43.68685" lon="3.08511">
        <ele>484.16</ele>
        <time>2019-02-21T08:22:07Z</time>
      </trkpt>
      <trkpt lat="43.68688" lon="3.08512">
        <ele>484.64</ele>
        <time>2019-02-21T08:22:10Z</time>
      </trkpt>
      <trkpt lat="43.6869" lon="3.08513">
        <ele>484.64</ele>
        <time>2019-02-21T08:22:13Z</time>
      </trkpt>
      <trkpt lat="43.68692" lon="3.08515">
        <ele>485.6</ele>
        <time>2019-02-21T08:22:16Z</time>
      </trkpt>
      <trkpt lat="43.68695" lon="3.08519">
        <ele>487.05</ele>
        <time>2019-02-21T08:22:26Z</time>
      </trkpt>
      <trkpt lat="43.687" lon="3.08519">
        <ele>488.97</ele>
        <time>2019-02-21T08:22:35Z</time>
      </trkpt>
      <trkpt lat="43.68703" lon="3.08516">
        <ele>489.45</ele>
        <time>2019-02-21T08:22:39Z</time>
      </trkpt>
      <trkpt lat="43.6871" lon="3.08509">
        <ele>490.89</ele>
        <time>2019-02-21T08:22:50Z</time>
      </trkpt>
      <trkpt lat="43.68714" lon="3.08498">
        <ele>492.33</ele>
        <time>2019-02-21T08:23:01Z</time>
      </trkpt>
      <trkpt lat="43.68717" lon="3.08493">
        <ele>493.77</ele>
        <time>2019-02-21T08:23:09Z</time>
      </trkpt>
      <trkpt lat="43.68723" lon="3.08489">
        <ele>494.26</ele>
        <time>2019-02-21T08:23:18Z</time>
      </trkpt>
      <trkpt lat="43.68727" lon="3.08486">
        <ele>494.74</ele>
        <time>2019-02-21T08:23:31Z</time>
      </trkpt>
      <trkpt lat="43.6873" lon="3.08486">
        <ele>494.26</ele>
        <time>2019-02-21T08:23:51Z</time>
      </trkpt>
      <trkpt lat="43.68729" lon="3.08484">
        <ele>494.26</ele>
        <time>2019-02-21T08:24:29Z</time>
      </trkpt>
      <trkpt lat="43.68728" lon="3.08483">
        <ele>495.7</ele>
        <time>2019-02-21T08:25:00Z</time>
      </trkpt>
      <trkpt lat="43.68728" lon="3.08482">
        <ele>495.7</ele>
        <time>2019-02-21T08:25:23Z</time>
      </trkpt>
      <trkpt lat="43.68727" lon="3.08482">
        <ele>495.7</ele>
        <time>2019-02-21T08:25:55Z</time>
      </trkpt>
      <trkpt lat="43.6873" lon="3.08485">
        <ele>495.7</ele>
        <time>2019-02-21T08:26:20Z</time>
      </trkpt>
      <trkpt lat="43.68737" lon="3.08481">
        <ele>497.14</ele>
        <time>2019-02-21T08:26:32Z</time>
      </trkpt>
      <trkpt lat="43.68744" lon="3.08476">
        <ele>498.58</ele>
        <time>2019-02-21T08:26:44Z</time>
      </trkpt>
      <trkpt lat="43.68755" lon="3.0847">
        <ele>500.5</ele>
        <time>2019-02-21T08:26:57Z</time>
      </trkpt>
      <trkpt lat="43.68762" lon="3.08467">
        <ele>501.95</ele>
        <time>2019-02-21T08:27:05Z</time>
      </trkpt>
      <trkpt lat="43.68769" lon="3.08462">
        <ele>503.39</ele>
        <time>2019-02-21T08:27:14Z</time>
      </trkpt>
      <trkpt lat="43.68771" lon="3.08461">
        <ele>503.87</ele>
        <time>2019-02-21T08:27:17Z</time>
      </trkpt>
      <trkpt lat="43.68779" lon="3.08457">
        <ele>505.79</ele>
        <time>2019-02-21T08:27:29Z</time>
      </trkpt>
      <trkpt lat="43.68787" lon="3.08455">
        <ele>507.23</ele>
        <time>2019-02-21T08:27:39Z</time>
      </trkpt>
      <trkpt lat="43.68791" lon="3.08453">
        <ele>508.19</ele>
        <time>2019-02-21T08:27:46Z</time>
      </trkpt>
      <trkpt lat="43.68794" lon="3.08452">
        <ele>508.67</ele>
        <time>2019-02-21T08:27:49Z</time>
      </trkpt>
      <trkpt lat="43.68796" lon="3.08451">
        <ele>508.67</ele>
        <time>2019-02-21T08:27:51Z</time>
      </trkpt>
      <trkpt lat="43.688" lon="3.08448">
        <ele>510.12</ele>
        <time>2019-02-21T08:27:58Z</time>
      </trkpt>
      <trkpt lat="43.68801" lon="3.08447">
        <ele>509.64</ele>
        <time>2019-02-21T08:28:00Z</time>
      </trkpt>
      <trkpt lat="43.68805" lon="3.08443">
        <ele>511.08</ele>
        <time>2019-02-21T08:28:06Z</time>
      </trkpt>
      <trkpt lat="43.6881" lon="3.08438">
        <ele>511.08</ele>
        <time>2019-02-21T08:28:14Z</time>
      </trkpt>
      <trkpt lat="43.68815" lon="3.08432">
        <ele>512.04</ele>
        <time>2019-02-21T08:28:23Z</time>
      </trkpt>
      <trkpt lat="43.68816" lon="3.08431">
        <ele>512.52</ele>
        <time>2019-02-21T08:28:25Z</time>
      </trkpt>
      <trkpt lat="43.68821" lon="3.08427">
        <ele>513.48</ele>
        <time>2019-02-21T08:28:33Z</time>
      </trkpt>
      <trkpt lat="43.68826" lon="3.08423">
        <ele>514.44</ele>
        <time>2019-02-21T08:28:42Z</time>
      </trkpt>
      <trkpt lat="43.68833" lon="3.08418">
        <ele>515.88</ele>
        <time>2019-02-21T08:28:52Z</time>
      </trkpt>
      <trkpt lat="43.6884" lon="3.08415">
        <ele>516.85</ele>
        <time>2019-02-21T08:29:02Z</time>
      </trkpt>
      <trkpt lat="43.68844" lon="3.0841">
        <ele>517.81</ele>
        <time>2019-02-21T08:29:07Z</time>
      </trkpt>
      <trkpt lat="43.68853" lon="3.08404">
        <ele>518.77</ele>
        <time>2019-02-21T08:29:19Z</time>
      </trkpt>
      <trkpt lat="43.68856" lon="3.084">
        <ele>519.25</ele>
        <time>2019-02-21T08:29:25Z</time>
      </trkpt>
      <trkpt lat="43.68859" lon="3.08397">
        <ele>520.21</ele>
        <time>2019-02-21T08:29:29Z</time>
      </trkpt>
      <trkpt lat="43.68865" lon="3.08392">
        <ele>521.17</ele>
        <time>2019-02-21T08:29:39Z</time>
      </trkpt>
      <trkpt lat="43.68868" lon="3.08391">
        <ele>521.65</ele>
        <time>2019-02-21T08:29:43Z</time>
      </trkpt>
      <trkpt lat="43.68875" lon="3.08383">
        <ele>522.61</ele>
        <time>2019-02-21T08:29:53Z</time>
      </trkpt>
      <trkpt lat="43.68881" lon="3.08377">
        <ele>523.09</ele>
        <time>2019-02-21T08:30:01Z</time>
      </trkpt>
      <trkpt lat="43.68887" lon="3.08372">
        <ele>524.06</ele>
        <time>2019-02-21T08:30:10Z</time>
      </trkpt>
      <trkpt lat="43.68889" lon="3.0837">
        <ele>524.54</ele>
        <time>2019-02-21T08:30:13Z</time>
      </trkpt>
      <trkpt lat="43.68891" lon="3.08368">
        <ele>525.02</ele>
        <time>2019-02-21T08:30:16Z</time>
      </trkpt>
      <trkpt lat="43.68893" lon="3.08367">
        <ele>525.5</ele>
        <time>2019-02-21T08:30:19Z</time>
      </trkpt>
      <trkpt lat="43.68898" lon="3.08365">
        <ele>526.46</ele>
        <time>2019-02-21T08:30:26Z</time>
      </trkpt>
      <trkpt lat="43.68904" lon="3.0836">
        <ele>527.42</ele>
        <time>2019-02-21T08:30:33Z</time>
      </trkpt>
      <trkpt lat="43.68912" lon="3.08354">
        <ele>528.38</ele>
        <time>2019-02-21T08:30:41Z</time>
      </trkpt>
      <trkpt lat="43.6892" lon="3.08349">
        <ele>529.34</ele>
        <time>2019-02-21T08:30:49Z</time>
      </trkpt>
      <trkpt lat="43.68924" lon="3.08346">
        <ele>530.3</ele>
        <time>2019-02-21T08:30:53Z</time>
      </trkpt>
      <trkpt lat="43.68926" lon="3.08345">
        <ele>530.79</ele>
        <time>2019-02-21T08:30:59Z</time>
      </trkpt>
      <trkpt lat="43.68934" lon="3.08339">
        <ele>532.23</ele>
        <time>2019-02-21T08:31:09Z</time>
      </trkpt>
      <trkpt lat="43.68938" lon="3.08337">
        <ele>532.71</ele>
        <time>2019-02-21T08:31:13Z</time>
      </trkpt>
      <trkpt lat="43.6894" lon="3.08336">
        <ele>532.71</ele>
        <time>2019-02-21T08:31:16Z</time>
      </trkpt>
      <trkpt lat="43.68942" lon="3.08335">
        <ele>533.19</ele>
        <time>2019-02-21T08:31:19Z</time>
      </trkpt>
      <trkpt lat="43.68947" lon="3.08333">
        <ele>534.15</ele>
        <time>2019-02-21T08:31:26Z</time>
      </trkpt>
      <trkpt lat="43.68949" lon="3.08332">
        <ele>534.63</ele>
        <time>2019-02-21T08:31:29Z</time>
      </trkpt>
      <trkpt lat="43.68952" lon="3.08332">
        <ele>534.63</ele>
        <time>2019-02-21T08:31:32Z</time>
      </trkpt>
      <trkpt lat="43.6896" lon="3.08328">
        <ele>536.55</ele>
        <time>2019-02-21T08:31:44Z</time>
      </trkpt>
      <trkpt lat="43.68971" lon="3.08324">
        <ele>537.99</ele>
        <time>2019-02-21T08:31:56Z</time>
      </trkpt>
      <trkpt lat="43.68977" lon="3.08325">
        <ele>539.44</ele>
        <time>2019-02-21T08:32:08Z</time>
      </trkpt>
      <trkpt lat="43.68983" lon="3.08324">
        <ele>541.36</ele>
        <time>2019-02-21T08:32:20Z</time>
      </trkpt>
      <trkpt lat="43.68987" lon="3.08321">
        <ele>541.36</ele>
        <time>2019-02-21T08:32:25Z</time>
      </trkpt>
      <trkpt lat="43.6899" lon="3.08319">
        <ele>542.32</ele>
        <time>2019-02-21T08:32:30Z</time>
      </trkpt>
      <trkpt lat="43.68997" lon="3.08312">
        <ele>543.76</ele>
        <time>2019-02-21T08:32:41Z</time>
      </trkpt>
      <trkpt lat="43.69002" lon="3.08306">
        <ele>544.24</ele>
        <time>2019-02-21T08:32:49Z</time>
      </trkpt>
      <trkpt lat="43.69005" lon="3.08304">
        <ele>544.72</ele>
        <time>2019-02-21T08:32:52Z</time>
      </trkpt>
      <trkpt lat="43.6901" lon="3.08298">
        <ele>545.2</ele>
        <time>2019-02-21T08:32:58Z</time>
      </trkpt>
      <trkpt lat="43.69015" lon="3.0829">
        <ele>546.17</ele>
        <time>2019-02-21T08:33:06Z</time>
      </trkpt>
      <trkpt lat="43.6902" lon="3.08282">
        <ele>547.61</ele>
        <time>2019-02-21T08:33:17Z</time>
      </trkpt>
      <trkpt lat="43.69022" lon="3.08278">
        <ele>547.61</ele>
        <time>2019-02-21T08:33:21Z</time>
      </trkpt>
      <trkpt lat="43.69026" lon="3.0827">
        <ele>548.57</ele>
        <time>2019-02-21T08:33:30Z</time>
      </trkpt>
      <trkpt lat="43.69029" lon="3.08265">
        <ele>548.57</ele>
        <time>2019-02-21T08:33:34Z</time>
      </trkpt>
      <trkpt lat="43.69032" lon="3.08262">
        <ele>549.05</ele>
        <time>2019-02-21T08:33:37Z</time>
      </trkpt>
      <trkpt lat="43.69034" lon="3.0826">
        <ele>549.05</ele>
        <time>2019-02-21T08:33:40Z</time>
      </trkpt>
      <trkpt lat="43.69039" lon="3.08253">
        <ele>550.49</ele>
        <time>2019-02-21T08:33:49Z</time>
      </trkpt>
      <trkpt lat="43.69048" lon="3.08247">
        <ele>552.41</ele>
        <time>2019-02-21T08:34:05Z</time>
      </trkpt>
      <trkpt lat="43.6905" lon="3.08244">
        <ele>552.9</ele>
        <time>2019-02-21T08:34:08Z</time>
      </trkpt>
      <trkpt lat="43.69055" lon="3.08238">
        <ele>554.34</ele>
        <time>2019-02-21T08:34:18Z</time>
      </trkpt>
      <trkpt lat="43.6906" lon="3.08234">
        <ele>555.78</ele>
        <time>2019-02-21T08:34:25Z</time>
      </trkpt>
      <trkpt lat="43.69066" lon="3.08227">
        <ele>556.74</ele>
        <time>2019-02-21T08:34:35Z</time>
      </trkpt>
      <trkpt lat="43.69075" lon="3.08219">
        <ele>558.66</ele>
        <time>2019-02-21T08:34:48Z</time>
      </trkpt>
      <trkpt lat="43.69076" lon="3.08218">
        <ele>559.14</ele>
        <time>2019-02-21T08:34:50Z</time>
      </trkpt>
      <trkpt lat="43.69083" lon="3.08211">
        <ele>560.11</ele>
        <time>2019-02-21T08:35:00Z</time>
      </trkpt>
      <trkpt lat="43.69093" lon="3.08201">
        <ele>561.55</ele>
        <time>2019-02-21T08:35:14Z</time>
      </trkpt>
      <trkpt lat="43.69099" lon="3.08195">
        <ele>562.99</ele>
        <time>2019-02-21T08:35:24Z</time>
      </trkpt>
      <trkpt lat="43.69106" lon="3.08189">
        <ele>564.43</ele>
        <time>2019-02-21T08:35:33Z</time>
      </trkpt>
      <trkpt lat="43.69111" lon="3.08183">
        <ele>565.39</ele>
        <time>2019-02-21T08:35:41Z</time>
      </trkpt>
      <trkpt lat="43.69113" lon="3.08181">
        <ele>565.87</ele>
        <time>2019-02-21T08:35:44Z</time>
      </trkpt>
      <trkpt lat="43.69118" lon="3.08178">
        <ele>566.35</ele>
        <time>2019-02-21T08:35:52Z</time>
      </trkpt>
      <trkpt lat="43.69119" lon="3.08176">
        <ele>566.83</ele>
        <time>2019-02-21T08:35:55Z</time>
      </trkpt>
      <trkpt lat="43.69125" lon="3.0817">
        <ele>568.28</ele>
        <time>2019-02-21T08:36:06Z</time>
      </trkpt>
      <trkpt lat="43.69131" lon="3.08167">
        <ele>570.2</ele>
        <time>2019-02-21T08:36:17Z</time>
      </trkpt>
      <trkpt lat="43.69136" lon="3.08165">
        <ele>572.12</ele>
        <time>2019-02-21T08:36:27Z</time>
      </trkpt>
      <trkpt lat="43.69143" lon="3.08163">
        <ele>574.04</ele>
        <time>2019-02-21T08:36:40Z</time>
      </trkpt>
      <trkpt lat="43.69149" lon="3.08162">
        <ele>575.97</ele>
        <time>2019-02-21T08:36:51Z</time>
      </trkpt>
      <trkpt lat="43.69155" lon="3.0816">
        <ele>578.37</ele>
        <time>2019-02-21T08:37:04Z</time>
      </trkpt>
      <trkpt lat="43.69164" lon="3.08153">
        <ele>579.81</ele>
        <time>2019-02-21T08:37:18Z</time>
      </trkpt>
      <trkpt lat="43.69168" lon="3.0815">
        <ele>581.73</ele>
        <time>2019-02-21T08:37:30Z</time>
      </trkpt>
      <trkpt lat="43.69177" lon="3.08142">
        <ele>583.18</ele>
        <time>2019-02-21T08:37:45Z</time>
      </trkpt>
      <trkpt lat="43.69183" lon="3.08131">
        <ele>584.62</ele>
        <time>2019-02-21T08:37:54Z</time>
      </trkpt>
      <trkpt lat="43.69188" lon="3.08126">
        <ele>586.54</ele>
        <time>2019-02-21T08:38:05Z</time>
      </trkpt>
      <trkpt lat="43.6919" lon="3.08123">
        <ele>587.98</ele>
        <time>2019-02-21T08:38:12Z</time>
      </trkpt>
      <trkpt lat="43.69195" lon="3.08118">
        <ele>589.43</ele>
        <time>2019-02-21T08:38:22Z</time>
      </trkpt>
      <trkpt lat="43.69196" lon="3.08116">
        <ele>589.43</ele>
        <time>2019-02-21T08:38:24Z</time>
      </trkpt>
      <trkpt lat="43.69197" lon="3.08113">
        <ele>589.91</ele>
        <time>2019-02-21T08:38:27Z</time>
      </trkpt>
      <trkpt lat="43.69204" lon="3.08109">
        <ele>591.35</ele>
        <time>2019-02-21T08:38:37Z</time>
      </trkpt>
      <trkpt lat="43.6921" lon="3.08105">
        <ele>592.79</ele>
        <time>2019-02-21T08:38:46Z</time>
      </trkpt>
      <trkpt lat="43.69215" lon="3.08099">
        <ele>594.23</ele>
        <time>2019-02-21T08:38:58Z</time>
      </trkpt>
      <trkpt lat="43.6922" lon="3.08092">
        <ele>594.71</ele>
        <time>2019-02-21T08:39:06Z</time>
      </trkpt>
      <trkpt lat="43.69224" lon="3.08087">
        <ele>596.15</ele>
        <time>2019-02-21T08:39:18Z</time>
      </trkpt>
      <trkpt lat="43.69227" lon="3.08084">
        <ele>597.12</ele>
        <time>2019-02-21T08:39:24Z</time>
      </trkpt>
      <trkpt lat="43.69237" lon="3.08079">
        <ele>598.56</ele>
        <time>2019-02-21T08:39:36Z</time>
      </trkpt>
      <trkpt lat="43.69242" lon="3.08071">
        <ele>599.52</ele>
        <time>2019-02-21T08:39:47Z</time>
      </trkpt>
      <trkpt lat="43.69247" lon="3.08064">
        <ele>601.44</ele>
        <time>2019-02-21T08:40:00Z</time>
      </trkpt>
      <trkpt lat="43.69255" lon="3.08053">
        <ele>602.4</ele>
        <time>2019-02-21T08:40:12Z</time>
      </trkpt>
      <trkpt lat="43.69258" lon="3.0805">
        <ele>602.4</ele>
        <time>2019-02-21T08:40:34Z</time>
      </trkpt>
      <trkpt lat="43.6926" lon="3.0805">
        <ele>602.4</ele>
        <time>2019-02-21T08:40:48Z</time>
      </trkpt>
      <trkpt lat="43.69261" lon="3.08048">
        <ele>602.4</ele>
        <time>2019-02-21T08:41:04Z</time>
      </trkpt>
      <trkpt lat="43.69261" lon="3.08049">
        <ele>602.4</ele>
        <time>2019-02-21T08:41:32Z</time>
      </trkpt>
      <trkpt lat="43.69258" lon="3.08054">
        <ele>602.4</ele>
        <time>2019-02-21T08:41:55Z</time>
      </trkpt>
      <trkpt lat="43.69256" lon="3.08049">
        <ele>601.92</ele>
        <time>2019-02-21T08:42:21Z</time>
      </trkpt>
      <trkpt lat="43.69256" lon="3.08047">
        <ele>601.92</ele>
        <time>2019-02-21T08:42:43Z</time>
      </trkpt>
      <trkpt lat="43.69251" lon="3.08049">
        <ele>601.92</ele>
        <time>2019-02-21T08:43:18Z</time>
      </trkpt>
      <trkpt lat="43.69261" lon="3.08052">
        <ele>601.92</ele>
        <time>2019-02-21T08:43:39Z</time>
      </trkpt>
      <trkpt lat="43.69262" lon="3.08053">
        <ele>601.44</ele>
        <time>2019-02-21T08:44:00Z</time>
      </trkpt>
      <trkpt lat="43.69262" lon="3.08056">
        <ele>601.44</ele>
        <time>2019-02-21T08:44:24Z</time>
      </trkpt>
      <trkpt lat="43.69263" lon="3.08057">
        <ele>600.96</ele>
        <time>2019-02-21T08:44:46Z</time>
      </trkpt>
      <trkpt lat="43.69264" lon="3.08057">
        <ele>600.96</ele>
        <time>2019-02-21T08:45:09Z</time>
      </trkpt>
      <trkpt lat="43.69265" lon="3.08052">
        <ele>602.4</ele>
        <time>2019-02-21T08:45:28Z</time>
      </trkpt>
      <trkpt lat="43.69265" lon="3.08051">
        <ele>602.4</ele>
        <time>2019-02-21T08:45:29Z</time>
      </trkpt>
      <trkpt lat="43.69268" lon="3.08049">
        <ele>603.36</ele>
        <time>2019-02-21T08:45:33Z</time>
      </trkpt>
      <trkpt lat="43.69269" lon="3.08047">
        <ele>603.85</ele>
        <time>2019-02-21T08:45:36Z</time>
      </trkpt>
      <trkpt lat="43.6927" lon="3.08046">
        <ele>603.85</ele>
        <time>2019-02-21T08:45:39Z</time>
      </trkpt>
      <trkpt lat="43.69272" lon="3.08045">
        <ele>604.81</ele>
        <time>2019-02-21T08:45:42Z</time>
      </trkpt>
      <trkpt lat="43.69276" lon="3.08041">
        <ele>605.77</ele>
        <time>2019-02-21T08:45:51Z</time>
      </trkpt>
      <trkpt lat="43.69277" lon="3.08041">
        <ele>605.77</ele>
        <time>2019-02-21T08:45:52Z</time>
      </trkpt>
      <trkpt lat="43.69281" lon="3.08039">
        <ele>606.73</ele>
        <time>2019-02-21T08:45:58Z</time>
      </trkpt>
      <trkpt lat="43.69283" lon="3.08037">
        <ele>606.73</ele>
        <time>2019-02-21T08:46:01Z</time>
      </trkpt>
      <trkpt lat="43.69285" lon="3.08034">
        <ele>607.69</ele>
        <time>2019-02-21T08:46:04Z</time>
      </trkpt>
      <trkpt lat="43.69287" lon="3.08021">
        <ele>608.65</ele>
        <time>2019-02-21T08:46:16Z</time>
      </trkpt>
      <trkpt lat="43.69293" lon="3.08006">
        <ele>609.61</ele>
        <time>2019-02-21T08:46:28Z</time>
      </trkpt>
      <trkpt lat="43.69294" lon="3.07998">
        <ele>610.57</ele>
        <time>2019-02-21T08:46:37Z</time>
      </trkpt>
      <trkpt lat="43.69298" lon="3.07984">
        <ele>611.06</ele>
        <time>2019-02-21T08:46:50Z</time>
      </trkpt>
      <trkpt lat="43.69298" lon="3.07974">
        <ele>611.54</ele>
        <time>2019-02-21T08:47:00Z</time>
      </trkpt>
      <trkpt lat="43.69298" lon="3.07967">
        <ele>612.02</ele>
        <time>2019-02-21T08:47:05Z</time>
      </trkpt>
      <trkpt lat="43.693" lon="3.07962">
        <ele>612.5</ele>
        <time>2019-02-21T08:47:08Z</time>
      </trkpt>
      <trkpt lat="43.693" lon="3.07951">
        <ele>612.98</ele>
        <time>2019-02-21T08:47:16Z</time>
      </trkpt>
      <trkpt lat="43.69298" lon="3.07939">
        <ele>614.42</ele>
        <time>2019-02-21T08:47:27Z</time>
      </trkpt>
      <trkpt lat="43.69295" lon="3.07936">
        <ele>614.9</ele>
        <time>2019-02-21T08:47:30Z</time>
      </trkpt>
      <trkpt lat="43.6929" lon="3.07926">
        <ele>615.86</ele>
        <time>2019-02-21T08:47:41Z</time>
      </trkpt>
      <trkpt lat="43.69289" lon="3.07922">
        <ele>615.86</ele>
        <time>2019-02-21T08:47:43Z</time>
      </trkpt>
      <trkpt lat="43.69289" lon="3.07911">
        <ele>616.82</ele>
        <time>2019-02-21T08:47:53Z</time>
      </trkpt>
      <trkpt lat="43.69289" lon="3.079">
        <ele>617.3</ele>
        <time>2019-02-21T08:48:02Z</time>
      </trkpt>
      <trkpt lat="43.69289" lon="3.07899">
        <ele>617.78</ele>
        <time>2019-02-21T08:48:03Z</time>
      </trkpt>
      <trkpt lat="43.69286" lon="3.07886">
        <ele>618.75</ele>
        <time>2019-02-21T08:48:13Z</time>
      </trkpt>
      <trkpt lat="43.69286" lon="3.07882">
        <ele>618.75</ele>
        <time>2019-02-21T08:48:16Z</time>
      </trkpt>
      <trkpt lat="43.69283" lon="3.07873">
        <ele>619.71</ele>
        <time>2019-02-21T08:48:23Z</time>
      </trkpt>
      <trkpt lat="43.69284" lon="3.07869">
        <ele>619.71</ele>
        <time>2019-02-21T08:48:25Z</time>
      </trkpt>
      <trkpt lat="43.69283" lon="3.07864">
        <ele>620.19</ele>
        <time>2019-02-21T08:48:28Z</time>
      </trkpt>
      <trkpt lat="43.69277" lon="3.07853">
        <ele>622.11</ele>
        <time>2019-02-21T08:48:38Z</time>
      </trkpt>
      <trkpt lat="43.69263" lon="3.07841">
        <ele>623.55</ele>
        <time>2019-02-21T08:48:50Z</time>
      </trkpt>
      <trkpt lat="43.69257" lon="3.07836">
        <ele>623.55</ele>
        <time>2019-02-21T08:49:03Z</time>
      </trkpt>
      <trkpt lat="43.69251" lon="3.07826">
        <ele>623.55</ele>
        <time>2019-02-21T08:49:20Z</time>
      </trkpt>
      <trkpt lat="43.69248" lon="3.07821">
        <ele>623.55</ele>
        <time>2019-02-21T08:49:46Z</time>
      </trkpt>
      <trkpt lat="43.69246" lon="3.07825">
        <ele>623.55</ele>
        <time>2019-02-21T08:50:09Z</time>
      </trkpt>
      <trkpt lat="43.69246" lon="3.07827">
        <ele>623.55</ele>
        <time>2019-02-21T08:50:36Z</time>
      </trkpt>
      <trkpt lat="43.69246" lon="3.07827">
        <ele>623.55</ele>
        <time>2019-02-21T08:51:04Z</time>
      </trkpt>
      <trkpt lat="43.69249" lon="3.07825">
        <ele>623.55</ele>
        <time>2019-02-21T08:51:31Z</time>
      </trkpt>
      <trkpt lat="43.69249" lon="3.07825">
        <ele>623.07</ele>
        <time>2019-02-21T08:51:52Z</time>
      </trkpt>
      <trkpt lat="43.6925" lon="3.07826">
        <ele>623.07</ele>
        <time>2019-02-21T08:52:30Z</time>
      </trkpt>
      <trkpt lat="43.6925" lon="3.0783">
        <ele>623.07</ele>
        <time>2019-02-21T08:52:50Z</time>
      </trkpt>
      <trkpt lat="43.6925" lon="3.07833">
        <ele>623.07</ele>
        <time>2019-02-21T08:53:27Z</time>
      </trkpt>
      <trkpt lat="43.6925" lon="3.0783">
        <ele>623.07</ele>
        <time>2019-02-21T08:53:51Z</time>
      </trkpt>
      <trkpt lat="43.6925" lon="3.07824">
        <ele>622.59</ele>
        <time>2019-02-21T08:54:15Z</time>
      </trkpt>
      <trkpt lat="43.69248" lon="3.07825">
        <ele>622.59</ele>
        <time>2019-02-21T08:54:29Z</time>
      </trkpt>
      <trkpt lat="43.69249" lon="3.07827">
        <ele>623.55</ele>
        <time>2019-02-21T08:54:41Z</time>
      </trkpt>
      <trkpt lat="43.69247" lon="3.07823">
        <ele>622.11</ele>
        <time>2019-02-21T08:54:53Z</time>
      </trkpt>
      <trkpt lat="43.69247" lon="3.07825">
        <ele>621.63</ele>
        <time>2019-02-21T08:55:15Z</time>
      </trkpt>
      <trkpt lat="43.69244" lon="3.07825">
        <ele>621.63</ele>
        <time>2019-02-21T08:55:42Z</time>
      </trkpt>
      <trkpt lat="43.69244" lon="3.07826">
        <ele>621.63</ele>
        <time>2019-02-21T08:56:13Z</time>
      </trkpt>
      <trkpt lat="43.69243" lon="3.07828">
        <ele>621.63</ele>
        <time>2019-02-21T08:56:42Z</time>
      </trkpt>
      <trkpt lat="43.69243" lon="3.07826">
        <ele>621.63</ele>
        <time>2019-02-21T08:57:05Z</time>
      </trkpt>
      <trkpt lat="43.69242" lon="3.07827">
        <ele>621.63</ele>
        <time>2019-02-21T08:57:37Z</time>
      </trkpt>
      <trkpt lat="43.69243" lon="3.07824">
        <ele>621.63</ele>
        <time>2019-02-21T08:58:08Z</time>
      </trkpt>
      <trkpt lat="43.69245" lon="3.07825">
        <ele>621.63</ele>
        <time>2019-02-21T08:58:48Z</time>
      </trkpt>
      <trkpt lat="43.69245" lon="3.07826">
        <ele>621.15</ele>
        <time>2019-02-21T08:59:26Z</time>
      </trkpt>
      <trkpt lat="43.69244" lon="3.07826">
        <ele>621.15</ele>
        <time>2019-02-21T08:59:52Z</time>
      </trkpt>
      <trkpt lat="43.69242" lon="3.07829">
        <ele>621.15</ele>
        <time>2019-02-21T09:00:24Z</time>
      </trkpt>
      <trkpt lat="43.69241" lon="3.07828">
        <ele>621.15</ele>
        <time>2019-02-21T09:00:57Z</time>
      </trkpt>
      <trkpt lat="43.69241" lon="3.07827">
        <ele>621.15</ele>
        <time>2019-02-21T09:01:28Z</time>
      </trkpt>
      <trkpt lat="43.69243" lon="3.07828">
        <ele>621.15</ele>
        <time>2019-02-21T09:01:33Z</time>
      </trkpt>
      <trkpt lat="43.69245" lon="3.0783">
        <ele>621.15</ele>
        <time>2019-02-21T09:01:36Z</time>
      </trkpt>
      <trkpt lat="43.69246" lon="3.0783">
        <ele>621.15</ele>
        <time>2019-02-21T09:01:48Z</time>
      </trkpt>
      <trkpt lat="43.69248" lon="3.0783">
        <ele>620.67</ele>
        <time>2019-02-21T09:02:19Z</time>
      </trkpt>
      <trkpt lat="43.69247" lon="3.07829">
        <ele>622.11</ele>
        <time>2019-02-21T09:02:28Z</time>
      </trkpt>
      <trkpt lat="43.69252" lon="3.07826">
        <ele>622.11</ele>
        <time>2019-02-21T09:02:36Z</time>
      </trkpt>
      <trkpt lat="43.69254" lon="3.07824">
        <ele>622.11</ele>
        <time>2019-02-21T09:02:39Z</time>
      </trkpt>
      <trkpt lat="43.69255" lon="3.07822">
        <ele>622.11</ele>
        <time>2019-02-21T09:02:42Z</time>
      </trkpt>
      <trkpt lat="43.69257" lon="3.07821">
        <ele>622.11</ele>
        <time>2019-02-21T09:02:43Z</time>
      </trkpt>
      <trkpt lat="43.6926" lon="3.0782">
        <ele>622.11</ele>
        <time>2019-02-21T09:02:46Z</time>
      </trkpt>
      <trkpt lat="43.6927" lon="3.07812">
        <ele>622.11</ele>
        <time>2019-02-21T09:02:58Z</time>
      </trkpt>
      <trkpt lat="43.6928" lon="3.07805">
        <ele>622.11</ele>
        <time>2019-02-21T09:03:11Z</time>
      </trkpt>
      <trkpt lat="43.6929" lon="3.07795">
        <ele>622.11</ele>
        <time>2019-02-21T09:03:27Z</time>
      </trkpt>
      <trkpt lat="43.69298" lon="3.0779">
        <ele>620.67</ele>
        <time>2019-02-21T09:03:36Z</time>
      </trkpt>
      <trkpt lat="43.69313" lon="3.07782">
        <ele>620.67</ele>
        <time>2019-02-21T09:03:53Z</time>
      </trkpt>
      <trkpt lat="43.69323" lon="3.07774">
        <ele>620.19</ele>
        <time>2019-02-21T09:04:07Z</time>
      </trkpt>
      <trkpt lat="43.69326" lon="3.07767">
        <ele>621.63</ele>
        <time>2019-02-21T09:04:20Z</time>
      </trkpt>
      <trkpt lat="43.69326" lon="3.07763">
        <ele>623.07</ele>
        <time>2019-02-21T09:04:32Z</time>
      </trkpt>
      <trkpt lat="43.69321" lon="3.07767">
        <ele>624.99</ele>
        <time>2019-02-21T09:04:42Z</time>
      </trkpt>
      <trkpt lat="43.69316" lon="3.07775">
        <ele>626.44</ele>
        <time>2019-02-21T09:04:55Z</time>
      </trkpt>
      <trkpt lat="43.69312" lon="3.07783">
        <ele>627.88</ele>
        <time>2019-02-21T09:05:07Z</time>
      </trkpt>
      <trkpt lat="43.6931" lon="3.07793">
        <ele>629.32</ele>
        <time>2019-02-21T09:05:19Z</time>
      </trkpt>
      <trkpt lat="43.69307" lon="3.07804">
        <ele>630.76</ele>
        <time>2019-02-21T09:05:30Z</time>
      </trkpt>
      <trkpt lat="43.69311" lon="3.07817">
        <ele>631.24</ele>
        <time>2019-02-21T09:05:53Z</time>
      </trkpt>
      <trkpt lat="43.69314" lon="3.07824">
        <ele>633.17</ele>
        <time>2019-02-21T09:06:12Z</time>
      </trkpt>
      <trkpt lat="43.69314" lon="3.07829">
        <ele>635.09</ele>
        <time>2019-02-21T09:06:25Z</time>
      </trkpt>
      <trkpt lat="43.69317" lon="3.0783">
        <ele>637.49</ele>
        <time>2019-02-21T09:06:36Z</time>
      </trkpt>
      <trkpt lat="43.69325" lon="3.07831">
        <ele>639.41</ele>
        <time>2019-02-21T09:06:47Z</time>
      </trkpt>
      <trkpt lat="43.69334" lon="3.0783">
        <ele>641.82</ele>
        <time>2019-02-21T09:06:57Z</time>
      </trkpt>
      <trkpt lat="43.69338" lon="3.07834">
        <ele>644.7</ele>
        <time>2019-02-21T09:07:11Z</time>
      </trkpt>
      <trkpt lat="43.69343" lon="3.07841">
        <ele>646.62</ele>
        <time>2019-02-21T09:07:23Z</time>
      </trkpt>
      <trkpt lat="43.6935" lon="3.07844">
        <ele>649.03</ele>
        <time>2019-02-21T09:07:34Z</time>
      </trkpt>
      <trkpt lat="43.69352" lon="3.07842">
        <ele>649.03</ele>
        <time>2019-02-21T09:07:37Z</time>
      </trkpt>
      <trkpt lat="43.69357" lon="3.07839">
        <ele>649.99</ele>
        <time>2019-02-21T09:07:46Z</time>
      </trkpt>
      <trkpt lat="43.69366" lon="3.07834">
        <ele>651.43</ele>
        <time>2019-02-21T09:07:56Z</time>
      </trkpt>
      <trkpt lat="43.69371" lon="3.0783">
        <ele>653.35</ele>
        <time>2019-02-21T09:08:10Z</time>
      </trkpt>
      <trkpt lat="43.69376" lon="3.07829">
        <ele>654.31</ele>
        <time>2019-02-21T09:08:19Z</time>
      </trkpt>
      <trkpt lat="43.69382" lon="3.07828">
        <ele>657.68</ele>
        <time>2019-02-21T09:08:36Z</time>
      </trkpt>
      <trkpt lat="43.6939" lon="3.07823">
        <ele>659.6</ele>
        <time>2019-02-21T09:08:49Z</time>
      </trkpt>
      <trkpt lat="43.69389" lon="3.07825">
        <ele>659.6</ele>
        <time>2019-02-21T09:08:54Z</time>
      </trkpt>
      <trkpt lat="43.69389" lon="3.07825">
        <ele>660.08</ele>
        <time>2019-02-21T09:08:57Z</time>
      </trkpt>
      <trkpt lat="43.69387" lon="3.07831">
        <ele>660.08</ele>
        <time>2019-02-21T09:09:05Z</time>
      </trkpt>
      <trkpt lat="43.69387" lon="3.07834">
        <ele>660.56</ele>
        <time>2019-02-21T09:09:08Z</time>
      </trkpt>
      <trkpt lat="43.69386" lon="3.07837">
        <ele>660.08</ele>
        <time>2019-02-21T09:09:11Z</time>
      </trkpt>
      <trkpt lat="43.69387" lon="3.07841">
        <ele>660.56</ele>
        <time>2019-02-21T09:09:14Z</time>
      </trkpt>
      <trkpt lat="43.69387" lon="3.07845">
        <ele>660.56</ele>
        <time>2019-02-21T09:09:17Z</time>
      </trkpt>
      <trkpt lat="43.69387" lon="3.07847">
        <ele>660.56</ele>
        <time>2019-02-21T09:09:18Z</time>
      </trkpt>
      <trkpt lat="43.69388" lon="3.07861">
        <ele>661.04</ele>
        <time>2019-02-21T09:09:28Z</time>
      </trkpt>
      <trkpt lat="43.69388" lon="3.07867">
        <ele>661.04</ele>
        <time>2019-02-21T09:09:32Z</time>
      </trkpt>
      <trkpt lat="43.69388" lon="3.07868">
        <ele>661.04</ele>
        <time>2019-02-21T09:09:33Z</time>
      </trkpt>
      <trkpt lat="43.69389" lon="3.07879">
        <ele>661.52</ele>
        <time>2019-02-21T09:09:40Z</time>
      </trkpt>
      <trkpt lat="43.6939" lon="3.07882">
        <ele>662.01</ele>
        <time>2019-02-21T09:09:43Z</time>
      </trkpt>
      <trkpt lat="43.6939" lon="3.07884">
        <ele>662.01</ele>
        <time>2019-02-21T09:09:44Z</time>
      </trkpt>
      <trkpt lat="43.6939" lon="3.07892">
        <ele>662.01</ele>
        <time>2019-02-21T09:09:50Z</time>
      </trkpt>
      <trkpt lat="43.6939" lon="3.07894">
        <ele>662.01</ele>
        <time>2019-02-21T09:09:51Z</time>
      </trkpt>
      <trkpt lat="43.6939" lon="3.07897">
        <ele>662.49</ele>
        <time>2019-02-21T09:09:54Z</time>
      </trkpt>
      <trkpt lat="43.69391" lon="3.07899">
        <ele>662.49</ele>
        <time>2019-02-21T09:09:55Z</time>
      </trkpt>
      <trkpt lat="43.69392" lon="3.07908">
        <ele>662.97</ele>
        <time>2019-02-21T09:10:01Z</time>
      </trkpt>
      <trkpt lat="43.69392" lon="3.0791">
        <ele>662.97</ele>
        <time>2019-02-21T09:10:02Z</time>
      </trkpt>
      <trkpt lat="43.69393" lon="3.07914">
        <ele>662.97</ele>
        <time>2019-02-21T09:10:05Z</time>
      </trkpt>
      <trkpt lat="43.69394" lon="3.07916">
        <ele>662.97</ele>
        <time>2019-02-21T09:10:06Z</time>
      </trkpt>
      <trkpt lat="43.69394" lon="3.07919">
        <ele>663.45</ele>
        <time>2019-02-21T09:10:09Z</time>
      </trkpt>
      <trkpt lat="43.69394" lon="3.07921">
        <ele>663.45</ele>
        <time>2019-02-21T09:10:10Z</time>
      </trkpt>
      <trkpt lat="43.69394" lon="3.07925">
        <ele>662.97</ele>
        <time>2019-02-21T09:10:13Z</time>
      </trkpt>
      <trkpt lat="43.69395" lon="3.07926">
        <ele>662.97</ele>
        <time>2019-02-21T09:10:14Z</time>
      </trkpt>
      <trkpt lat="43.69397" lon="3.07934">
        <ele>663.93</ele>
        <time>2019-02-21T09:10:20Z</time>
      </trkpt>
      <trkpt lat="43.69397" lon="3.07936">
        <ele>664.41</ele>
        <time>2019-02-21T09:10:21Z</time>
      </trkpt>
      <trkpt lat="43.69398" lon="3.07947">
        <ele>664.41</ele>
        <time>2019-02-21T09:10:30Z</time>
      </trkpt>
      <trkpt lat="43.69401" lon="3.07962">
        <ele>664.89</ele>
        <time>2019-02-21T09:10:39Z</time>
      </trkpt>
      <trkpt lat="43.69401" lon="3.07964">
        <ele>664.89</ele>
        <time>2019-02-21T09:10:41Z</time>
      </trkpt>
      <trkpt lat="43.69401" lon="3.07966">
        <ele>664.89</ele>
        <time>2019-02-21T09:10:42Z</time>
      </trkpt>
      <trkpt lat="43.69401" lon="3.0797">
        <ele>665.37</ele>
        <time>2019-02-21T09:10:45Z</time>
      </trkpt>
      <trkpt lat="43.69401" lon="3.07972">
        <ele>665.37</ele>
        <time>2019-02-21T09:10:46Z</time>
      </trkpt>
      <trkpt lat="43.694" lon="3.07982">
        <ele>665.85</ele>
        <time>2019-02-21T09:10:55Z</time>
      </trkpt>
      <trkpt lat="43.694" lon="3.07986">
        <ele>665.85</ele>
        <time>2019-02-21T09:10:58Z</time>
      </trkpt>
      <trkpt lat="43.694" lon="3.07988">
        <ele>665.85</ele>
        <time>2019-02-21T09:10:59Z</time>
      </trkpt>
      <trkpt lat="43.694" lon="3.07992">
        <ele>665.85</ele>
        <time>2019-02-21T09:11:02Z</time>
      </trkpt>
      <trkpt lat="43.694" lon="3.07993">
        <ele>666.33</ele>
        <time>2019-02-21T09:11:03Z</time>
      </trkpt>
      <trkpt lat="43.694" lon="3.07994">
        <ele>666.33</ele>
        <time>2019-02-21T09:11:04Z</time>
      </trkpt>
      <trkpt lat="43.69397" lon="3.08008">
        <ele>667.29</ele>
        <time>2019-02-21T09:11:13Z</time>
      </trkpt>
      <trkpt lat="43.69396" lon="3.0801">
        <ele>667.29</ele>
        <time>2019-02-21T09:11:15Z</time>
      </trkpt>
      <trkpt lat="43.69395" lon="3.08011">
        <ele>667.29</ele>
        <time>2019-02-21T09:11:16Z</time>
      </trkpt>
      <trkpt lat="43.69395" lon="3.08013">
        <ele>666.81</ele>
        <time>2019-02-21T09:11:17Z</time>
      </trkpt>
      <trkpt lat="43.69394" lon="3.08016">
        <ele>666.81</ele>
        <time>2019-02-21T09:11:20Z</time>
      </trkpt>
      <trkpt lat="43.69393" lon="3.08018">
        <ele>666.81</ele>
        <time>2019-02-21T09:11:21Z</time>
      </trkpt>
      <trkpt lat="43.69392" lon="3.08024">
        <ele>666.81</ele>
        <time>2019-02-21T09:11:25Z</time>
      </trkpt>
      <trkpt lat="43.69392" lon="3.08026">
        <ele>667.29</ele>
        <time>2019-02-21T09:11:26Z</time>
      </trkpt>
      <trkpt lat="43.69392" lon="3.0803">
        <ele>667.29</ele>
        <time>2019-02-21T09:11:29Z</time>
      </trkpt>
      <trkpt lat="43.69391" lon="3.08032">
        <ele>667.29</ele>
        <time>2019-02-21T09:11:30Z</time>
      </trkpt>
      <trkpt lat="43.6939" lon="3.08041">
        <ele>667.77</ele>
        <time>2019-02-21T09:11:37Z</time>
      </trkpt>
      <trkpt lat="43.6939" lon="3.08042">
        <ele>667.77</ele>
        <time>2019-02-21T09:11:38Z</time>
      </trkpt>
      <trkpt lat="43.69389" lon="3.08052">
        <ele>668.73</ele>
        <time>2019-02-21T09:11:46Z</time>
      </trkpt>
      <trkpt lat="43.69389" lon="3.08054">
        <ele>668.73</ele>
        <time>2019-02-21T09:11:47Z</time>
      </trkpt>
      <trkpt lat="43.69388" lon="3.08057">
        <ele>668.73</ele>
        <time>2019-02-21T09:11:50Z</time>
      </trkpt>
      <trkpt lat="43.69388" lon="3.08059">
        <ele>669.22</ele>
        <time>2019-02-21T09:11:51Z</time>
      </trkpt>
      <trkpt lat="43.69385" lon="3.08068">
        <ele>669.7</ele>
        <time>2019-02-21T09:12:00Z</time>
      </trkpt>
      <trkpt lat="43.69382" lon="3.08076">
        <ele>670.18</ele>
        <time>2019-02-21T09:12:07Z</time>
      </trkpt>
      <trkpt lat="43.69377" lon="3.08089">
        <ele>670.66</ele>
        <time>2019-02-21T09:12:17Z</time>
      </trkpt>
      <trkpt lat="43.69377" lon="3.08091">
        <ele>671.14</ele>
        <time>2019-02-21T09:12:20Z</time>
      </trkpt>
      <trkpt lat="43.69375" lon="3.08094">
        <ele>671.14</ele>
        <time>2019-02-21T09:12:23Z</time>
      </trkpt>
      <trkpt lat="43.69374" lon="3.08096">
        <ele>671.14</ele>
        <time>2019-02-21T09:12:24Z</time>
      </trkpt>
      <trkpt lat="43.69371" lon="3.08104">
        <ele>671.62</ele>
        <time>2019-02-21T09:12:31Z</time>
      </trkpt>
      <trkpt lat="43.6937" lon="3.08105">
        <ele>672.1</ele>
        <time>2019-02-21T09:12:32Z</time>
      </trkpt>
      <trkpt lat="43.6937" lon="3.08107">
        <ele>672.1</ele>
        <time>2019-02-21T09:12:33Z</time>
      </trkpt>
      <trkpt lat="43.69368" lon="3.08115">
        <ele>672.58</ele>
        <time>2019-02-21T09:12:40Z</time>
      </trkpt>
      <trkpt lat="43.69368" lon="3.08117">
        <ele>672.58</ele>
        <time>2019-02-21T09:12:41Z</time>
      </trkpt>
      <trkpt lat="43.69365" lon="3.08128">
        <ele>672.58</ele>
        <time>2019-02-21T09:12:49Z</time>
      </trkpt>
      <trkpt lat="43.69364" lon="3.08129">
        <ele>673.06</ele>
        <time>2019-02-21T09:12:50Z</time>
      </trkpt>
      <trkpt lat="43.69359" lon="3.08143">
        <ele>673.54</ele>
        <time>2019-02-21T09:13:00Z</time>
      </trkpt>
      <trkpt lat="43.69359" lon="3.08146">
        <ele>673.54</ele>
        <time>2019-02-21T09:13:02Z</time>
      </trkpt>
      <trkpt lat="43.69358" lon="3.08147">
        <ele>673.54</ele>
        <time>2019-02-21T09:13:03Z</time>
      </trkpt>
      <trkpt lat="43.69358" lon="3.08149">
        <ele>673.54</ele>
        <time>2019-02-21T09:13:04Z</time>
      </trkpt>
      <trkpt lat="43.69357" lon="3.08153">
        <ele>673.54</ele>
        <time>2019-02-21T09:13:07Z</time>
      </trkpt>
      <trkpt lat="43.69356" lon="3.08155">
        <ele>673.54</ele>
        <time>2019-02-21T09:13:08Z</time>
      </trkpt>
      <trkpt lat="43.69352" lon="3.0817">
        <ele>674.5</ele>
        <time>2019-02-21T09:13:18Z</time>
      </trkpt>
      <trkpt lat="43.69348" lon="3.08188">
        <ele>675.46</ele>
        <time>2019-02-21T09:13:30Z</time>
      </trkpt>
      <trkpt lat="43.69346" lon="3.08194">
        <ele>675.46</ele>
        <time>2019-02-21T09:13:34Z</time>
      </trkpt>
      <trkpt lat="43.69343" lon="3.0821">
        <ele>676.42</ele>
        <time>2019-02-21T09:13:45Z</time>
      </trkpt>
      <trkpt lat="43.6934" lon="3.08225">
        <ele>677.39</ele>
        <time>2019-02-21T09:13:54Z</time>
      </trkpt>
      <trkpt lat="43.69339" lon="3.08229">
        <ele>677.39</ele>
        <time>2019-02-21T09:13:57Z</time>
      </trkpt>
      <trkpt lat="43.69339" lon="3.08231">
        <ele>677.39</ele>
        <time>2019-02-21T09:13:58Z</time>
      </trkpt>
      <trkpt lat="43.69339" lon="3.08232">
        <ele>677.39</ele>
        <time>2019-02-21T09:13:59Z</time>
      </trkpt>
      <trkpt lat="43.69334" lon="3.08242">
        <ele>677.87</ele>
        <time>2019-02-21T09:14:07Z</time>
      </trkpt>
      <trkpt lat="43.69333" lon="3.08243">
        <ele>677.87</ele>
        <time>2019-02-21T09:14:08Z</time>
      </trkpt>
      <trkpt lat="43.69332" lon="3.08245">
        <ele>677.87</ele>
        <time>2019-02-21T09:14:09Z</time>
      </trkpt>
      <trkpt lat="43.69331" lon="3.08246">
        <ele>677.87</ele>
        <time>2019-02-21T09:14:10Z</time>
      </trkpt>
      <trkpt lat="43.6933" lon="3.08248">
        <ele>677.87</ele>
        <time>2019-02-21T09:14:12Z</time>
      </trkpt>
      <trkpt lat="43.69329" lon="3.0825">
        <ele>677.87</ele>
        <time>2019-02-21T09:14:13Z</time>
      </trkpt>
      <trkpt lat="43.69328" lon="3.08251">
        <ele>678.35</ele>
        <time>2019-02-21T09:14:14Z</time>
      </trkpt>
      <trkpt lat="43.69324" lon="3.08256">
        <ele>678.83</ele>
        <time>2019-02-21T09:14:21Z</time>
      </trkpt>
      <trkpt lat="43.69323" lon="3.08258">
        <ele>678.83</ele>
        <time>2019-02-21T09:14:22Z</time>
      </trkpt>
      <trkpt lat="43.69319" lon="3.08266">
        <ele>679.31</ele>
        <time>2019-02-21T09:14:29Z</time>
      </trkpt>
      <trkpt lat="43.69318" lon="3.08267">
        <ele>679.79</ele>
        <time>2019-02-21T09:14:30Z</time>
      </trkpt>
      <trkpt lat="43.69317" lon="3.08271">
        <ele>679.79</ele>
        <time>2019-02-21T09:14:33Z</time>
      </trkpt>
      <trkpt lat="43.69316" lon="3.08273">
        <ele>679.79</ele>
        <time>2019-02-21T09:14:34Z</time>
      </trkpt>
      <trkpt lat="43.69312" lon="3.08282">
        <ele>680.75</ele>
        <time>2019-02-21T09:14:42Z</time>
      </trkpt>
      <trkpt lat="43.69311" lon="3.08288">
        <ele>680.75</ele>
        <time>2019-02-21T09:14:46Z</time>
      </trkpt>
      <trkpt lat="43.69308" lon="3.08296">
        <ele>681.23</ele>
        <time>2019-02-21T09:14:53Z</time>
      </trkpt>
      <trkpt lat="43.69308" lon="3.08298">
        <ele>681.23</ele>
        <time>2019-02-21T09:14:54Z</time>
      </trkpt>
      <trkpt lat="43.69306" lon="3.08309">
        <ele>681.71</ele>
        <time>2019-02-21T09:15:03Z</time>
      </trkpt>
      <trkpt lat="43.69313" lon="3.08317">
        <ele>682.67</ele>
        <time>2019-02-21T09:15:16Z</time>
      </trkpt>
      <trkpt lat="43.69315" lon="3.0832">
        <ele>685.08</ele>
        <time>2019-02-21T09:15:27Z</time>
      </trkpt>
      <trkpt lat="43.69315" lon="3.08323">
        <ele>687</ele>
        <time>2019-02-21T09:15:38Z</time>
      </trkpt>
      <trkpt lat="43.69316" lon="3.08327">
        <ele>688.44</ele>
        <time>2019-02-21T09:15:50Z</time>
      </trkpt>
      <trkpt lat="43.69315" lon="3.08332">
        <ele>689.4</ele>
        <time>2019-02-21T09:16:03Z</time>
      </trkpt>
      <trkpt lat="43.69314" lon="3.08339">
        <ele>690.84</ele>
        <time>2019-02-21T09:16:17Z</time>
      </trkpt>
      <trkpt lat="43.69316" lon="3.08342">
        <ele>690.84</ele>
        <time>2019-02-21T09:16:30Z</time>
      </trkpt>
      <trkpt lat="43.69318" lon="3.08343">
        <ele>690.84</ele>
        <time>2019-02-21T09:16:57Z</time>
      </trkpt>
      <trkpt lat="43.69318" lon="3.08343">
        <ele>690.84</ele>
        <time>2019-02-21T09:17:05Z</time>
      </trkpt>
      <trkpt lat="43.69316" lon="3.08344">
        <ele>690.84</ele>
        <time>2019-02-21T09:17:07Z</time>
      </trkpt>
      <trkpt lat="43.69315" lon="3.08345">
        <ele>691.33</ele>
        <time>2019-02-21T09:17:26Z</time>
      </trkpt>
      <trkpt lat="43.69316" lon="3.08353">
        <ele>691.81</ele>
        <time>2019-02-21T09:17:47Z</time>
      </trkpt>
      <trkpt lat="43.69318" lon="3.08353">
        <ele>691.81</ele>
        <time>2019-02-21T09:17:49Z</time>
      </trkpt>
      <trkpt lat="43.6932" lon="3.08353">
        <ele>691.81</ele>
        <time>2019-02-21T09:17:51Z</time>
      </trkpt>
      <trkpt lat="43.69321" lon="3.08353">
        <ele>691.81</ele>
        <time>2019-02-21T09:17:52Z</time>
      </trkpt>
      <trkpt lat="43.69322" lon="3.08352">
        <ele>691.81</ele>
        <time>2019-02-21T09:17:53Z</time>
      </trkpt>
      <trkpt lat="43.69323" lon="3.08351">
        <ele>691.81</ele>
        <time>2019-02-21T09:17:55Z</time>
      </trkpt>
      <trkpt lat="43.69325" lon="3.08349">
        <ele>691.81</ele>
        <time>2019-02-21T09:17:56Z</time>
      </trkpt>
      <trkpt lat="43.6933" lon="3.08348">
        <ele>693.25</ele>
        <time>2019-02-21T09:18:02Z</time>
      </trkpt>
      <trkpt lat="43.69331" lon="3.08347">
        <ele>693.25</ele>
        <time>2019-02-21T09:18:03Z</time>
      </trkpt>
      <trkpt lat="43.69336" lon="3.08342">
        <ele>693.73</ele>
        <time>2019-02-21T09:18:10Z</time>
      </trkpt>
      <trkpt lat="43.69336" lon="3.08341">
        <ele>694.21</ele>
        <time>2019-02-21T09:18:12Z</time>
      </trkpt>
      <trkpt lat="43.69339" lon="3.08338">
        <ele>695.65</ele>
        <time>2019-02-21T09:18:17Z</time>
      </trkpt>
      <trkpt lat="43.69342" lon="3.08331">
        <ele>695.65</ele>
        <time>2019-02-21T09:18:25Z</time>
      </trkpt>
      <trkpt lat="43.69342" lon="3.08328">
        <ele>695.65</ele>
        <time>2019-02-21T09:18:53Z</time>
      </trkpt>
      <trkpt lat="43.69343" lon="3.08325">
        <ele>695.65</ele>
        <time>2019-02-21T09:18:56Z</time>
      </trkpt>
      <trkpt lat="43.69344" lon="3.08323">
        <ele>695.65</ele>
        <time>2019-02-21T09:18:57Z</time>
      </trkpt>
      <trkpt lat="43.69348" lon="3.08316">
        <ele>695.17</ele>
        <time>2019-02-21T09:19:02Z</time>
      </trkpt>
      <trkpt lat="43.69348" lon="3.08314">
        <ele>695.17</ele>
        <time>2019-02-21T09:19:03Z</time>
      </trkpt>
      <trkpt lat="43.69349" lon="3.08312">
        <ele>695.17</ele>
        <time>2019-02-21T09:19:04Z</time>
      </trkpt>
      <trkpt lat="43.69351" lon="3.0831">
        <ele>695.17</ele>
        <time>2019-02-21T09:19:05Z</time>
      </trkpt>
      <trkpt lat="43.69352" lon="3.08309">
        <ele>695.17</ele>
        <time>2019-02-21T09:19:06Z</time>
      </trkpt>
      <trkpt lat="43.69354" lon="3.08307">
        <ele>695.17</ele>
        <time>2019-02-21T09:19:09Z</time>
      </trkpt>
      <trkpt lat="43.6936" lon="3.08303">
        <ele>696.61</ele>
        <time>2019-02-21T09:19:17Z</time>
      </trkpt>
      <trkpt lat="43.69364" lon="3.083">
        <ele>697.57</ele>
        <time>2019-02-21T09:19:22Z</time>
      </trkpt>
      <trkpt lat="43.69367" lon="3.08297">
        <ele>699.02</ele>
        <time>2019-02-21T09:19:28Z</time>
      </trkpt>
      <trkpt lat="43.69369" lon="3.08296">
        <ele>699.5</ele>
        <time>2019-02-21T09:19:31Z</time>
      </trkpt>
      <trkpt lat="43.69372" lon="3.08295">
        <ele>701.9</ele>
        <time>2019-02-21T09:19:40Z</time>
      </trkpt>
      <trkpt lat="43.69373" lon="3.08296">
        <ele>704.3</ele>
        <time>2019-02-21T09:19:50Z</time>
      </trkpt>
      <trkpt lat="43.69377" lon="3.08297">
        <ele>705.75</ele>
        <time>2019-02-21T09:20:00Z</time>
      </trkpt>
      <trkpt lat="43.6938" lon="3.08297">
        <ele>707.67</ele>
        <time>2019-02-21T09:20:07Z</time>
      </trkpt>
      <trkpt lat="43.69384" lon="3.08296">
        <ele>708.63</ele>
        <time>2019-02-21T09:20:17Z</time>
      </trkpt>
      <trkpt lat="43.69385" lon="3.08296">
        <ele>708.63</ele>
        <time>2019-02-21T09:20:18Z</time>
      </trkpt>
      <trkpt lat="43.69388" lon="3.08296">
        <ele>710.55</ele>
        <time>2019-02-21T09:20:25Z</time>
      </trkpt>
      <trkpt lat="43.69391" lon="3.08298">
        <ele>712.47</ele>
        <time>2019-02-21T09:20:33Z</time>
      </trkpt>
      <trkpt lat="43.69394" lon="3.08296">
        <ele>712.95</ele>
        <time>2019-02-21T09:20:42Z</time>
      </trkpt>
      <trkpt lat="43.69396" lon="3.08288">
        <ele>712.95</ele>
        <time>2019-02-21T09:20:55Z</time>
      </trkpt>
      <trkpt lat="43.69398" lon="3.08292">
        <ele>713.92</ele>
        <time>2019-02-21T09:21:18Z</time>
      </trkpt>
      <trkpt lat="43.69398" lon="3.08293">
        <ele>714.4</ele>
        <time>2019-02-21T09:21:19Z</time>
      </trkpt>
      <trkpt lat="43.694" lon="3.08297">
        <ele>715.84</ele>
        <time>2019-02-21T09:21:26Z</time>
      </trkpt>
      <trkpt lat="43.69403" lon="3.083">
        <ele>717.76</ele>
        <time>2019-02-21T09:21:31Z</time>
      </trkpt>
      <trkpt lat="43.69403" lon="3.08302">
        <ele>717.76</ele>
        <time>2019-02-21T09:21:33Z</time>
      </trkpt>
      <trkpt lat="43.69406" lon="3.08303">
        <ele>718.24</ele>
        <time>2019-02-21T09:21:38Z</time>
      </trkpt>
      <trkpt lat="43.69411" lon="3.08301">
        <ele>718.72</ele>
        <time>2019-02-21T09:21:46Z</time>
      </trkpt>
      <trkpt lat="43.69418" lon="3.083">
        <ele>720.16</ele>
        <time>2019-02-21T09:21:54Z</time>
      </trkpt>
      <trkpt lat="43.69421" lon="3.08297">
        <ele>721.61</ele>
        <time>2019-02-21T09:22:01Z</time>
      </trkpt>
      <trkpt lat="43.69422" lon="3.08297">
        <ele>722.09</ele>
        <time>2019-02-21T09:22:03Z</time>
      </trkpt>
      <trkpt lat="43.69423" lon="3.08294">
        <ele>724.01</ele>
        <time>2019-02-21T09:22:12Z</time>
      </trkpt>
      <trkpt lat="43.69423" lon="3.0829">
        <ele>725.45</ele>
        <time>2019-02-21T09:22:23Z</time>
      </trkpt>
      <trkpt lat="43.69423" lon="3.08288">
        <ele>725.93</ele>
        <time>2019-02-21T09:22:43Z</time>
      </trkpt>
      <trkpt lat="43.69425" lon="3.08284">
        <ele>726.41</ele>
        <time>2019-02-21T09:22:55Z</time>
      </trkpt>
      <trkpt lat="43.69426" lon="3.08283">
        <ele>726.41</ele>
        <time>2019-02-21T09:22:57Z</time>
      </trkpt>
      <trkpt lat="43.69427" lon="3.08283">
        <ele>726.41</ele>
        <time>2019-02-21T09:22:58Z</time>
      </trkpt>
      <trkpt lat="43.69429" lon="3.08283">
        <ele>726.41</ele>
        <time>2019-02-21T09:23:00Z</time>
      </trkpt>
      <trkpt lat="43.69431" lon="3.08284">
        <ele>727.37</ele>
        <time>2019-02-21T09:23:03Z</time>
      </trkpt>
      <trkpt lat="43.69435" lon="3.08282">
        <ele>727.86</ele>
        <time>2019-02-21T09:23:11Z</time>
      </trkpt>
      <trkpt lat="43.69436" lon="3.08282">
        <ele>728.34</ele>
        <time>2019-02-21T09:23:12Z</time>
      </trkpt>
      <trkpt lat="43.69441" lon="3.0828">
        <ele>729.3</ele>
        <time>2019-02-21T09:23:20Z</time>
      </trkpt>
      <trkpt lat="43.69447" lon="3.08277">
        <ele>731.22</ele>
        <time>2019-02-21T09:23:29Z</time>
      </trkpt>
      <trkpt lat="43.69449" lon="3.08275">
        <ele>732.18</ele>
        <time>2019-02-21T09:23:32Z</time>
      </trkpt>
      <trkpt lat="43.69456" lon="3.08269">
        <ele>732.18</ele>
        <time>2019-02-21T09:23:39Z</time>
      </trkpt>
      <trkpt lat="43.69457" lon="3.08269">
        <ele>732.66</ele>
        <time>2019-02-21T09:23:41Z</time>
      </trkpt>
      <trkpt lat="43.69462" lon="3.08268">
        <ele>734.58</ele>
        <time>2019-02-21T09:23:50Z</time>
      </trkpt>
      <trkpt lat="43.69463" lon="3.08268">
        <ele>734.58</ele>
        <time>2019-02-21T09:23:52Z</time>
      </trkpt>
      <trkpt lat="43.69468" lon="3.08267">
        <ele>736.03</ele>
        <time>2019-02-21T09:24:00Z</time>
      </trkpt>
      <trkpt lat="43.69469" lon="3.08266">
        <ele>736.03</ele>
        <time>2019-02-21T09:24:02Z</time>
      </trkpt>
      <trkpt lat="43.69473" lon="3.08263">
        <ele>737.47</ele>
        <time>2019-02-21T09:24:09Z</time>
      </trkpt>
      <trkpt lat="43.69476" lon="3.08258">
        <ele>738.43</ele>
        <time>2019-02-21T09:24:16Z</time>
      </trkpt>
      <trkpt lat="43.69478" lon="3.08255">
        <ele>738.91</ele>
        <time>2019-02-21T09:24:19Z</time>
      </trkpt>
      <trkpt lat="43.6948" lon="3.08251">
        <ele>739.39</ele>
        <time>2019-02-21T09:24:24Z</time>
      </trkpt>
      <trkpt lat="43.69483" lon="3.08246">
        <ele>739.87</ele>
        <time>2019-02-21T09:24:31Z</time>
      </trkpt>
      <trkpt lat="43.69484" lon="3.08246">
        <ele>740.35</ele>
        <time>2019-02-21T09:24:35Z</time>
      </trkpt>
      <trkpt lat="43.69486" lon="3.08246">
        <ele>741.79</ele>
        <time>2019-02-21T09:24:40Z</time>
      </trkpt>
      <trkpt lat="43.69489" lon="3.08245">
        <ele>742.76</ele>
        <time>2019-02-21T09:24:47Z</time>
      </trkpt>
      <trkpt lat="43.69493" lon="3.08239">
        <ele>743.72</ele>
        <time>2019-02-21T09:24:57Z</time>
      </trkpt>
      <trkpt lat="43.69495" lon="3.08238">
        <ele>745.16</ele>
        <time>2019-02-21T09:25:00Z</time>
      </trkpt>
      <trkpt lat="43.69498" lon="3.08238">
        <ele>745.64</ele>
        <time>2019-02-21T09:25:06Z</time>
      </trkpt>
      <trkpt lat="43.69501" lon="3.08237">
        <ele>746.6</ele>
        <time>2019-02-21T09:25:11Z</time>
      </trkpt>
      <trkpt lat="43.69503" lon="3.08236">
        <ele>746.6</ele>
        <time>2019-02-21T09:25:13Z</time>
      </trkpt>
      <trkpt lat="43.69507" lon="3.08233">
        <ele>747.08</ele>
        <time>2019-02-21T09:25:21Z</time>
      </trkpt>
      <trkpt lat="43.69508" lon="3.08233">
        <ele>747.08</ele>
        <time>2019-02-21T09:25:33Z</time>
      </trkpt>
      <trkpt lat="43.6951" lon="3.0823">
        <ele>747.56</ele>
        <time>2019-02-21T09:25:36Z</time>
      </trkpt>
      <trkpt lat="43.69514" lon="3.08227">
        <ele>747.56</ele>
        <time>2019-02-21T09:25:42Z</time>
      </trkpt>
      <trkpt lat="43.69515" lon="3.08224">
        <ele>747.56</ele>
        <time>2019-02-21T09:25:44Z</time>
      </trkpt>
      <trkpt lat="43.69516" lon="3.08221">
        <ele>746.6</ele>
        <time>2019-02-21T09:25:47Z</time>
      </trkpt>
      <trkpt lat="43.69517" lon="3.0822">
        <ele>746.6</ele>
        <time>2019-02-21T09:25:48Z</time>
      </trkpt>
      <trkpt lat="43.69519" lon="3.08218">
        <ele>746.6</ele>
        <time>2019-02-21T09:25:51Z</time>
      </trkpt>
      <trkpt lat="43.69521" lon="3.08216">
        <ele>746.6</ele>
        <time>2019-02-21T09:25:54Z</time>
      </trkpt>
      <trkpt lat="43.69523" lon="3.08214">
        <ele>747.56</ele>
        <time>2019-02-21T09:25:57Z</time>
      </trkpt>
      <trkpt lat="43.69527" lon="3.08209">
        <ele>748.52</ele>
        <time>2019-02-21T09:26:04Z</time>
      </trkpt>
      <trkpt lat="43.69528" lon="3.08208">
        <ele>748.52</ele>
        <time>2019-02-21T09:26:06Z</time>
      </trkpt>
      <trkpt lat="43.69529" lon="3.08207">
        <ele>749</ele>
        <time>2019-02-21T09:26:07Z</time>
      </trkpt>
      <trkpt lat="43.69531" lon="3.08206">
        <ele>749</ele>
        <time>2019-02-21T09:26:10Z</time>
      </trkpt>
      <trkpt lat="43.69534" lon="3.08204">
        <ele>749.49</ele>
        <time>2019-02-21T09:26:13Z</time>
      </trkpt>
      <trkpt lat="43.69536" lon="3.08203">
        <ele>749.49</ele>
        <time>2019-02-21T09:26:16Z</time>
      </trkpt>
      <trkpt lat="43.69538" lon="3.08201">
        <ele>749.97</ele>
        <time>2019-02-21T09:26:19Z</time>
      </trkpt>
      <trkpt lat="43.6954" lon="3.08199">
        <ele>749.97</ele>
        <time>2019-02-21T09:26:22Z</time>
      </trkpt>
      <trkpt lat="43.69548" lon="3.08193">
        <ele>750.45</ele>
        <time>2019-02-21T09:26:31Z</time>
      </trkpt>
      <trkpt lat="43.69553" lon="3.0819">
        <ele>751.41</ele>
        <time>2019-02-21T09:26:37Z</time>
      </trkpt>
      <trkpt lat="43.69558" lon="3.08186">
        <ele>752.85</ele>
        <time>2019-02-21T09:26:43Z</time>
      </trkpt>
      <trkpt lat="43.6956" lon="3.08184">
        <ele>752.85</ele>
        <time>2019-02-21T09:26:46Z</time>
      </trkpt>
      <trkpt lat="43.69563" lon="3.0818">
        <ele>753.33</ele>
        <time>2019-02-21T09:26:50Z</time>
      </trkpt>
      <trkpt lat="43.69565" lon="3.08177">
        <ele>753.81</ele>
        <time>2019-02-21T09:26:55Z</time>
      </trkpt>
      <trkpt lat="43.69567" lon="3.08171">
        <ele>755.25</ele>
        <time>2019-02-21T09:27:04Z</time>
      </trkpt>
      <trkpt lat="43.69569" lon="3.08166">
        <ele>757.18</ele>
        <time>2019-02-21T09:27:13Z</time>
      </trkpt>
      <trkpt lat="43.6957" lon="3.08166">
        <ele>757.66</ele>
        <time>2019-02-21T09:27:17Z</time>
      </trkpt>
      <trkpt lat="43.69571" lon="3.08167">
        <ele>758.62</ele>
        <time>2019-02-21T09:27:22Z</time>
      </trkpt>
      <trkpt lat="43.69576" lon="3.08164">
        <ele>759.58</ele>
        <time>2019-02-21T09:27:31Z</time>
      </trkpt>
      <trkpt lat="43.69579" lon="3.0816">
        <ele>760.54</ele>
        <time>2019-02-21T09:27:37Z</time>
      </trkpt>
      <trkpt lat="43.6958" lon="3.08158">
        <ele>760.54</ele>
        <time>2019-02-21T09:27:46Z</time>
      </trkpt>
      <trkpt lat="43.69581" lon="3.08159">
        <ele>760.54</ele>
        <time>2019-02-21T09:28:06Z</time>
      </trkpt>
      <trkpt lat="43.69582" lon="3.08158">
        <ele>762.46</ele>
        <time>2019-02-21T09:28:15Z</time>
      </trkpt>
      <trkpt lat="43.69582" lon="3.08157">
        <ele>761.02</ele>
        <time>2019-02-21T09:28:19Z</time>
      </trkpt>
      <trkpt lat="43.6958" lon="3.08156">
        <ele>761.02</ele>
        <time>2019-02-21T09:28:41Z</time>
      </trkpt>
      <trkpt lat="43.69582" lon="3.08155">
        <ele>761.02</ele>
        <time>2019-02-21T09:29:01Z</time>
      </trkpt>
      <trkpt lat="43.69581" lon="3.08155">
        <ele>761.98</ele>
        <time>2019-02-21T09:29:15Z</time>
      </trkpt>
      <trkpt lat="43.69582" lon="3.08156">
        <ele>761.98</ele>
        <time>2019-02-21T09:29:40Z</time>
      </trkpt>
      <trkpt lat="43.69582" lon="3.08155">
        <ele>761.98</ele>
        <time>2019-02-21T09:30:06Z</time>
      </trkpt>
      <trkpt lat="43.69582" lon="3.08155">
        <ele>760.54</ele>
        <time>2019-02-21T09:30:08Z</time>
      </trkpt>
      <trkpt lat="43.69583" lon="3.08158">
        <ele>759.58</ele>
        <time>2019-02-21T09:30:32Z</time>
      </trkpt>
      <trkpt lat="43.69583" lon="3.08158">
        <ele>759.58</ele>
        <time>2019-02-21T09:31:10Z</time>
      </trkpt>
      <trkpt lat="43.69583" lon="3.08159">
        <ele>761.5</ele>
        <time>2019-02-21T09:31:47Z</time>
      </trkpt>
      <trkpt lat="43.69584" lon="3.08157">
        <ele>761.5</ele>
        <time>2019-02-21T09:31:52Z</time>
      </trkpt>
      <trkpt lat="43.69585" lon="3.08156">
        <ele>761.5</ele>
        <time>2019-02-21T09:31:53Z</time>
      </trkpt>
      <trkpt lat="43.69588" lon="3.08153">
        <ele>761.5</ele>
        <time>2019-02-21T09:31:58Z</time>
      </trkpt>
      <trkpt lat="43.69588" lon="3.08151">
        <ele>761.98</ele>
        <time>2019-02-21T09:32:10Z</time>
      </trkpt>
      <trkpt lat="43.69589" lon="3.08151">
        <ele>761.98</ele>
        <time>2019-02-21T09:32:12Z</time>
      </trkpt>
      <trkpt lat="43.69591" lon="3.08149">
        <ele>761.98</ele>
        <time>2019-02-21T09:32:15Z</time>
      </trkpt>
      <trkpt lat="43.69592" lon="3.08147">
        <ele>761.98</ele>
        <time>2019-02-21T09:32:16Z</time>
      </trkpt>
      <trkpt lat="43.69593" lon="3.08146">
        <ele>761.98</ele>
        <time>2019-02-21T09:32:18Z</time>
      </trkpt>
      <trkpt lat="43.69595" lon="3.08144">
        <ele>761.98</ele>
        <time>2019-02-21T09:32:19Z</time>
      </trkpt>
      <trkpt lat="43.69596" lon="3.08143">
        <ele>761.98</ele>
        <time>2019-02-21T09:32:21Z</time>
      </trkpt>
      <trkpt lat="43.69596" lon="3.08141">
        <ele>761.98</ele>
        <time>2019-02-21T09:32:22Z</time>
      </trkpt>
      <trkpt lat="43.69597" lon="3.0814">
        <ele>761.98</ele>
        <time>2019-02-21T09:32:23Z</time>
      </trkpt>
      <trkpt lat="43.69598" lon="3.08139">
        <ele>761.98</ele>
        <time>2019-02-21T09:32:25Z</time>
      </trkpt>
      <trkpt lat="43.69598" lon="3.08137">
        <ele>761.98</ele>
        <time>2019-02-21T09:32:26Z</time>
      </trkpt>
      <trkpt lat="43.69599" lon="3.08135">
        <ele>761.98</ele>
        <time>2019-02-21T09:32:27Z</time>
      </trkpt>
      <trkpt lat="43.69603" lon="3.0813">
        <ele>762.94</ele>
        <time>2019-02-21T09:32:36Z</time>
      </trkpt>
      <trkpt lat="43.69608" lon="3.08124">
        <ele>764.39</ele>
        <time>2019-02-21T09:32:47Z</time>
      </trkpt>
      <trkpt lat="43.69611" lon="3.08123">
        <ele>765.83</ele>
        <time>2019-02-21T09:32:58Z</time>
      </trkpt>
      <trkpt lat="43.69617" lon="3.08119">
        <ele>767.27</ele>
        <time>2019-02-21T09:33:07Z</time>
      </trkpt>
      <trkpt lat="43.69619" lon="3.08116">
        <ele>768.71</ele>
        <time>2019-02-21T09:33:15Z</time>
      </trkpt>
      <trkpt lat="43.69623" lon="3.08107">
        <ele>771.11</ele>
        <time>2019-02-21T09:33:26Z</time>
      </trkpt>
      <trkpt lat="43.69622" lon="3.081">
        <ele>772.56</ele>
        <time>2019-02-21T09:33:36Z</time>
      </trkpt>
      <trkpt lat="43.69622" lon="3.08091">
        <ele>774.48</ele>
        <time>2019-02-21T09:33:47Z</time>
      </trkpt>
      <trkpt lat="43.69623" lon="3.08081">
        <ele>776.4</ele>
        <time>2019-02-21T09:33:57Z</time>
      </trkpt>
      <trkpt lat="43.69622" lon="3.08072">
        <ele>778.32</ele>
        <time>2019-02-21T09:34:07Z</time>
      </trkpt>
      <trkpt lat="43.69623" lon="3.08066">
        <ele>780.73</ele>
        <time>2019-02-21T09:34:18Z</time>
      </trkpt>
      <trkpt lat="43.69622" lon="3.08059">
        <ele>782.65</ele>
        <time>2019-02-21T09:34:27Z</time>
      </trkpt>
      <trkpt lat="43.69622" lon="3.08053">
        <ele>783.61</ele>
        <time>2019-02-21T09:34:38Z</time>
      </trkpt>
      <trkpt lat="43.69621" lon="3.08042">
        <ele>784.57</ele>
        <time>2019-02-21T09:35:01Z</time>
      </trkpt>
      <trkpt lat="43.69622" lon="3.0804">
        <ele>784.57</ele>
        <time>2019-02-21T09:35:03Z</time>
      </trkpt>
      <trkpt lat="43.69622" lon="3.08039">
        <ele>785.53</ele>
        <time>2019-02-21T09:35:05Z</time>
      </trkpt>
      <trkpt lat="43.69623" lon="3.08037">
        <ele>786.98</ele>
        <time>2019-02-21T09:35:13Z</time>
      </trkpt>
      <trkpt lat="43.69623" lon="3.08035">
        <ele>787.46</ele>
        <time>2019-02-21T09:35:16Z</time>
      </trkpt>
      <trkpt lat="43.69625" lon="3.08032">
        <ele>789.38</ele>
        <time>2019-02-21T09:35:23Z</time>
      </trkpt>
      <trkpt lat="43.69627" lon="3.08028">
        <ele>791.3</ele>
        <time>2019-02-21T09:35:32Z</time>
      </trkpt>
      <trkpt lat="43.69627" lon="3.08024">
        <ele>791.78</ele>
        <time>2019-02-21T09:35:38Z</time>
      </trkpt>
      <trkpt lat="43.69629" lon="3.08022">
        <ele>792.26</ele>
        <time>2019-02-21T09:35:41Z</time>
      </trkpt>
      <trkpt lat="43.69631" lon="3.08019">
        <ele>793.22</ele>
        <time>2019-02-21T09:35:49Z</time>
      </trkpt>
      <trkpt lat="43.69635" lon="3.08012">
        <ele>795.15</ele>
        <time>2019-02-21T09:35:59Z</time>
      </trkpt>
      <trkpt lat="43.69638" lon="3.0801">
        <ele>797.55</ele>
        <time>2019-02-21T09:36:06Z</time>
      </trkpt>
      <trkpt lat="43.69643" lon="3.08007">
        <ele>798.03</ele>
        <time>2019-02-21T09:36:18Z</time>
      </trkpt>
      <trkpt lat="43.69646" lon="3.08003">
        <ele>799.47</ele>
        <time>2019-02-21T09:36:24Z</time>
      </trkpt>
      <trkpt lat="43.69652" lon="3.08">
        <ele>800.92</ele>
        <time>2019-02-21T09:36:35Z</time>
      </trkpt>
      <trkpt lat="43.69656" lon="3.07996">
        <ele>803.32</ele>
        <time>2019-02-21T09:36:44Z</time>
      </trkpt>
      <trkpt lat="43.69661" lon="3.07986">
        <ele>804.28</ele>
        <time>2019-02-21T09:36:53Z</time>
      </trkpt>
      <trkpt lat="43.69662" lon="3.07978">
        <ele>805.72</ele>
        <time>2019-02-21T09:37:02Z</time>
      </trkpt>
      <trkpt lat="43.69666" lon="3.07973">
        <ele>806.2</ele>
        <time>2019-02-21T09:37:11Z</time>
      </trkpt>
      <trkpt lat="43.69669" lon="3.07969">
        <ele>808.61</ele>
        <time>2019-02-21T09:37:22Z</time>
      </trkpt>
      <trkpt lat="43.69672" lon="3.07969">
        <ele>810.05</ele>
        <time>2019-02-21T09:37:33Z</time>
      </trkpt>
      <trkpt lat="43.69675" lon="3.07968">
        <ele>811.49</ele>
        <time>2019-02-21T09:37:42Z</time>
      </trkpt>
      <trkpt lat="43.69681" lon="3.07967">
        <ele>813.89</ele>
        <time>2019-02-21T09:37:53Z</time>
      </trkpt>
      <trkpt lat="43.69687" lon="3.07965">
        <ele>814.37</ele>
        <time>2019-02-21T09:38:02Z</time>
      </trkpt>
      <trkpt lat="43.69694" lon="3.07965">
        <ele>815.82</ele>
        <time>2019-02-21T09:38:11Z</time>
      </trkpt>
      <trkpt lat="43.697" lon="3.07962">
        <ele>816.78</ele>
        <time>2019-02-21T09:38:24Z</time>
      </trkpt>
      <trkpt lat="43.69706" lon="3.07963">
        <ele>818.7</ele>
        <time>2019-02-21T09:38:35Z</time>
      </trkpt>
      <trkpt lat="43.69713" lon="3.07963">
        <ele>820.14</ele>
        <time>2019-02-21T09:38:45Z</time>
      </trkpt>
      <trkpt lat="43.69723" lon="3.07966">
        <ele>822.06</ele>
        <time>2019-02-21T09:38:57Z</time>
      </trkpt>
      <trkpt lat="43.69728" lon="3.0796">
        <ele>823.51</ele>
        <time>2019-02-21T09:39:07Z</time>
      </trkpt>
      <trkpt lat="43.69733" lon="3.07952">
        <ele>823.99</ele>
        <time>2019-02-21T09:39:16Z</time>
      </trkpt>
      <trkpt lat="43.69734" lon="3.07945">
        <ele>823.99</ele>
        <time>2019-02-21T09:39:26Z</time>
      </trkpt>
      <trkpt lat="43.69736" lon="3.07935">
        <ele>824.47</ele>
        <time>2019-02-21T09:39:44Z</time>
      </trkpt>
      <trkpt lat="43.69746" lon="3.07922">
        <ele>823.51</ele>
        <time>2019-02-21T09:40:00Z</time>
      </trkpt>
      <trkpt lat="43.69755" lon="3.0791">
        <ele>822.55</ele>
        <time>2019-02-21T09:40:16Z</time>
      </trkpt>
      <trkpt lat="43.69758" lon="3.07907">
        <ele>822.06</ele>
        <time>2019-02-21T09:40:35Z</time>
      </trkpt>
      <trkpt lat="43.69771" lon="3.07896">
        <ele>820.62</ele>
        <time>2019-02-21T09:40:50Z</time>
      </trkpt>
      <trkpt lat="43.69785" lon="3.07885">
        <ele>819.66</ele>
        <time>2019-02-21T09:41:04Z</time>
      </trkpt>
      <trkpt lat="43.698" lon="3.07868">
        <ele>819.18</ele>
        <time>2019-02-21T09:41:19Z</time>
      </trkpt>
      <trkpt lat="43.69804" lon="3.07864">
        <ele>819.18</ele>
        <time>2019-02-21T09:41:22Z</time>
      </trkpt>
      <trkpt lat="43.69813" lon="3.07852">
        <ele>820.62</ele>
        <time>2019-02-21T09:41:32Z</time>
      </trkpt>
      <trkpt lat="43.69827" lon="3.0784">
        <ele>822.06</ele>
        <time>2019-02-21T09:41:46Z</time>
      </trkpt>
      <trkpt lat="43.69828" lon="3.07838">
        <ele>822.06</ele>
        <time>2019-02-21T09:41:48Z</time>
      </trkpt>
      <trkpt lat="43.69839" lon="3.07829">
        <ele>823.51</ele>
        <time>2019-02-21T09:42:01Z</time>
      </trkpt>
      <trkpt lat="43.69849" lon="3.07817">
        <ele>824.95</ele>
        <time>2019-02-21T09:42:15Z</time>
      </trkpt>
      <trkpt lat="43.69853" lon="3.07814">
        <ele>825.43</ele>
        <time>2019-02-21T09:42:20Z</time>
      </trkpt>
      <trkpt lat="43.69858" lon="3.0781">
        <ele>826.39</ele>
        <time>2019-02-21T09:42:27Z</time>
      </trkpt>
      <trkpt lat="43.6986" lon="3.07808">
        <ele>826.39</ele>
        <time>2019-02-21T09:42:30Z</time>
      </trkpt>
      <trkpt lat="43.69864" lon="3.07804">
        <ele>827.35</ele>
        <time>2019-02-21T09:42:35Z</time>
      </trkpt>
      <trkpt lat="43.69865" lon="3.07802">
        <ele>827.35</ele>
        <time>2019-02-21T09:42:38Z</time>
      </trkpt>
      <trkpt lat="43.6987" lon="3.07796">
        <ele>828.79</ele>
        <time>2019-02-21T09:42:47Z</time>
      </trkpt>
      <trkpt lat="43.6987" lon="3.07795">
        <ele>828.79</ele>
        <time>2019-02-21T09:42:48Z</time>
      </trkpt>
      <trkpt lat="43.69875" lon="3.0779">
        <ele>829.76</ele>
        <time>2019-02-21T09:42:58Z</time>
      </trkpt>
      <trkpt lat="43.69875" lon="3.0779">
        <ele>829.76</ele>
        <time>2019-02-21T09:42:59Z</time>
      </trkpt>
      <trkpt lat="43.69878" lon="3.07788">
        <ele>830.72</ele>
        <time>2019-02-21T09:43:02Z</time>
      </trkpt>
      <trkpt lat="43.69883" lon="3.07781">
        <ele>830.72</ele>
        <time>2019-02-21T09:43:09Z</time>
      </trkpt>
      <trkpt lat="43.69884" lon="3.07778">
        <ele>830.72</ele>
        <time>2019-02-21T09:43:12Z</time>
      </trkpt>
      <trkpt lat="43.69887" lon="3.07776">
        <ele>831.2</ele>
        <time>2019-02-21T09:43:15Z</time>
      </trkpt>
      <trkpt lat="43.69889" lon="3.07774">
        <ele>831.68</ele>
        <time>2019-02-21T09:43:18Z</time>
      </trkpt>
      <trkpt lat="43.69891" lon="3.07771">
        <ele>832.16</ele>
        <time>2019-02-21T09:43:22Z</time>
      </trkpt>
      <trkpt lat="43.69893" lon="3.07768">
        <ele>832.64</ele>
        <time>2019-02-21T09:43:25Z</time>
      </trkpt>
      <trkpt lat="43.69898" lon="3.07762">
        <ele>834.08</ele>
        <time>2019-02-21T09:43:34Z</time>
      </trkpt>
      <trkpt lat="43.69902" lon="3.07758">
        <ele>834.56</ele>
        <time>2019-02-21T09:43:40Z</time>
      </trkpt>
      <trkpt lat="43.69904" lon="3.07756">
        <ele>834.56</ele>
        <time>2019-02-21T09:43:43Z</time>
      </trkpt>
      <trkpt lat="43.6991" lon="3.0775">
        <ele>836</ele>
        <time>2019-02-21T09:43:52Z</time>
      </trkpt>
      <trkpt lat="43.69916" lon="3.07743">
        <ele>836.96</ele>
        <time>2019-02-21T09:44:02Z</time>
      </trkpt>
      <trkpt lat="43.69922" lon="3.07738">
        <ele>837.93</ele>
        <time>2019-02-21T09:44:10Z</time>
      </trkpt>
      <trkpt lat="43.69929" lon="3.07733">
        <ele>839.37</ele>
        <time>2019-02-21T09:44:20Z</time>
      </trkpt>
      <trkpt lat="43.69941" lon="3.07728">
        <ele>839.85</ele>
        <time>2019-02-21T09:44:30Z</time>
      </trkpt>
      <trkpt lat="43.69954" lon="3.07726">
        <ele>840.33</ele>
        <time>2019-02-21T09:44:43Z</time>
      </trkpt>
      <trkpt lat="43.69956" lon="3.07726">
        <ele>840.33</ele>
        <time>2019-02-21T09:44:45Z</time>
      </trkpt>
      <trkpt lat="43.6996" lon="3.07726">
        <ele>840.33</ele>
        <time>2019-02-21T09:44:49Z</time>
      </trkpt>
      <trkpt lat="43.69971" lon="3.07724">
        <ele>841.29</ele>
        <time>2019-02-21T09:44:59Z</time>
      </trkpt>
      <trkpt lat="43.69982" lon="3.07723">
        <ele>841.77</ele>
        <time>2019-02-21T09:45:09Z</time>
      </trkpt>
      <trkpt lat="43.69993" lon="3.07722">
        <ele>842.25</ele>
        <time>2019-02-21T09:45:20Z</time>
      </trkpt>
      <trkpt lat="43.7" lon="3.07721">
        <ele>842.73</ele>
        <time>2019-02-21T09:45:27Z</time>
      </trkpt>
      <trkpt lat="43.70005" lon="3.07722">
        <ele>843.21</ele>
        <time>2019-02-21T09:45:33Z</time>
      </trkpt>
      <trkpt lat="43.70009" lon="3.07722">
        <ele>843.69</ele>
        <time>2019-02-21T09:45:36Z</time>
      </trkpt>
      <trkpt lat="43.70012" lon="3.07722">
        <ele>844.66</ele>
        <time>2019-02-21T09:45:40Z</time>
      </trkpt>
      <trkpt lat="43.70015" lon="3.07722">
        <ele>845.14</ele>
        <time>2019-02-21T09:45:43Z</time>
      </trkpt>
      <trkpt lat="43.70019" lon="3.07721">
        <ele>845.62</ele>
        <time>2019-02-21T09:45:48Z</time>
      </trkpt>
      <trkpt lat="43.70023" lon="3.0772">
        <ele>846.58</ele>
        <time>2019-02-21T09:45:52Z</time>
      </trkpt>
      <trkpt lat="43.70026" lon="3.0772">
        <ele>846.58</ele>
        <time>2019-02-21T09:45:55Z</time>
      </trkpt>
      <trkpt lat="43.70029" lon="3.07719">
        <ele>847.54</ele>
        <time>2019-02-21T09:45:59Z</time>
      </trkpt>
      <trkpt lat="43.70031" lon="3.0772">
        <ele>847.54</ele>
        <time>2019-02-21T09:46:02Z</time>
      </trkpt>
      <trkpt lat="43.70034" lon="3.07719">
        <ele>848.02</ele>
        <time>2019-02-21T09:46:06Z</time>
      </trkpt>
      <trkpt lat="43.70037" lon="3.07718">
        <ele>848.02</ele>
        <time>2019-02-21T09:46:10Z</time>
      </trkpt>
      <trkpt lat="43.70048" lon="3.07716">
        <ele>848.98</ele>
        <time>2019-02-21T09:46:20Z</time>
      </trkpt>
      <trkpt lat="43.70049" lon="3.07716">
        <ele>848.98</ele>
        <time>2019-02-21T09:46:21Z</time>
      </trkpt>
      <trkpt lat="43.70055" lon="3.07713">
        <ele>849.94</ele>
        <time>2019-02-21T09:46:28Z</time>
      </trkpt>
      <trkpt lat="43.70058" lon="3.07713">
        <ele>849.94</ele>
        <time>2019-02-21T09:46:31Z</time>
      </trkpt>
      <trkpt lat="43.70071" lon="3.07711">
        <ele>852.83</ele>
        <time>2019-02-21T09:46:46Z</time>
      </trkpt>
      <trkpt lat="43.70085" lon="3.07707">
        <ele>854.75</ele>
        <time>2019-02-21T09:47:01Z</time>
      </trkpt>
      <trkpt lat="43.70099" lon="3.07705">
        <ele>856.67</ele>
        <time>2019-02-21T09:47:16Z</time>
      </trkpt>
      <trkpt lat="43.70113" lon="3.07702">
        <ele>858.59</ele>
        <time>2019-02-21T09:47:31Z</time>
      </trkpt>
      <trkpt lat="43.70124" lon="3.07701">
        <ele>859.08</ele>
        <time>2019-02-21T09:47:44Z</time>
      </trkpt>
      <trkpt lat="43.70133" lon="3.07697">
        <ele>860.52</ele>
        <time>2019-02-21T09:47:55Z</time>
      </trkpt>
      <trkpt lat="43.70133" lon="3.07697">
        <ele>860.52</ele>
        <time>2019-02-21T09:47:56Z</time>
      </trkpt>
      <trkpt lat="43.70142" lon="3.07696">
        <ele>861.96</ele>
        <time>2019-02-21T09:48:07Z</time>
      </trkpt>
      <trkpt lat="43.70147" lon="3.07694">
        <ele>862.92</ele>
        <time>2019-02-21T09:48:13Z</time>
      </trkpt>
      <trkpt lat="43.70151" lon="3.07691">
        <ele>862.92</ele>
        <time>2019-02-21T09:48:17Z</time>
      </trkpt>
      <trkpt lat="43.70155" lon="3.07688">
        <ele>862.92</ele>
        <time>2019-02-21T09:48:21Z</time>
      </trkpt>
      <trkpt lat="43.70158" lon="3.07685">
        <ele>863.4</ele>
        <time>2019-02-21T09:48:25Z</time>
      </trkpt>
      <trkpt lat="43.70159" lon="3.07683">
        <ele>863.4</ele>
        <time>2019-02-21T09:48:27Z</time>
      </trkpt>
      <trkpt lat="43.70163" lon="3.0768">
        <ele>863.88</ele>
        <time>2019-02-21T09:48:32Z</time>
      </trkpt>
      <trkpt lat="43.70173" lon="3.07673">
        <ele>864.84</ele>
        <time>2019-02-21T09:48:43Z</time>
      </trkpt>
      <trkpt lat="43.70183" lon="3.07663">
        <ele>865.32</ele>
        <time>2019-02-21T09:48:54Z</time>
      </trkpt>
      <trkpt lat="43.70189" lon="3.07659">
        <ele>865.8</ele>
        <time>2019-02-21T09:49:00Z</time>
      </trkpt>
      <trkpt lat="43.70197" lon="3.07648">
        <ele>866.29</ele>
        <time>2019-02-21T09:49:11Z</time>
      </trkpt>
      <trkpt lat="43.70198" lon="3.07648">
        <ele>866.29</ele>
        <time>2019-02-21T09:49:12Z</time>
      </trkpt>
      <trkpt lat="43.70201" lon="3.07644">
        <ele>866.77</ele>
        <time>2019-02-21T09:49:16Z</time>
      </trkpt>
      <trkpt lat="43.70202" lon="3.07642">
        <ele>866.77</ele>
        <time>2019-02-21T09:49:19Z</time>
      </trkpt>
      <trkpt lat="43.70208" lon="3.07636">
        <ele>867.73</ele>
        <time>2019-02-21T09:49:26Z</time>
      </trkpt>
      <trkpt lat="43.70216" lon="3.07627">
        <ele>868.69</ele>
        <time>2019-02-21T09:49:38Z</time>
      </trkpt>
      <trkpt lat="43.70216" lon="3.07626">
        <ele>868.69</ele>
        <time>2019-02-21T09:49:39Z</time>
      </trkpt>
      <trkpt lat="43.70221" lon="3.07621">
        <ele>870.13</ele>
        <time>2019-02-21T09:49:48Z</time>
      </trkpt>
      <trkpt lat="43.70228" lon="3.07614">
        <ele>871.57</ele>
        <time>2019-02-21T09:49:59Z</time>
      </trkpt>
      <trkpt lat="43.70231" lon="3.07611">
        <ele>872.05</ele>
        <time>2019-02-21T09:50:04Z</time>
      </trkpt>
      <trkpt lat="43.70237" lon="3.07606">
        <ele>873.01</ele>
        <time>2019-02-21T09:50:13Z</time>
      </trkpt>
      <trkpt lat="43.70239" lon="3.07605">
        <ele>873.01</ele>
        <time>2019-02-21T09:50:15Z</time>
      </trkpt>
      <trkpt lat="43.70245" lon="3.07597">
        <ele>874.94</ele>
        <time>2019-02-21T09:50:27Z</time>
      </trkpt>
      <trkpt lat="43.70246" lon="3.07596">
        <ele>874.94</ele>
        <time>2019-02-21T09:50:30Z</time>
      </trkpt>
      <trkpt lat="43.70253" lon="3.07592">
        <ele>875.9</ele>
        <time>2019-02-21T09:50:38Z</time>
      </trkpt>
      <trkpt lat="43.70255" lon="3.07591">
        <ele>875.9</ele>
        <time>2019-02-21T09:50:41Z</time>
      </trkpt>
      <trkpt lat="43.70263" lon="3.07584">
        <ele>876.86</ele>
        <time>2019-02-21T09:50:53Z</time>
      </trkpt>
      <trkpt lat="43.70267" lon="3.07583">
        <ele>876.86</ele>
        <time>2019-02-21T09:50:57Z</time>
      </trkpt>
      <trkpt lat="43.70276" lon="3.07578">
        <ele>877.82</ele>
        <time>2019-02-21T09:51:08Z</time>
      </trkpt>
      <trkpt lat="43.70285" lon="3.07571">
        <ele>878.78</ele>
        <time>2019-02-21T09:51:18Z</time>
      </trkpt>
      <trkpt lat="43.70293" lon="3.07567">
        <ele>879.26</ele>
        <time>2019-02-21T09:51:28Z</time>
      </trkpt>
      <trkpt lat="43.703" lon="3.07558">
        <ele>880.22</ele>
        <time>2019-02-21T09:51:39Z</time>
      </trkpt>
      <trkpt lat="43.70307" lon="3.07548">
        <ele>882.15</ele>
        <time>2019-02-21T09:51:51Z</time>
      </trkpt>
      <trkpt lat="43.70308" lon="3.07546">
        <ele>882.63</ele>
        <time>2019-02-21T09:51:53Z</time>
      </trkpt>
      <trkpt lat="43.70313" lon="3.07534">
        <ele>884.07</ele>
        <time>2019-02-21T09:52:06Z</time>
      </trkpt>
      <trkpt lat="43.70319" lon="3.07522">
        <ele>886.47</ele>
        <time>2019-02-21T09:52:21Z</time>
      </trkpt>
      <trkpt lat="43.70323" lon="3.0751">
        <ele>887.91</ele>
        <time>2019-02-21T09:52:32Z</time>
      </trkpt>
      <trkpt lat="43.70329" lon="3.07499">
        <ele>889.36</ele>
        <time>2019-02-21T09:52:44Z</time>
      </trkpt>
      <trkpt lat="43.70334" lon="3.07489">
        <ele>891.76</ele>
        <time>2019-02-21T09:52:56Z</time>
      </trkpt>
      <trkpt lat="43.70338" lon="3.07482">
        <ele>891.76</ele>
        <time>2019-02-21T09:53:03Z</time>
      </trkpt>
      <trkpt lat="43.70339" lon="3.0748">
        <ele>891.76</ele>
        <time>2019-02-21T09:53:05Z</time>
      </trkpt>
      <trkpt lat="43.70342" lon="3.07476">
        <ele>891.76</ele>
        <time>2019-02-21T09:53:09Z</time>
      </trkpt>
      <trkpt lat="43.70348" lon="3.07469">
        <ele>891.76</ele>
        <time>2019-02-21T09:53:17Z</time>
      </trkpt>
      <trkpt lat="43.70355" lon="3.07459">
        <ele>893.2</ele>
        <time>2019-02-21T09:53:28Z</time>
      </trkpt>
      <trkpt lat="43.7036" lon="3.07454">
        <ele>893.68</ele>
        <time>2019-02-21T09:53:35Z</time>
      </trkpt>
      <trkpt lat="43.70364" lon="3.0745">
        <ele>894.64</ele>
        <time>2019-02-21T09:53:40Z</time>
      </trkpt>
      <trkpt lat="43.70368" lon="3.07445">
        <ele>895.12</ele>
        <time>2019-02-21T09:53:47Z</time>
      </trkpt>
      <trkpt lat="43.70371" lon="3.07442">
        <ele>895.12</ele>
        <time>2019-02-21T09:53:51Z</time>
      </trkpt>
      <trkpt lat="43.70374" lon="3.07437">
        <ele>895.12</ele>
        <time>2019-02-21T09:53:56Z</time>
      </trkpt>
      <trkpt lat="43.70376" lon="3.07432">
        <ele>895.12</ele>
        <time>2019-02-21T09:54:00Z</time>
      </trkpt>
      <trkpt lat="43.7038" lon="3.07428">
        <ele>895.12</ele>
        <time>2019-02-21T09:54:05Z</time>
      </trkpt>
      <trkpt lat="43.70381" lon="3.07426">
        <ele>895.12</ele>
        <time>2019-02-21T09:54:06Z</time>
      </trkpt>
      <trkpt lat="43.70384" lon="3.07423">
        <ele>895.12</ele>
        <time>2019-02-21T09:54:10Z</time>
      </trkpt>
      <trkpt lat="43.70386" lon="3.07422">
        <ele>895.12</ele>
        <time>2019-02-21T09:54:13Z</time>
      </trkpt>
      <trkpt lat="43.70387" lon="3.07421">
        <ele>895.12</ele>
        <time>2019-02-21T09:54:14Z</time>
      </trkpt>
      <trkpt lat="43.70393" lon="3.07417">
        <ele>896.09</ele>
        <time>2019-02-21T09:54:22Z</time>
      </trkpt>
      <trkpt lat="43.70402" lon="3.07409">
        <ele>896.57</ele>
        <time>2019-02-21T09:54:31Z</time>
      </trkpt>
      <trkpt lat="43.70408" lon="3.07403">
        <ele>897.05</ele>
        <time>2019-02-21T09:54:38Z</time>
      </trkpt>
      <trkpt lat="43.70408" lon="3.07402">
        <ele>897.05</ele>
        <time>2019-02-21T09:54:39Z</time>
      </trkpt>
      <trkpt lat="43.7041" lon="3.074">
        <ele>897.05</ele>
        <time>2019-02-21T09:54:42Z</time>
      </trkpt>
      <trkpt lat="43.70411" lon="3.07397">
        <ele>897.05</ele>
        <time>2019-02-21T09:54:43Z</time>
      </trkpt>
      <trkpt lat="43.70414" lon="3.07393">
        <ele>897.05</ele>
        <time>2019-02-21T09:54:47Z</time>
      </trkpt>
      <trkpt lat="43.70419" lon="3.07387">
        <ele>898.49</ele>
        <time>2019-02-21T09:54:54Z</time>
      </trkpt>
      <trkpt lat="43.7042" lon="3.07385">
        <ele>898.49</ele>
        <time>2019-02-21T09:54:55Z</time>
      </trkpt>
      <trkpt lat="43.70421" lon="3.07384">
        <ele>898.49</ele>
        <time>2019-02-21T09:54:56Z</time>
      </trkpt>
      <trkpt lat="43.70426" lon="3.07377">
        <ele>898.49</ele>
        <time>2019-02-21T09:55:04Z</time>
      </trkpt>
      <trkpt lat="43.70427" lon="3.07375">
        <ele>898.49</ele>
        <time>2019-02-21T09:55:05Z</time>
      </trkpt>
      <trkpt lat="43.70434" lon="3.07365">
        <ele>897.05</ele>
        <time>2019-02-21T09:55:14Z</time>
      </trkpt>
      <trkpt lat="43.70441" lon="3.07354">
        <ele>896.57</ele>
        <time>2019-02-21T09:55:23Z</time>
      </trkpt>
      <trkpt lat="43.70446" lon="3.07347">
        <ele>896.57</ele>
        <time>2019-02-21T09:55:30Z</time>
      </trkpt>
      <trkpt lat="43.70447" lon="3.07346">
        <ele>896.57</ele>
        <time>2019-02-21T09:55:31Z</time>
      </trkpt>
      <trkpt lat="43.7045" lon="3.07345">
        <ele>898.01</ele>
        <time>2019-02-21T09:55:35Z</time>
      </trkpt>
      <trkpt lat="43.70454" lon="3.07341">
        <ele>899.45</ele>
        <time>2019-02-21T09:55:43Z</time>
      </trkpt>
      <trkpt lat="43.70457" lon="3.07338">
        <ele>900.41</ele>
        <time>2019-02-21T09:55:48Z</time>
      </trkpt>
      <trkpt lat="43.70457" lon="3.07336">
        <ele>900.41</ele>
        <time>2019-02-21T09:55:49Z</time>
      </trkpt>
      <trkpt lat="43.70459" lon="3.07333">
        <ele>900.41</ele>
        <time>2019-02-21T09:55:52Z</time>
      </trkpt>
      <trkpt lat="43.70459" lon="3.07331">
        <ele>900.41</ele>
        <time>2019-02-21T09:55:53Z</time>
      </trkpt>
      <trkpt lat="43.7046" lon="3.07329">
        <ele>900.41</ele>
        <time>2019-02-21T09:55:54Z</time>
      </trkpt>
      <trkpt lat="43.70465" lon="3.07321">
        <ele>900.41</ele>
        <time>2019-02-21T09:56:03Z</time>
      </trkpt>
      <trkpt lat="43.70471" lon="3.07313">
        <ele>901.37</ele>
        <time>2019-02-21T09:56:14Z</time>
      </trkpt>
      <trkpt lat="43.70479" lon="3.07307">
        <ele>902.82</ele>
        <time>2019-02-21T09:56:25Z</time>
      </trkpt>
      <trkpt lat="43.70482" lon="3.07297">
        <ele>903.3</ele>
        <time>2019-02-21T09:56:31Z</time>
      </trkpt>
      <trkpt lat="43.70483" lon="3.07296">
        <ele>903.3</ele>
        <time>2019-02-21T09:56:32Z</time>
      </trkpt>
      <trkpt lat="43.70489" lon="3.07287">
        <ele>903.78</ele>
        <time>2019-02-21T09:56:40Z</time>
      </trkpt>
      <trkpt lat="43.7049" lon="3.07285">
        <ele>903.78</ele>
        <time>2019-02-21T09:56:42Z</time>
      </trkpt>
      <trkpt lat="43.7049" lon="3.07283">
        <ele>903.78</ele>
        <time>2019-02-21T09:56:43Z</time>
      </trkpt>
      <trkpt lat="43.70497" lon="3.07276">
        <ele>906.18</ele>
        <time>2019-02-21T09:56:53Z</time>
      </trkpt>
      <trkpt lat="43.70507" lon="3.07265">
        <ele>905.7</ele>
        <time>2019-02-21T09:57:09Z</time>
      </trkpt>
      <trkpt lat="43.70507" lon="3.07264">
        <ele>909.06</ele>
        <time>2019-02-21T09:57:10Z</time>
      </trkpt>
      <trkpt lat="43.70508" lon="3.07263">
        <ele>907.62</ele>
        <time>2019-02-21T09:57:11Z</time>
      </trkpt>
      <trkpt lat="43.70521" lon="3.07247">
        <ele>908.1</ele>
        <time>2019-02-21T09:57:29Z</time>
      </trkpt>
      <trkpt lat="43.70522" lon="3.07246">
        <ele>908.1</ele>
        <time>2019-02-21T09:57:30Z</time>
      </trkpt>
      <trkpt lat="43.70525" lon="3.07245">
        <ele>908.1</ele>
        <time>2019-02-21T09:57:33Z</time>
      </trkpt>
      <trkpt lat="43.70528" lon="3.07242">
        <ele>908.1</ele>
        <time>2019-02-21T09:57:37Z</time>
      </trkpt>
      <trkpt lat="43.70537" lon="3.0723">
        <ele>907.62</ele>
        <time>2019-02-21T09:57:51Z</time>
      </trkpt>
      <trkpt lat="43.70538" lon="3.07229">
        <ele>907.62</ele>
        <time>2019-02-21T09:57:52Z</time>
      </trkpt>
      <trkpt lat="43.70553" lon="3.07218">
        <ele>908.58</ele>
        <time>2019-02-21T09:58:11Z</time>
      </trkpt>
      <trkpt lat="43.70565" lon="3.07204">
        <ele>910.03</ele>
        <time>2019-02-21T09:58:28Z</time>
      </trkpt>
      <trkpt lat="43.70575" lon="3.0719">
        <ele>912.43</ele>
        <time>2019-02-21T09:58:45Z</time>
      </trkpt>
      <trkpt lat="43.70582" lon="3.07183">
        <ele>914.35</ele>
        <time>2019-02-21T09:58:57Z</time>
      </trkpt>
      <trkpt lat="43.70587" lon="3.07166">
        <ele>914.35</ele>
        <time>2019-02-21T09:59:10Z</time>
      </trkpt>
      <trkpt lat="43.70587" lon="3.07164">
        <ele>914.35</ele>
        <time>2019-02-21T09:59:11Z</time>
      </trkpt>
      <trkpt lat="43.70587" lon="3.07159">
        <ele>912.91</ele>
        <time>2019-02-21T09:59:16Z</time>
      </trkpt>
      <trkpt lat="43.70587" lon="3.07156">
        <ele>912.91</ele>
        <time>2019-02-21T09:59:17Z</time>
      </trkpt>
      <trkpt lat="43.70588" lon="3.07154">
        <ele>912.91</ele>
        <time>2019-02-21T09:59:18Z</time>
      </trkpt>
      <trkpt lat="43.70591" lon="3.07142">
        <ele>911.95</ele>
        <time>2019-02-21T09:59:27Z</time>
      </trkpt>
      <trkpt lat="43.70594" lon="3.0712">
        <ele>911.47</ele>
        <time>2019-02-21T09:59:42Z</time>
      </trkpt>
      <trkpt lat="43.70598" lon="3.071">
        <ele>910.99</ele>
        <time>2019-02-21T09:59:58Z</time>
      </trkpt>
      <trkpt lat="43.70597" lon="3.07092">
        <ele>912.43</ele>
        <time>2019-02-21T10:00:12Z</time>
      </trkpt>
      <trkpt lat="43.70601" lon="3.07082">
        <ele>912.43</ele>
        <time>2019-02-21T10:00:25Z</time>
      </trkpt>
      <trkpt lat="43.70602" lon="3.07068">
        <ele>913.87</ele>
        <time>2019-02-21T10:00:37Z</time>
      </trkpt>
      <trkpt lat="43.70604" lon="3.07051">
        <ele>915.31</ele>
        <time>2019-02-21T10:00:50Z</time>
      </trkpt>
      <trkpt lat="43.70605" lon="3.07042">
        <ele>915.79</ele>
        <time>2019-02-21T10:00:59Z</time>
      </trkpt>
      <trkpt lat="43.70605" lon="3.07037">
        <ele>916.27</ele>
        <time>2019-02-21T10:01:04Z</time>
      </trkpt>
      <trkpt lat="43.70605" lon="3.07022">
        <ele>917.24</ele>
        <time>2019-02-21T10:01:14Z</time>
      </trkpt>
      <trkpt lat="43.70606" lon="3.07017">
        <ele>917.24</ele>
        <time>2019-02-21T10:01:17Z</time>
      </trkpt>
      <trkpt lat="43.70607" lon="3.07007">
        <ele>919.16</ele>
        <time>2019-02-21T10:01:27Z</time>
      </trkpt>
      <trkpt lat="43.70605" lon="3.06999">
        <ele>917.72</ele>
        <time>2019-02-21T10:01:38Z</time>
      </trkpt>
      <trkpt lat="43.70605" lon="3.06996">
        <ele>919.16</ele>
        <time>2019-02-21T10:01:40Z</time>
      </trkpt>
      <trkpt lat="43.70607" lon="3.06978">
        <ele>919.16</ele>
        <time>2019-02-21T10:01:51Z</time>
      </trkpt>
      <trkpt lat="43.70606" lon="3.06976">
        <ele>917.72</ele>
        <time>2019-02-21T10:01:52Z</time>
      </trkpt>
      <trkpt lat="43.70606" lon="3.06974">
        <ele>917.72</ele>
        <time>2019-02-21T10:01:53Z</time>
      </trkpt>
      <trkpt lat="43.70608" lon="3.0696">
        <ele>917.72</ele>
        <time>2019-02-21T10:02:03Z</time>
      </trkpt>
      <trkpt lat="43.70605" lon="3.06951">
        <ele>916.27</ele>
        <time>2019-02-21T10:02:12Z</time>
      </trkpt>
      <trkpt lat="43.70603" lon="3.06947">
        <ele>916.27</ele>
        <time>2019-02-21T10:02:16Z</time>
      </trkpt>
      <trkpt lat="43.70602" lon="3.06942">
        <ele>915.31</ele>
        <time>2019-02-21T10:02:20Z</time>
      </trkpt>
      <trkpt lat="43.70601" lon="3.06938">
        <ele>914.83</ele>
        <time>2019-02-21T10:02:24Z</time>
      </trkpt>
      <trkpt lat="43.706" lon="3.06933">
        <ele>913.39</ele>
        <time>2019-02-21T10:02:28Z</time>
      </trkpt>
      <trkpt lat="43.706" lon="3.06931">
        <ele>913.39</ele>
        <time>2019-02-21T10:02:29Z</time>
      </trkpt>
      <trkpt lat="43.706" lon="3.06928">
        <ele>913.39</ele>
        <time>2019-02-21T10:02:30Z</time>
      </trkpt>
      <trkpt lat="43.70599" lon="3.06922">
        <ele>913.87</ele>
        <time>2019-02-21T10:02:34Z</time>
      </trkpt>
      <trkpt lat="43.70599" lon="3.0692">
        <ele>913.87</ele>
        <time>2019-02-21T10:02:35Z</time>
      </trkpt>
      <trkpt lat="43.70594" lon="3.06913">
        <ele>913.87</ele>
        <time>2019-02-21T10:02:43Z</time>
      </trkpt>
      <trkpt lat="43.70592" lon="3.0691">
        <ele>914.83</ele>
        <time>2019-02-21T10:02:46Z</time>
      </trkpt>
      <trkpt lat="43.70589" lon="3.06902">
        <ele>915.79</ele>
        <time>2019-02-21T10:02:54Z</time>
      </trkpt>
      <trkpt lat="43.70589" lon="3.06902">
        <ele>915.79</ele>
        <time>2019-02-21T10:02:55Z</time>
      </trkpt>
      <trkpt lat="43.70588" lon="3.06898">
        <ele>915.79</ele>
        <time>2019-02-21T10:02:58Z</time>
      </trkpt>
      <trkpt lat="43.70587" lon="3.06894">
        <ele>915.79</ele>
        <time>2019-02-21T10:03:01Z</time>
      </trkpt>
      <trkpt lat="43.70587" lon="3.06892">
        <ele>915.79</ele>
        <time>2019-02-21T10:03:02Z</time>
      </trkpt>
      <trkpt lat="43.70585" lon="3.06881">
        <ele>916.75</ele>
        <time>2019-02-21T10:03:10Z</time>
      </trkpt>
      <trkpt lat="43.70583" lon="3.06872">
        <ele>917.24</ele>
        <time>2019-02-21T10:03:18Z</time>
      </trkpt>
      <trkpt lat="43.70583" lon="3.06857">
        <ele>917.72</ele>
        <time>2019-02-21T10:03:28Z</time>
      </trkpt>
      <trkpt lat="43.70582" lon="3.06849">
        <ele>917.72</ele>
        <time>2019-02-21T10:03:34Z</time>
      </trkpt>
      <trkpt lat="43.70584" lon="3.06842">
        <ele>918.2</ele>
        <time>2019-02-21T10:03:41Z</time>
      </trkpt>
      <trkpt lat="43.70585" lon="3.0684">
        <ele>918.68</ele>
        <time>2019-02-21T10:03:42Z</time>
      </trkpt>
      <trkpt lat="43.70586" lon="3.06837">
        <ele>919.16</ele>
        <time>2019-02-21T10:03:45Z</time>
      </trkpt>
      <trkpt lat="43.70589" lon="3.06828">
        <ele>919.64</ele>
        <time>2019-02-21T10:03:53Z</time>
      </trkpt>
      <trkpt lat="43.70591" lon="3.06816">
        <ele>919.64</ele>
        <time>2019-02-21T10:04:02Z</time>
      </trkpt>
      <trkpt lat="43.70591" lon="3.06805">
        <ele>920.12</ele>
        <time>2019-02-21T10:04:10Z</time>
      </trkpt>
      <trkpt lat="43.70591" lon="3.06801">
        <ele>920.12</ele>
        <time>2019-02-21T10:04:14Z</time>
      </trkpt>
      <trkpt lat="43.70591" lon="3.06795">
        <ele>920.12</ele>
        <time>2019-02-21T10:04:18Z</time>
      </trkpt>
      <trkpt lat="43.70592" lon="3.06793">
        <ele>920.12</ele>
        <time>2019-02-21T10:04:19Z</time>
      </trkpt>
      <trkpt lat="43.70593" lon="3.06789">
        <ele>918.68</ele>
        <time>2019-02-21T10:04:22Z</time>
      </trkpt>
      <trkpt lat="43.70594" lon="3.06781">
        <ele>918.68</ele>
        <time>2019-02-21T10:04:27Z</time>
      </trkpt>
      <trkpt lat="43.70594" lon="3.06773">
        <ele>918.68</ele>
        <time>2019-02-21T10:04:32Z</time>
      </trkpt>
      <trkpt lat="43.70594" lon="3.06771">
        <ele>918.68</ele>
        <time>2019-02-21T10:04:33Z</time>
      </trkpt>
      <trkpt lat="43.70594" lon="3.06769">
        <ele>918.68</ele>
        <time>2019-02-21T10:04:34Z</time>
      </trkpt>
      <trkpt lat="43.70594" lon="3.06765">
        <ele>920.12</ele>
        <time>2019-02-21T10:04:38Z</time>
      </trkpt>
      <trkpt lat="43.70592" lon="3.06756">
        <ele>921.08</ele>
        <time>2019-02-21T10:04:46Z</time>
      </trkpt>
      <trkpt lat="43.70591" lon="3.0675">
        <ele>922.04</ele>
        <time>2019-02-21T10:04:51Z</time>
      </trkpt>
      <trkpt lat="43.7059" lon="3.06744">
        <ele>922.52</ele>
        <time>2019-02-21T10:04:57Z</time>
      </trkpt>
      <trkpt lat="43.70589" lon="3.06736">
        <ele>923.48</ele>
        <time>2019-02-21T10:05:04Z</time>
      </trkpt>
      <trkpt lat="43.70589" lon="3.06731">
        <ele>923.48</ele>
        <time>2019-02-21T10:05:18Z</time>
      </trkpt>
      <trkpt lat="43.70587" lon="3.0673">
        <ele>923.48</ele>
        <time>2019-02-21T10:05:45Z</time>
      </trkpt>
      <trkpt lat="43.70585" lon="3.0673">
        <ele>923</ele>
        <time>2019-02-21T10:06:08Z</time>
      </trkpt>
      <trkpt lat="43.70588" lon="3.06731">
        <ele>923.96</ele>
        <time>2019-02-21T10:06:26Z</time>
      </trkpt>
      <trkpt lat="43.70588" lon="3.06732">
        <ele>923.96</ele>
        <time>2019-02-21T10:06:58Z</time>
      </trkpt>
      <trkpt lat="43.70588" lon="3.06731">
        <ele>923.96</ele>
        <time>2019-02-21T10:07:31Z</time>
      </trkpt>
      <trkpt lat="43.70588" lon="3.06731">
        <ele>923.96</ele>
        <time>2019-02-21T10:07:51Z</time>
      </trkpt>
      <trkpt lat="43.70587" lon="3.06731">
        <ele>923.96</ele>
        <time>2019-02-21T10:08:11Z</time>
      </trkpt>
      <trkpt lat="43.70588" lon="3.06733">
        <ele>922.04</ele>
        <time>2019-02-21T10:08:26Z</time>
      </trkpt>
      <trkpt lat="43.7059" lon="3.06733">
        <ele>922.04</ele>
        <time>2019-02-21T10:08:56Z</time>
      </trkpt>
      <trkpt lat="43.70589" lon="3.06734">
        <ele>922.04</ele>
        <time>2019-02-21T10:09:21Z</time>
      </trkpt>
      <trkpt lat="43.70589" lon="3.06733">
        <ele>922.04</ele>
        <time>2019-02-21T10:09:46Z</time>
      </trkpt>
      <trkpt lat="43.70587" lon="3.06737">
        <ele>922.04</ele>
        <time>2019-02-21T10:10:20Z</time>
      </trkpt>
      <trkpt lat="43.70588" lon="3.06729">
        <ele>922.04</ele>
        <time>2019-02-21T10:10:39Z</time>
      </trkpt>
      <trkpt lat="43.70588" lon="3.06728">
        <ele>922.04</ele>
        <time>2019-02-21T10:11:19Z</time>
      </trkpt>
      <trkpt lat="43.70588" lon="3.06728">
        <ele>922.04</ele>
        <time>2019-02-21T10:11:21Z</time>
      </trkpt>
      <trkpt lat="43.70588" lon="3.06725">
        <ele>922.04</ele>
        <time>2019-02-21T10:11:24Z</time>
      </trkpt>
      <trkpt lat="43.70588" lon="3.06719">
        <ele>923</ele>
        <time>2019-02-21T10:11:31Z</time>
      </trkpt>
      <trkpt lat="43.70588" lon="3.06715">
        <ele>923.48</ele>
        <time>2019-02-21T10:11:36Z</time>
      </trkpt>
      <trkpt lat="43.70587" lon="3.06714">
        <ele>923.48</ele>
        <time>2019-02-21T10:11:38Z</time>
      </trkpt>
      <trkpt lat="43.70585" lon="3.06711">
        <ele>923.96</ele>
        <time>2019-02-21T10:11:41Z</time>
      </trkpt>
      <trkpt lat="43.70582" lon="3.06706">
        <ele>925.41</ele>
        <time>2019-02-21T10:11:49Z</time>
      </trkpt>
      <trkpt lat="43.70577" lon="3.06702">
        <ele>926.85</ele>
        <time>2019-02-21T10:11:59Z</time>
      </trkpt>
      <trkpt lat="43.70576" lon="3.067">
        <ele>926.85</ele>
        <time>2019-02-21T10:12:01Z</time>
      </trkpt>
      <trkpt lat="43.70574" lon="3.06698">
        <ele>927.81</ele>
        <time>2019-02-21T10:12:04Z</time>
      </trkpt>
      <trkpt lat="43.70572" lon="3.06695">
        <ele>928.29</ele>
        <time>2019-02-21T10:12:07Z</time>
      </trkpt>
      <trkpt lat="43.7057" lon="3.06693">
        <ele>928.77</ele>
        <time>2019-02-21T10:12:10Z</time>
      </trkpt>
      <trkpt lat="43.70567" lon="3.0669">
        <ele>928.77</ele>
        <time>2019-02-21T10:12:13Z</time>
      </trkpt>
      <trkpt lat="43.70565" lon="3.06687">
        <ele>929.73</ele>
        <time>2019-02-21T10:12:18Z</time>
      </trkpt>
      <trkpt lat="43.70562" lon="3.06685">
        <ele>930.21</ele>
        <time>2019-02-21T10:12:23Z</time>
      </trkpt>
      <trkpt lat="43.70558" lon="3.06681">
        <ele>930.69</ele>
        <time>2019-02-21T10:12:31Z</time>
      </trkpt>
      <trkpt lat="43.70555" lon="3.06678">
        <ele>931.17</ele>
        <time>2019-02-21T10:12:34Z</time>
      </trkpt>
      <trkpt lat="43.70554" lon="3.06675">
        <ele>931.65</ele>
        <time>2019-02-21T10:12:37Z</time>
      </trkpt>
      <trkpt lat="43.7055" lon="3.06668">
        <ele>931.65</ele>
        <time>2019-02-21T10:12:43Z</time>
      </trkpt>
      <trkpt lat="43.70549" lon="3.06667">
        <ele>931.65</ele>
        <time>2019-02-21T10:12:44Z</time>
      </trkpt>
      <trkpt lat="43.70547" lon="3.06665">
        <ele>931.65</ele>
        <time>2019-02-21T10:12:47Z</time>
      </trkpt>
      <trkpt lat="43.70544" lon="3.0666">
        <ele>931.65</ele>
        <time>2019-02-21T10:12:52Z</time>
      </trkpt>
      <trkpt lat="43.70543" lon="3.06659">
        <ele>931.65</ele>
        <time>2019-02-21T10:12:53Z</time>
      </trkpt>
      <trkpt lat="43.70536" lon="3.0665">
        <ele>931.65</ele>
        <time>2019-02-21T10:13:04Z</time>
      </trkpt>
      <trkpt lat="43.70534" lon="3.06646">
        <ele>931.65</ele>
        <time>2019-02-21T10:13:08Z</time>
      </trkpt>
      <trkpt lat="43.70527" lon="3.06639">
        <ele>931.65</ele>
        <time>2019-02-21T10:13:17Z</time>
      </trkpt>
      <trkpt lat="43.70526" lon="3.06637">
        <ele>930.69</ele>
        <time>2019-02-21T10:13:22Z</time>
      </trkpt>
      <trkpt lat="43.70523" lon="3.06633">
        <ele>930.69</ele>
        <time>2019-02-21T10:13:26Z</time>
      </trkpt>
      <trkpt lat="43.70517" lon="3.06621">
        <ele>930.21</ele>
        <time>2019-02-21T10:13:35Z</time>
      </trkpt>
      <trkpt lat="43.70516" lon="3.06618">
        <ele>929.25</ele>
        <time>2019-02-21T10:13:38Z</time>
      </trkpt>
      <trkpt lat="43.70514" lon="3.06616">
        <ele>929.25</ele>
        <time>2019-02-21T10:13:40Z</time>
      </trkpt>
      <trkpt lat="43.7051" lon="3.06614">
        <ele>928.77</ele>
        <time>2019-02-21T10:13:46Z</time>
      </trkpt>
      <trkpt lat="43.70508" lon="3.06611">
        <ele>928.29</ele>
        <time>2019-02-21T10:13:49Z</time>
      </trkpt>
      <trkpt lat="43.70506" lon="3.06609">
        <ele>927.81</ele>
        <time>2019-02-21T10:13:52Z</time>
      </trkpt>
      <trkpt lat="43.70504" lon="3.06608">
        <ele>927.81</ele>
        <time>2019-02-21T10:13:53Z</time>
      </trkpt>
      <trkpt lat="43.70503" lon="3.06607">
        <ele>927.81</ele>
        <time>2019-02-21T10:13:54Z</time>
      </trkpt>
      <trkpt lat="43.705" lon="3.06606">
        <ele>927.33</ele>
        <time>2019-02-21T10:13:58Z</time>
      </trkpt>
      <trkpt lat="43.70497" lon="3.06605">
        <ele>926.37</ele>
        <time>2019-02-21T10:14:02Z</time>
      </trkpt>
      <trkpt lat="43.70494" lon="3.06602">
        <ele>925.41</ele>
        <time>2019-02-21T10:14:07Z</time>
      </trkpt>
      <trkpt lat="43.70492" lon="3.06599">
        <ele>924.45</ele>
        <time>2019-02-21T10:14:11Z</time>
      </trkpt>
      <trkpt lat="43.70489" lon="3.06595">
        <ele>923</ele>
        <time>2019-02-21T10:14:17Z</time>
      </trkpt>
      <trkpt lat="43.70485" lon="3.06593">
        <ele>923</ele>
        <time>2019-02-21T10:14:21Z</time>
      </trkpt>
      <trkpt lat="43.70477" lon="3.06587">
        <ele>922.04</ele>
        <time>2019-02-21T10:14:29Z</time>
      </trkpt>
      <trkpt lat="43.70469" lon="3.06586">
        <ele>922.04</ele>
        <time>2019-02-21T10:14:40Z</time>
      </trkpt>
      <trkpt lat="43.70465" lon="3.06585">
        <ele>923.48</ele>
        <time>2019-02-21T10:14:47Z</time>
      </trkpt>
      <trkpt lat="43.70463" lon="3.06583">
        <ele>923.96</ele>
        <time>2019-02-21T10:14:52Z</time>
      </trkpt>
      <trkpt lat="43.70458" lon="3.06579">
        <ele>924.93</ele>
        <time>2019-02-21T10:15:00Z</time>
      </trkpt>
      <trkpt lat="43.70454" lon="3.06576">
        <ele>926.37</ele>
        <time>2019-02-21T10:15:08Z</time>
      </trkpt>
      <trkpt lat="43.70454" lon="3.06574">
        <ele>926.37</ele>
        <time>2019-02-21T10:15:10Z</time>
      </trkpt>
      <trkpt lat="43.70453" lon="3.06572">
        <ele>926.85</ele>
        <time>2019-02-21T10:15:12Z</time>
      </trkpt>
      <trkpt lat="43.70452" lon="3.06569">
        <ele>926.85</ele>
        <time>2019-02-21T10:15:15Z</time>
      </trkpt>
      <trkpt lat="43.7045" lon="3.06561">
        <ele>928.29</ele>
        <time>2019-02-21T10:15:24Z</time>
      </trkpt>
      <trkpt lat="43.70448" lon="3.06557">
        <ele>928.77</ele>
        <time>2019-02-21T10:15:29Z</time>
      </trkpt>
      <trkpt lat="43.70446" lon="3.06555">
        <ele>928.29</ele>
        <time>2019-02-21T10:15:32Z</time>
      </trkpt>
      <trkpt lat="43.70441" lon="3.06552">
        <ele>928.77</ele>
        <time>2019-02-21T10:15:39Z</time>
      </trkpt>
      <trkpt lat="43.70436" lon="3.06549">
        <ele>928.77</ele>
        <time>2019-02-21T10:15:45Z</time>
      </trkpt>
      <trkpt lat="43.70435" lon="3.06548">
        <ele>928.77</ele>
        <time>2019-02-21T10:15:46Z</time>
      </trkpt>
      <trkpt lat="43.70434" lon="3.06547">
        <ele>928.77</ele>
        <time>2019-02-21T10:15:47Z</time>
      </trkpt>
      <trkpt lat="43.70433" lon="3.06544">
        <ele>928.77</ele>
        <time>2019-02-21T10:15:50Z</time>
      </trkpt>
      <trkpt lat="43.70428" lon="3.06534">
        <ele>929.25</ele>
        <time>2019-02-21T10:15:59Z</time>
      </trkpt>
      <trkpt lat="43.70423" lon="3.06527">
        <ele>929.73</ele>
        <time>2019-02-21T10:16:07Z</time>
      </trkpt>
      <trkpt lat="43.70423" lon="3.06525">
        <ele>929.73</ele>
        <time>2019-02-21T10:16:08Z</time>
      </trkpt>
      <trkpt lat="43.70422" lon="3.06519">
        <ele>929.73</ele>
        <time>2019-02-21T10:16:16Z</time>
      </trkpt>
      <trkpt lat="43.70422" lon="3.06515">
        <ele>929.73</ele>
        <time>2019-02-21T10:16:19Z</time>
      </trkpt>
      <trkpt lat="43.70421" lon="3.06514">
        <ele>929.73</ele>
        <time>2019-02-21T10:16:20Z</time>
      </trkpt>
      <trkpt lat="43.7042" lon="3.06501">
        <ele>930.21</ele>
        <time>2019-02-21T10:16:30Z</time>
      </trkpt>
      <trkpt lat="43.70419" lon="3.06496">
        <ele>930.69</ele>
        <time>2019-02-21T10:16:34Z</time>
      </trkpt>
      <trkpt lat="43.70419" lon="3.06491">
        <ele>931.65</ele>
        <time>2019-02-21T10:16:43Z</time>
      </trkpt>
      <trkpt lat="43.70418" lon="3.06488">
        <ele>932.62</ele>
        <time>2019-02-21T10:17:03Z</time>
      </trkpt>
      <trkpt lat="43.70419" lon="3.06483">
        <ele>934.06</ele>
        <time>2019-02-21T10:17:14Z</time>
      </trkpt>
      <trkpt lat="43.7042" lon="3.06479">
        <ele>935.02</ele>
        <time>2019-02-21T10:17:27Z</time>
      </trkpt>
      <trkpt lat="43.70418" lon="3.06475">
        <ele>936.46</ele>
        <time>2019-02-21T10:17:40Z</time>
      </trkpt>
      <trkpt lat="43.70416" lon="3.06468">
        <ele>938.86</ele>
        <time>2019-02-21T10:17:52Z</time>
      </trkpt>
      <trkpt lat="43.70415" lon="3.06461">
        <ele>940.31</ele>
        <time>2019-02-21T10:18:05Z</time>
      </trkpt>
      <trkpt lat="43.70412" lon="3.06458">
        <ele>941.75</ele>
        <time>2019-02-21T10:18:18Z</time>
      </trkpt>
      <trkpt lat="43.70411" lon="3.06454">
        <ele>942.71</ele>
        <time>2019-02-21T10:18:28Z</time>
      </trkpt>
      <trkpt lat="43.7041" lon="3.06451">
        <ele>944.63</ele>
        <time>2019-02-21T10:18:41Z</time>
      </trkpt>
      <trkpt lat="43.70405" lon="3.06451">
        <ele>945.11</ele>
        <time>2019-02-21T10:18:55Z</time>
      </trkpt>
      <trkpt lat="43.70402" lon="3.06446">
        <ele>947.52</ele>
        <time>2019-02-21T10:19:06Z</time>
      </trkpt>
      <trkpt lat="43.704" lon="3.06443">
        <ele>949.44</ele>
        <time>2019-02-21T10:19:16Z</time>
      </trkpt>
      <trkpt lat="43.70396" lon="3.0644">
        <ele>950.88</ele>
        <time>2019-02-21T10:19:26Z</time>
      </trkpt>
      <trkpt lat="43.70391" lon="3.06439">
        <ele>952.32</ele>
        <time>2019-02-21T10:19:36Z</time>
      </trkpt>
      <trkpt lat="43.70388" lon="3.06436">
        <ele>953.28</ele>
        <time>2019-02-21T10:19:47Z</time>
      </trkpt>
      <trkpt lat="43.70385" lon="3.06435">
        <ele>955.69</ele>
        <time>2019-02-21T10:19:59Z</time>
      </trkpt>
      <trkpt lat="43.70383" lon="3.06435">
        <ele>956.17</ele>
        <time>2019-02-21T10:20:02Z</time>
      </trkpt>
      <trkpt lat="43.70379" lon="3.06433">
        <ele>957.61</ele>
        <time>2019-02-21T10:20:10Z</time>
      </trkpt>
      <trkpt lat="43.70377" lon="3.06431">
        <ele>959.05</ele>
        <time>2019-02-21T10:20:17Z</time>
      </trkpt>
      <trkpt lat="43.70372" lon="3.06428">
        <ele>960.49</ele>
        <time>2019-02-21T10:20:25Z</time>
      </trkpt>
      <trkpt lat="43.70368" lon="3.06425">
        <ele>961.94</ele>
        <time>2019-02-21T10:20:34Z</time>
      </trkpt>
      <trkpt lat="43.70365" lon="3.06424">
        <ele>962.9</ele>
        <time>2019-02-21T10:20:39Z</time>
      </trkpt>
      <trkpt lat="43.70364" lon="3.06422">
        <ele>963.38</ele>
        <time>2019-02-21T10:20:41Z</time>
      </trkpt>
      <trkpt lat="43.70362" lon="3.0642">
        <ele>964.34</ele>
        <time>2019-02-21T10:20:46Z</time>
      </trkpt>
      <trkpt lat="43.70359" lon="3.06417">
        <ele>966.26</ele>
        <time>2019-02-21T10:20:54Z</time>
      </trkpt>
      <trkpt lat="43.70357" lon="3.06415">
        <ele>967.22</ele>
        <time>2019-02-21T10:21:02Z</time>
      </trkpt>
      <trkpt lat="43.70357" lon="3.06412">
        <ele>967.22</ele>
        <time>2019-02-21T10:21:19Z</time>
      </trkpt>
      <trkpt lat="43.70354" lon="3.0641">
        <ele>967.7</ele>
        <time>2019-02-21T10:21:24Z</time>
      </trkpt>
      <trkpt lat="43.70351" lon="3.06407">
        <ele>968.18</ele>
        <time>2019-02-21T10:21:29Z</time>
      </trkpt>
      <trkpt lat="43.70347" lon="3.06403">
        <ele>969.15</ele>
        <time>2019-02-21T10:21:38Z</time>
      </trkpt>
      <trkpt lat="43.70345" lon="3.06401">
        <ele>970.11</ele>
        <time>2019-02-21T10:21:49Z</time>
      </trkpt>
      <trkpt lat="43.70344" lon="3.064">
        <ele>970.11</ele>
        <time>2019-02-21T10:22:26Z</time>
      </trkpt>
      <trkpt lat="43.70345" lon="3.06402">
        <ele>970.11</ele>
        <time>2019-02-21T10:23:02Z</time>
      </trkpt>
      <trkpt lat="43.70346" lon="3.06401">
        <ele>970.11</ele>
        <time>2019-02-21T10:23:39Z</time>
      </trkpt>
      <trkpt lat="43.70343" lon="3.06397">
        <ele>970.11</ele>
        <time>2019-02-21T10:23:44Z</time>
      </trkpt>
      <trkpt lat="43.7034" lon="3.06391">
        <ele>972.03</ele>
        <time>2019-02-21T10:23:52Z</time>
      </trkpt>
      <trkpt lat="43.70337" lon="3.06384">
        <ele>972.99</ele>
        <time>2019-02-21T10:24:00Z</time>
      </trkpt>
      <trkpt lat="43.70336" lon="3.06384">
        <ele>972.99</ele>
        <time>2019-02-21T10:24:02Z</time>
      </trkpt>
      <trkpt lat="43.70335" lon="3.06382">
        <ele>973.47</ele>
        <time>2019-02-21T10:24:04Z</time>
      </trkpt>
      <trkpt lat="43.70333" lon="3.06376">
        <ele>974.91</ele>
        <time>2019-02-21T10:24:13Z</time>
      </trkpt>
      <trkpt lat="43.7033" lon="3.06371">
        <ele>975.88</ele>
        <time>2019-02-21T10:24:22Z</time>
      </trkpt>
      <trkpt lat="43.70328" lon="3.06367">
        <ele>977.8</ele>
        <time>2019-02-21T10:24:31Z</time>
      </trkpt>
      <trkpt lat="43.70325" lon="3.06363">
        <ele>978.76</ele>
        <time>2019-02-21T10:24:43Z</time>
      </trkpt>
      <trkpt lat="43.70323" lon="3.0636">
        <ele>980.2</ele>
        <time>2019-02-21T10:24:54Z</time>
      </trkpt>
      <trkpt lat="43.70321" lon="3.06354">
        <ele>981.64</ele>
        <time>2019-02-21T10:25:03Z</time>
      </trkpt>
      <trkpt lat="43.70319" lon="3.06349">
        <ele>982.6</ele>
        <time>2019-02-21T10:25:13Z</time>
      </trkpt>
      <trkpt lat="43.70317" lon="3.06345">
        <ele>984.05</ele>
        <time>2019-02-21T10:25:24Z</time>
      </trkpt>
      <trkpt lat="43.70315" lon="3.06343">
        <ele>985.49</ele>
        <time>2019-02-21T10:25:34Z</time>
      </trkpt>
      <trkpt lat="43.70315" lon="3.06342">
        <ele>985.49</ele>
        <time>2019-02-21T10:25:35Z</time>
      </trkpt>
      <trkpt lat="43.70313" lon="3.06338">
        <ele>986.45</ele>
        <time>2019-02-21T10:25:43Z</time>
      </trkpt>
      <trkpt lat="43.7031" lon="3.06336">
        <ele>987.41</ele>
        <time>2019-02-21T10:25:53Z</time>
      </trkpt>
      <trkpt lat="43.70309" lon="3.06334">
        <ele>987.89</ele>
        <time>2019-02-21T10:26:15Z</time>
      </trkpt>
      <trkpt lat="43.70308" lon="3.06333">
        <ele>987.89</ele>
        <time>2019-02-21T10:26:16Z</time>
      </trkpt>
      <trkpt lat="43.70307" lon="3.0633">
        <ele>989.33</ele>
        <time>2019-02-21T10:26:21Z</time>
      </trkpt>
      <trkpt lat="43.70306" lon="3.06326">
        <ele>990.78</ele>
        <time>2019-02-21T10:26:28Z</time>
      </trkpt>
      <trkpt lat="43.70303" lon="3.06324">
        <ele>993.18</ele>
        <time>2019-02-21T10:26:39Z</time>
      </trkpt>
      <trkpt lat="43.70301" lon="3.0632">
        <ele>994.14</ele>
        <time>2019-02-21T10:26:49Z</time>
      </trkpt>
      <trkpt lat="43.703" lon="3.06317">
        <ele>994.62</ele>
        <time>2019-02-21T10:26:53Z</time>
      </trkpt>
      <trkpt lat="43.70298" lon="3.06312">
        <ele>995.58</ele>
        <time>2019-02-21T10:27:00Z</time>
      </trkpt>
      <trkpt lat="43.70295" lon="3.06309">
        <ele>997.51</ele>
        <time>2019-02-21T10:27:09Z</time>
      </trkpt>
      <trkpt lat="43.70292" lon="3.06306">
        <ele>998.47</ele>
        <time>2019-02-21T10:27:17Z</time>
      </trkpt>
      <trkpt lat="43.70289" lon="3.06302">
        <ele>1000.39</ele>
        <time>2019-02-21T10:27:28Z</time>
      </trkpt>
      <trkpt lat="43.70289" lon="3.063">
        <ele>1000.87</ele>
        <time>2019-02-21T10:27:46Z</time>
      </trkpt>
      <trkpt lat="43.70287" lon="3.06296">
        <ele>1002.79</ele>
        <time>2019-02-21T10:27:58Z</time>
      </trkpt>
      <trkpt lat="43.70286" lon="3.06293">
        <ele>1005.2</ele>
        <time>2019-02-21T10:28:09Z</time>
      </trkpt>
      <trkpt lat="43.70284" lon="3.06288">
        <ele>1006.64</ele>
        <time>2019-02-21T10:28:18Z</time>
      </trkpt>
      <trkpt lat="43.70284" lon="3.06282">
        <ele>1008.08</ele>
        <time>2019-02-21T10:28:29Z</time>
      </trkpt>
      <trkpt lat="43.70282" lon="3.06275">
        <ele>1009.04</ele>
        <time>2019-02-21T10:28:40Z</time>
      </trkpt>
      <trkpt lat="43.70281" lon="3.06267">
        <ele>1010.48</ele>
        <time>2019-02-21T10:28:48Z</time>
      </trkpt>
      <trkpt lat="43.70278" lon="3.0626">
        <ele>1012.41</ele>
        <time>2019-02-21T10:28:57Z</time>
      </trkpt>
      <trkpt lat="43.70278" lon="3.06259">
        <ele>1012.41</ele>
        <time>2019-02-21T10:28:58Z</time>
      </trkpt>
      <trkpt lat="43.70276" lon="3.06255">
        <ele>1014.33</ele>
        <time>2019-02-21T10:29:07Z</time>
      </trkpt>
      <trkpt lat="43.70276" lon="3.06253">
        <ele>1014.81</ele>
        <time>2019-02-21T10:29:10Z</time>
      </trkpt>
      <trkpt lat="43.70275" lon="3.06248">
        <ele>1016.25</ele>
        <time>2019-02-21T10:29:17Z</time>
      </trkpt>
      <trkpt lat="43.70273" lon="3.06246">
        <ele>1017.21</ele>
        <time>2019-02-21T10:29:25Z</time>
      </trkpt>
      <trkpt lat="43.70269" lon="3.06243">
        <ele>1018.65</ele>
        <time>2019-02-21T10:29:34Z</time>
      </trkpt>
      <trkpt lat="43.70267" lon="3.06241">
        <ele>1019.13</ele>
        <time>2019-02-21T10:29:50Z</time>
      </trkpt>
      <trkpt lat="43.70265" lon="3.06238">
        <ele>1019.13</ele>
        <time>2019-02-21T10:29:59Z</time>
      </trkpt>
      <trkpt lat="43.70264" lon="3.06241">
        <ele>1019.13</ele>
        <time>2019-02-21T10:30:15Z</time>
      </trkpt>
      <trkpt lat="43.70264" lon="3.06245">
        <ele>1016.25</ele>
        <time>2019-02-21T10:30:28Z</time>
      </trkpt>
      <trkpt lat="43.70264" lon="3.06247">
        <ele>1019.13</ele>
        <time>2019-02-21T10:30:49Z</time>
      </trkpt>
      <trkpt lat="43.70264" lon="3.06246">
        <ele>1019.13</ele>
        <time>2019-02-21T10:31:06Z</time>
      </trkpt>
      <trkpt lat="43.70266" lon="3.06243">
        <ele>1019.13</ele>
        <time>2019-02-21T10:31:37Z</time>
      </trkpt>
      <trkpt lat="43.70265" lon="3.06244">
        <ele>1019.13</ele>
        <time>2019-02-21T10:31:59Z</time>
      </trkpt>
      <trkpt lat="43.70264" lon="3.06244">
        <ele>1016.25</ele>
        <time>2019-02-21T10:32:10Z</time>
      </trkpt>
      <trkpt lat="43.70265" lon="3.06247">
        <ele>1019.13</ele>
        <time>2019-02-21T10:32:24Z</time>
      </trkpt>
      <trkpt lat="43.70266" lon="3.06246">
        <ele>1019.62</ele>
        <time>2019-02-21T10:32:51Z</time>
      </trkpt>
      <trkpt lat="43.70265" lon="3.06246">
        <ele>1019.62</ele>
        <time>2019-02-21T10:33:13Z</time>
      </trkpt>
      <trkpt lat="43.70265" lon="3.06244">
        <ele>1019.62</ele>
        <time>2019-02-21T10:33:31Z</time>
      </trkpt>
      <trkpt lat="43.70265" lon="3.06244">
        <ele>1019.62</ele>
        <time>2019-02-21T10:34:04Z</time>
      </trkpt>
      <trkpt lat="43.70265" lon="3.06243">
        <ele>1019.62</ele>
        <time>2019-02-21T10:34:36Z</time>
      </trkpt>
      <trkpt lat="43.70265" lon="3.06242">
        <ele>1019.62</ele>
        <time>2019-02-21T10:35:13Z</time>
      </trkpt>
      <trkpt lat="43.70264" lon="3.06243">
        <ele>1019.62</ele>
        <time>2019-02-21T10:35:43Z</time>
      </trkpt>
      <trkpt lat="43.70266" lon="3.06243">
        <ele>1019.62</ele>
        <time>2019-02-21T10:35:59Z</time>
      </trkpt>
      <trkpt lat="43.70266" lon="3.06242">
        <ele>1019.62</ele>
        <time>2019-02-21T10:36:14Z</time>
      </trkpt>
      <trkpt lat="43.70266" lon="3.06241">
        <ele>1019.62</ele>
        <time>2019-02-21T10:36:16Z</time>
      </trkpt>
      <trkpt lat="43.70264" lon="3.06237">
        <ele>1018.65</ele>
        <time>2019-02-21T10:36:25Z</time>
      </trkpt>
      <trkpt lat="43.70262" lon="3.06235">
        <ele>1018.17</ele>
        <time>2019-02-21T10:36:36Z</time>
      </trkpt>
      <trkpt lat="43.70257" lon="3.06234">
        <ele>1015.77</ele>
        <time>2019-02-21T10:36:51Z</time>
      </trkpt>
      <trkpt lat="43.70252" lon="3.06232">
        <ele>1013.37</ele>
        <time>2019-02-21T10:37:07Z</time>
      </trkpt>
      <trkpt lat="43.70248" lon="3.06229">
        <ele>1010.96</ele>
        <time>2019-02-21T10:37:22Z</time>
      </trkpt>
      <trkpt lat="43.70247" lon="3.06228">
        <ele>1009.52</ele>
        <time>2019-02-21T10:37:29Z</time>
      </trkpt>
      <trkpt lat="43.70244" lon="3.06225">
        <ele>1008.08</ele>
        <time>2019-02-21T10:37:44Z</time>
      </trkpt>
      <trkpt lat="43.7024" lon="3.06225">
        <ele>1005.68</ele>
        <time>2019-02-21T10:37:58Z</time>
      </trkpt>
      <trkpt lat="43.70236" lon="3.06222">
        <ele>1002.79</ele>
        <time>2019-02-21T10:38:11Z</time>
      </trkpt>
      <trkpt lat="43.70236" lon="3.06222">
        <ele>1002.79</ele>
        <time>2019-02-21T10:38:12Z</time>
      </trkpt>
      <trkpt lat="43.70232" lon="3.06218">
        <ele>1000.87</ele>
        <time>2019-02-21T10:38:26Z</time>
      </trkpt>
      <trkpt lat="43.70226" lon="3.06218">
        <ele>998.47</ele>
        <time>2019-02-21T10:38:39Z</time>
      </trkpt>
      <trkpt lat="43.70221" lon="3.06217">
        <ele>996.54</ele>
        <time>2019-02-21T10:38:54Z</time>
      </trkpt>
      <trkpt lat="43.70216" lon="3.06214">
        <ele>993.66</ele>
        <time>2019-02-21T10:39:09Z</time>
      </trkpt>
      <trkpt lat="43.70213" lon="3.06212">
        <ele>991.74</ele>
        <time>2019-02-21T10:39:22Z</time>
      </trkpt>
      <trkpt lat="43.70207" lon="3.06212">
        <ele>989.33</ele>
        <time>2019-02-21T10:39:37Z</time>
      </trkpt>
      <trkpt lat="43.70202" lon="3.0621">
        <ele>986.93</ele>
        <time>2019-02-21T10:39:53Z</time>
      </trkpt>
      <trkpt lat="43.70195" lon="3.06206">
        <ele>983.57</ele>
        <time>2019-02-21T10:40:09Z</time>
      </trkpt>
      <trkpt lat="43.70189" lon="3.06202">
        <ele>981.16</ele>
        <time>2019-02-21T10:40:21Z</time>
      </trkpt>
      <trkpt lat="43.70183" lon="3.06199">
        <ele>978.28</ele>
        <time>2019-02-21T10:40:35Z</time>
      </trkpt>
      <trkpt lat="43.70175" lon="3.06197">
        <ele>974.91</ele>
        <time>2019-02-21T10:40:51Z</time>
      </trkpt>
      <trkpt lat="43.70169" lon="3.06195">
        <ele>972.99</ele>
        <time>2019-02-21T10:41:03Z</time>
      </trkpt>
      <trkpt lat="43.70161" lon="3.06189">
        <ele>970.59</ele>
        <time>2019-02-21T10:41:15Z</time>
      </trkpt>
      <trkpt lat="43.70158" lon="3.06187">
        <ele>969.15</ele>
        <time>2019-02-21T10:41:21Z</time>
      </trkpt>
      <trkpt lat="43.70156" lon="3.06186">
        <ele>968.67</ele>
        <time>2019-02-21T10:41:22Z</time>
      </trkpt>
      <trkpt lat="43.70155" lon="3.06185">
        <ele>968.67</ele>
        <time>2019-02-21T10:41:23Z</time>
      </trkpt>
      <trkpt lat="43.7015" lon="3.06184">
        <ele>967.7</ele>
        <time>2019-02-21T10:41:28Z</time>
      </trkpt>
      <trkpt lat="43.70144" lon="3.06183">
        <ele>966.74</ele>
        <time>2019-02-21T10:41:34Z</time>
      </trkpt>
      <trkpt lat="43.70142" lon="3.06182">
        <ele>966.74</ele>
        <time>2019-02-21T10:41:38Z</time>
      </trkpt>
      <trkpt lat="43.7014" lon="3.0618">
        <ele>966.74</ele>
        <time>2019-02-21T10:41:39Z</time>
      </trkpt>
      <trkpt lat="43.7013" lon="3.06176">
        <ele>965.78</ele>
        <time>2019-02-21T10:41:49Z</time>
      </trkpt>
      <trkpt lat="43.70129" lon="3.06176">
        <ele>965.78</ele>
        <time>2019-02-21T10:41:50Z</time>
      </trkpt>
      <trkpt lat="43.70118" lon="3.06174">
        <ele>963.86</ele>
        <time>2019-02-21T10:42:00Z</time>
      </trkpt>
      <trkpt lat="43.70112" lon="3.06173">
        <ele>962.9</ele>
        <time>2019-02-21T10:42:05Z</time>
      </trkpt>
      <trkpt lat="43.7011" lon="3.06172">
        <ele>962.9</ele>
        <time>2019-02-21T10:42:06Z</time>
      </trkpt>
      <trkpt lat="43.701" lon="3.06168">
        <ele>961.94</ele>
        <time>2019-02-21T10:42:16Z</time>
      </trkpt>
      <trkpt lat="43.70096" lon="3.06166">
        <ele>961.94</ele>
        <time>2019-02-21T10:42:23Z</time>
      </trkpt>
      <trkpt lat="43.70091" lon="3.06161">
        <ele>958.09</ele>
        <time>2019-02-21T10:42:30Z</time>
      </trkpt>
      <trkpt lat="43.70089" lon="3.06159">
        <ele>959.53</ele>
        <time>2019-02-21T10:42:31Z</time>
      </trkpt>
      <trkpt lat="43.7008" lon="3.0615">
        <ele>958.09</ele>
        <time>2019-02-21T10:42:42Z</time>
      </trkpt>
      <trkpt lat="43.70079" lon="3.06149">
        <ele>958.57</ele>
        <time>2019-02-21T10:42:43Z</time>
      </trkpt>
      <trkpt lat="43.70077" lon="3.06149">
        <ele>956.65</ele>
        <time>2019-02-21T10:42:44Z</time>
      </trkpt>
      <trkpt lat="43.70076" lon="3.06147">
        <ele>956.65</ele>
        <time>2019-02-21T10:42:45Z</time>
      </trkpt>
      <trkpt lat="43.70074" lon="3.06147">
        <ele>956.65</ele>
        <time>2019-02-21T10:42:47Z</time>
      </trkpt>
      <trkpt lat="43.70073" lon="3.06146">
        <ele>956.65</ele>
        <time>2019-02-21T10:42:48Z</time>
      </trkpt>
      <trkpt lat="43.70072" lon="3.06144">
        <ele>956.65</ele>
        <time>2019-02-21T10:42:49Z</time>
      </trkpt>
      <trkpt lat="43.70062" lon="3.06138">
        <ele>954.73</ele>
        <time>2019-02-21T10:43:01Z</time>
      </trkpt>
      <trkpt lat="43.70057" lon="3.06135">
        <ele>952.32</ele>
        <time>2019-02-21T10:43:07Z</time>
      </trkpt>
      <trkpt lat="43.70049" lon="3.06133">
        <ele>952.8</ele>
        <time>2019-02-21T10:43:16Z</time>
      </trkpt>
      <trkpt lat="43.70035" lon="3.0613">
        <ele>950.4</ele>
        <time>2019-02-21T10:43:28Z</time>
      </trkpt>
      <trkpt lat="43.70032" lon="3.06129">
        <ele>950.88</ele>
        <time>2019-02-21T10:43:32Z</time>
      </trkpt>
      <trkpt lat="43.70028" lon="3.06128">
        <ele>952.32</ele>
        <time>2019-02-21T10:43:36Z</time>
      </trkpt>
      <trkpt lat="43.70027" lon="3.06127">
        <ele>952.32</ele>
        <time>2019-02-21T10:43:37Z</time>
      </trkpt>
      <trkpt lat="43.70018" lon="3.06127">
        <ele>953.28</ele>
        <time>2019-02-21T10:43:49Z</time>
      </trkpt>
      <trkpt lat="43.70013" lon="3.06126">
        <ele>954.25</ele>
        <time>2019-02-21T10:43:54Z</time>
      </trkpt>
      <trkpt lat="43.70009" lon="3.06124">
        <ele>953.77</ele>
        <time>2019-02-21T10:43:58Z</time>
      </trkpt>
      <trkpt lat="43.70003" lon="3.06121">
        <ele>954.73</ele>
        <time>2019-02-21T10:44:05Z</time>
      </trkpt>
      <trkpt lat="43.7" lon="3.06121">
        <ele>954.73</ele>
        <time>2019-02-21T10:44:08Z</time>
      </trkpt>
      <trkpt lat="43.69995" lon="3.06119">
        <ele>956.65</ele>
        <time>2019-02-21T10:44:14Z</time>
      </trkpt>
      <trkpt lat="43.69987" lon="3.06117">
        <ele>957.13</ele>
        <time>2019-02-21T10:44:23Z</time>
      </trkpt>
      <trkpt lat="43.69978" lon="3.06117">
        <ele>958.09</ele>
        <time>2019-02-21T10:44:33Z</time>
      </trkpt>
      <trkpt lat="43.69977" lon="3.06116">
        <ele>958.09</ele>
        <time>2019-02-21T10:44:34Z</time>
      </trkpt>
      <trkpt lat="43.69969" lon="3.06116">
        <ele>958.57</ele>
        <time>2019-02-21T10:44:42Z</time>
      </trkpt>
      <trkpt lat="43.69968" lon="3.06116">
        <ele>958.57</ele>
        <time>2019-02-21T10:44:43Z</time>
      </trkpt>
      <trkpt lat="43.69956" lon="3.06115">
        <ele>959.05</ele>
        <time>2019-02-21T10:44:55Z</time>
      </trkpt>
      <trkpt lat="43.69947" lon="3.06115">
        <ele>960.01</ele>
        <time>2019-02-21T10:45:06Z</time>
      </trkpt>
      <trkpt lat="43.69935" lon="3.06111">
        <ele>961.46</ele>
        <time>2019-02-21T10:45:17Z</time>
      </trkpt>
      <trkpt lat="43.69928" lon="3.0611">
        <ele>962.9</ele>
        <time>2019-02-21T10:45:27Z</time>
      </trkpt>
      <trkpt lat="43.69926" lon="3.06108">
        <ele>963.86</ele>
        <time>2019-02-21T10:45:32Z</time>
      </trkpt>
      <trkpt lat="43.69921" lon="3.06106">
        <ele>965.3</ele>
        <time>2019-02-21T10:45:40Z</time>
      </trkpt>
      <trkpt lat="43.69913" lon="3.06105">
        <ele>966.74</ele>
        <time>2019-02-21T10:45:52Z</time>
      </trkpt>
      <trkpt lat="43.69908" lon="3.06103">
        <ele>967.22</ele>
        <time>2019-02-21T10:46:01Z</time>
      </trkpt>
      <trkpt lat="43.69901" lon="3.06097">
        <ele>968.67</ele>
        <time>2019-02-21T10:46:10Z</time>
      </trkpt>
      <trkpt lat="43.69895" lon="3.06095">
        <ele>969.63</ele>
        <time>2019-02-21T10:46:19Z</time>
      </trkpt>
      <trkpt lat="43.69892" lon="3.06093">
        <ele>972.03</ele>
        <time>2019-02-21T10:46:26Z</time>
      </trkpt>
      <trkpt lat="43.69887" lon="3.0609">
        <ele>972.51</ele>
        <time>2019-02-21T10:46:35Z</time>
      </trkpt>
      <trkpt lat="43.69882" lon="3.06088">
        <ele>975.39</ele>
        <time>2019-02-21T10:46:46Z</time>
      </trkpt>
      <trkpt lat="43.69877" lon="3.06085">
        <ele>975.88</ele>
        <time>2019-02-21T10:46:55Z</time>
      </trkpt>
      <trkpt lat="43.69869" lon="3.06086">
        <ele>976.36</ele>
        <time>2019-02-21T10:47:08Z</time>
      </trkpt>
      <trkpt lat="43.69871" lon="3.06088">
        <ele>976.36</ele>
        <time>2019-02-21T10:47:17Z</time>
      </trkpt>
      <trkpt lat="43.69869" lon="3.06085">
        <ele>975.88</ele>
        <time>2019-02-21T10:47:34Z</time>
      </trkpt>
      <trkpt lat="43.69867" lon="3.06085">
        <ele>975.88</ele>
        <time>2019-02-21T10:47:36Z</time>
      </trkpt>
      <trkpt lat="43.69866" lon="3.06082">
        <ele>976.36</ele>
        <time>2019-02-21T10:47:54Z</time>
      </trkpt>
      <trkpt lat="43.69864" lon="3.06081">
        <ele>976.36</ele>
        <time>2019-02-21T10:48:29Z</time>
      </trkpt>
      <trkpt lat="43.69855" lon="3.06081">
        <ele>976.36</ele>
        <time>2019-02-21T10:48:40Z</time>
      </trkpt>
      <trkpt lat="43.69846" lon="3.06082">
        <ele>975.88</ele>
        <time>2019-02-21T10:48:49Z</time>
      </trkpt>
      <trkpt lat="43.69845" lon="3.06082">
        <ele>975.88</ele>
        <time>2019-02-21T10:48:50Z</time>
      </trkpt>
      <trkpt lat="43.69841" lon="3.06083">
        <ele>974.91</ele>
        <time>2019-02-21T10:48:54Z</time>
      </trkpt>
      <trkpt lat="43.69829" lon="3.06088">
        <ele>971.55</ele>
        <time>2019-02-21T10:49:09Z</time>
      </trkpt>
      <trkpt lat="43.69821" lon="3.06091">
        <ele>970.11</ele>
        <time>2019-02-21T10:49:18Z</time>
      </trkpt>
      <trkpt lat="43.69818" lon="3.06092">
        <ele>970.11</ele>
        <time>2019-02-21T10:49:22Z</time>
      </trkpt>
      <trkpt lat="43.69812" lon="3.06092">
        <ele>967.7</ele>
        <time>2019-02-21T10:49:34Z</time>
      </trkpt>
      <trkpt lat="43.69805" lon="3.06091">
        <ele>964.82</ele>
        <time>2019-02-21T10:49:49Z</time>
      </trkpt>
      <trkpt lat="43.69799" lon="3.06091">
        <ele>962.42</ele>
        <time>2019-02-21T10:50:02Z</time>
      </trkpt>
      <trkpt lat="43.69794" lon="3.06089">
        <ele>959.53</ele>
        <time>2019-02-21T10:50:17Z</time>
      </trkpt>
      <trkpt lat="43.69788" lon="3.0609">
        <ele>956.65</ele>
        <time>2019-02-21T10:50:34Z</time>
      </trkpt>
      <trkpt lat="43.69781" lon="3.06091">
        <ele>954.73</ele>
        <time>2019-02-21T10:50:51Z</time>
      </trkpt>
      <trkpt lat="43.69775" lon="3.06093">
        <ele>951.36</ele>
        <time>2019-02-21T10:51:06Z</time>
      </trkpt>
      <trkpt lat="43.69769" lon="3.06096">
        <ele>948.48</ele>
        <time>2019-02-21T10:51:21Z</time>
      </trkpt>
      <trkpt lat="43.69762" lon="3.061">
        <ele>945.11</ele>
        <time>2019-02-21T10:51:36Z</time>
      </trkpt>
      <trkpt lat="43.69757" lon="3.06106">
        <ele>942.71</ele>
        <time>2019-02-21T10:51:51Z</time>
      </trkpt>
      <trkpt lat="43.69755" lon="3.06107">
        <ele>940.79</ele>
        <time>2019-02-21T10:51:58Z</time>
      </trkpt>
      <trkpt lat="43.69752" lon="3.06107">
        <ele>939.35</ele>
        <time>2019-02-21T10:52:10Z</time>
      </trkpt>
      <trkpt lat="43.69745" lon="3.06109">
        <ele>936.46</ele>
        <time>2019-02-21T10:52:22Z</time>
      </trkpt>
      <trkpt lat="43.69738" lon="3.06112">
        <ele>934.54</ele>
        <time>2019-02-21T10:52:36Z</time>
      </trkpt>
      <trkpt lat="43.69731" lon="3.06115">
        <ele>931.65</ele>
        <time>2019-02-21T10:52:48Z</time>
      </trkpt>
      <trkpt lat="43.69724" lon="3.06124">
        <ele>927.81</ele>
        <time>2019-02-21T10:53:04Z</time>
      </trkpt>
      <trkpt lat="43.69716" lon="3.06133">
        <ele>924.45</ele>
        <time>2019-02-21T10:53:19Z</time>
      </trkpt>
      <trkpt lat="43.69712" lon="3.06138">
        <ele>923</ele>
        <time>2019-02-21T10:53:25Z</time>
      </trkpt>
      <trkpt lat="43.69706" lon="3.06145">
        <ele>922.04</ele>
        <time>2019-02-21T10:53:32Z</time>
      </trkpt>
      <trkpt lat="43.69705" lon="3.06146">
        <ele>921.08</ele>
        <time>2019-02-21T10:53:33Z</time>
      </trkpt>
      <trkpt lat="43.69702" lon="3.0615">
        <ele>921.08</ele>
        <time>2019-02-21T10:53:35Z</time>
      </trkpt>
      <trkpt lat="43.69701" lon="3.0615">
        <ele>921.08</ele>
        <time>2019-02-21T10:53:36Z</time>
      </trkpt>
      <trkpt lat="43.69687" lon="3.06163">
        <ele>918.68</ele>
        <time>2019-02-21T10:53:50Z</time>
      </trkpt>
      <trkpt lat="43.69683" lon="3.06168">
        <ele>917.72</ele>
        <time>2019-02-21T10:53:56Z</time>
      </trkpt>
      <trkpt lat="43.69682" lon="3.06169">
        <ele>917.72</ele>
        <time>2019-02-21T10:53:57Z</time>
      </trkpt>
      <trkpt lat="43.6968" lon="3.06169">
        <ele>917.72</ele>
        <time>2019-02-21T10:53:58Z</time>
      </trkpt>
      <trkpt lat="43.69679" lon="3.06171">
        <ele>917.72</ele>
        <time>2019-02-21T10:53:59Z</time>
      </trkpt>
      <trkpt lat="43.69677" lon="3.06172">
        <ele>917.72</ele>
        <time>2019-02-21T10:54:00Z</time>
      </trkpt>
      <trkpt lat="43.69663" lon="3.06184">
        <ele>916.27</ele>
        <time>2019-02-21T10:54:14Z</time>
      </trkpt>
      <trkpt lat="43.69661" lon="3.06184">
        <ele>916.27</ele>
        <time>2019-02-21T10:54:15Z</time>
      </trkpt>
      <trkpt lat="43.6965" lon="3.06192">
        <ele>915.31</ele>
        <time>2019-02-21T10:54:25Z</time>
      </trkpt>
      <trkpt lat="43.69649" lon="3.06193">
        <ele>915.31</ele>
        <time>2019-02-21T10:54:26Z</time>
      </trkpt>
      <trkpt lat="43.69641" lon="3.06196">
        <ele>915.31</ele>
        <time>2019-02-21T10:54:38Z</time>
      </trkpt>
      <trkpt lat="43.6964" lon="3.062">
        <ele>915.31</ele>
        <time>2019-02-21T10:55:03Z</time>
      </trkpt>
      <trkpt lat="43.6964" lon="3.06201">
        <ele>915.31</ele>
        <time>2019-02-21T10:55:04Z</time>
      </trkpt>
      <trkpt lat="43.6964" lon="3.06203">
        <ele>915.31</ele>
        <time>2019-02-21T10:55:05Z</time>
      </trkpt>
      <trkpt lat="43.69641" lon="3.06204">
        <ele>915.31</ele>
        <time>2019-02-21T10:55:06Z</time>
      </trkpt>
      <trkpt lat="43.69643" lon="3.06206">
        <ele>914.83</ele>
        <time>2019-02-21T10:55:10Z</time>
      </trkpt>
      <trkpt lat="43.69645" lon="3.06207">
        <ele>914.83</ele>
        <time>2019-02-21T10:55:11Z</time>
      </trkpt>
      <trkpt lat="43.69646" lon="3.0621">
        <ele>914.83</ele>
        <time>2019-02-21T10:55:15Z</time>
      </trkpt>
      <trkpt lat="43.69648" lon="3.0621">
        <ele>914.35</ele>
        <time>2019-02-21T10:55:28Z</time>
      </trkpt>
      <trkpt lat="43.6965" lon="3.0621">
        <ele>913.87</ele>
        <time>2019-02-21T10:55:29Z</time>
      </trkpt>
      <trkpt lat="43.69652" lon="3.06211">
        <ele>913.87</ele>
        <time>2019-02-21T10:55:32Z</time>
      </trkpt>
      <trkpt lat="43.69653" lon="3.0621">
        <ele>913.87</ele>
        <time>2019-02-21T10:55:48Z</time>
      </trkpt>
      <trkpt lat="43.6965" lon="3.06209">
        <ele>914.35</ele>
        <time>2019-02-21T10:55:52Z</time>
      </trkpt>
      <trkpt lat="43.69649" lon="3.06209">
        <ele>913.87</ele>
        <time>2019-02-21T10:55:53Z</time>
      </trkpt>
      <trkpt lat="43.69643" lon="3.06205">
        <ele>915.31</ele>
        <time>2019-02-21T10:56:00Z</time>
      </trkpt>
      <trkpt lat="43.69642" lon="3.06204">
        <ele>915.31</ele>
        <time>2019-02-21T10:56:01Z</time>
      </trkpt>
      <trkpt lat="43.69641" lon="3.06202">
        <ele>915.31</ele>
        <time>2019-02-21T10:56:02Z</time>
      </trkpt>
      <trkpt lat="43.69636" lon="3.06198">
        <ele>915.79</ele>
        <time>2019-02-21T10:56:10Z</time>
      </trkpt>
      <trkpt lat="43.69627" lon="3.06195">
        <ele>916.75</ele>
        <time>2019-02-21T10:56:21Z</time>
      </trkpt>
      <trkpt lat="43.69626" lon="3.06195">
        <ele>916.75</ele>
        <time>2019-02-21T10:56:22Z</time>
      </trkpt>
      <trkpt lat="43.69625" lon="3.06195">
        <ele>917.24</ele>
        <time>2019-02-21T10:56:23Z</time>
      </trkpt>
      <trkpt lat="43.69624" lon="3.06196">
        <ele>917.24</ele>
        <time>2019-02-21T10:56:24Z</time>
      </trkpt>
      <trkpt lat="43.69623" lon="3.06196">
        <ele>917.24</ele>
        <time>2019-02-21T10:56:25Z</time>
      </trkpt>
      <trkpt lat="43.69613" lon="3.06194">
        <ele>917.24</ele>
        <time>2019-02-21T10:56:36Z</time>
      </trkpt>
      <trkpt lat="43.69604" lon="3.06197">
        <ele>918.68</ele>
        <time>2019-02-21T10:56:46Z</time>
      </trkpt>
      <trkpt lat="43.69596" lon="3.06199">
        <ele>919.16</ele>
        <time>2019-02-21T10:56:54Z</time>
      </trkpt>
      <trkpt lat="43.69589" lon="3.06204">
        <ele>920.12</ele>
        <time>2019-02-21T10:57:02Z</time>
      </trkpt>
      <trkpt lat="43.69582" lon="3.0621">
        <ele>921.08</ele>
        <time>2019-02-21T10:57:10Z</time>
      </trkpt>
      <trkpt lat="43.6958" lon="3.06212">
        <ele>921.56</ele>
        <time>2019-02-21T10:57:13Z</time>
      </trkpt>
      <trkpt lat="43.69579" lon="3.06213">
        <ele>921.56</ele>
        <time>2019-02-21T10:57:14Z</time>
      </trkpt>
      <trkpt lat="43.69572" lon="3.06215">
        <ele>922.52</ele>
        <time>2019-02-21T10:57:22Z</time>
      </trkpt>
      <trkpt lat="43.69568" lon="3.06216">
        <ele>922.52</ele>
        <time>2019-02-21T10:57:28Z</time>
      </trkpt>
      <trkpt lat="43.69566" lon="3.06217">
        <ele>923.48</ele>
        <time>2019-02-21T10:57:29Z</time>
      </trkpt>
      <trkpt lat="43.69558" lon="3.06217">
        <ele>923.96</ele>
        <time>2019-02-21T10:57:39Z</time>
      </trkpt>
      <trkpt lat="43.69549" lon="3.06218">
        <ele>924.93</ele>
        <time>2019-02-21T10:57:48Z</time>
      </trkpt>
      <trkpt lat="43.69547" lon="3.06217">
        <ele>925.41</ele>
        <time>2019-02-21T10:57:49Z</time>
      </trkpt>
      <trkpt lat="43.69545" lon="3.06217">
        <ele>925.41</ele>
        <time>2019-02-21T10:57:52Z</time>
      </trkpt>
      <trkpt lat="43.69543" lon="3.06218">
        <ele>925.89</ele>
        <time>2019-02-21T10:57:53Z</time>
      </trkpt>
      <trkpt lat="43.69535" lon="3.06219">
        <ele>926.37</ele>
        <time>2019-02-21T10:58:02Z</time>
      </trkpt>
      <trkpt lat="43.69524" lon="3.06222">
        <ele>926.85</ele>
        <time>2019-02-21T10:58:11Z</time>
      </trkpt>
      <trkpt lat="43.69523" lon="3.06222">
        <ele>926.85</ele>
        <time>2019-02-21T10:58:12Z</time>
      </trkpt>
      <trkpt lat="43.69522" lon="3.06223">
        <ele>926.85</ele>
        <time>2019-02-21T10:58:13Z</time>
      </trkpt>
      <trkpt lat="43.69514" lon="3.06225">
        <ele>927.33</ele>
        <time>2019-02-21T10:58:20Z</time>
      </trkpt>
      <trkpt lat="43.69513" lon="3.06226">
        <ele>927.81</ele>
        <time>2019-02-21T10:58:21Z</time>
      </trkpt>
      <trkpt lat="43.6951" lon="3.06226">
        <ele>927.81</ele>
        <time>2019-02-21T10:58:24Z</time>
      </trkpt>
      <trkpt lat="43.69509" lon="3.06227">
        <ele>927.81</ele>
        <time>2019-02-21T10:58:25Z</time>
      </trkpt>
      <trkpt lat="43.69501" lon="3.0623">
        <ele>928.77</ele>
        <time>2019-02-21T10:58:33Z</time>
      </trkpt>
      <trkpt lat="43.69493" lon="3.06233">
        <ele>929.25</ele>
        <time>2019-02-21T10:58:41Z</time>
      </trkpt>
      <trkpt lat="43.69491" lon="3.06234">
        <ele>929.25</ele>
        <time>2019-02-21T10:58:42Z</time>
      </trkpt>
      <trkpt lat="43.69485" lon="3.06238">
        <ele>930.21</ele>
        <time>2019-02-21T10:58:49Z</time>
      </trkpt>
      <trkpt lat="43.69477" lon="3.06242">
        <ele>930.69</ele>
        <time>2019-02-21T10:58:57Z</time>
      </trkpt>
      <trkpt lat="43.69469" lon="3.06248">
        <ele>931.17</ele>
        <time>2019-02-21T10:59:05Z</time>
      </trkpt>
      <trkpt lat="43.69461" lon="3.06254">
        <ele>931.65</ele>
        <time>2019-02-21T10:59:13Z</time>
      </trkpt>
      <trkpt lat="43.6946" lon="3.06255">
        <ele>932.14</ele>
        <time>2019-02-21T10:59:15Z</time>
      </trkpt>
      <trkpt lat="43.69458" lon="3.06255">
        <ele>932.14</ele>
        <time>2019-02-21T10:59:16Z</time>
      </trkpt>
      <trkpt lat="43.69456" lon="3.06256">
        <ele>932.14</ele>
        <time>2019-02-21T10:59:19Z</time>
      </trkpt>
      <trkpt lat="43.69454" lon="3.06257">
        <ele>932.62</ele>
        <time>2019-02-21T10:59:20Z</time>
      </trkpt>
      <trkpt lat="43.6945" lon="3.06258">
        <ele>932.62</ele>
        <time>2019-02-21T10:59:24Z</time>
      </trkpt>
      <trkpt lat="43.69449" lon="3.06258">
        <ele>933.1</ele>
        <time>2019-02-21T10:59:25Z</time>
      </trkpt>
      <trkpt lat="43.69443" lon="3.06259">
        <ele>933.1</ele>
        <time>2019-02-21T10:59:32Z</time>
      </trkpt>
      <trkpt lat="43.69441" lon="3.06259">
        <ele>933.58</ele>
        <time>2019-02-21T10:59:33Z</time>
      </trkpt>
      <trkpt lat="43.69438" lon="3.06259">
        <ele>933.58</ele>
        <time>2019-02-21T10:59:37Z</time>
      </trkpt>
      <trkpt lat="43.69431" lon="3.06256">
        <ele>934.06</ele>
        <time>2019-02-21T10:59:45Z</time>
      </trkpt>
      <trkpt lat="43.69427" lon="3.06253">
        <ele>934.54</ele>
        <time>2019-02-21T10:59:50Z</time>
      </trkpt>
      <trkpt lat="43.69419" lon="3.06247">
        <ele>935.5</ele>
        <time>2019-02-21T10:59:59Z</time>
      </trkpt>
      <trkpt lat="43.69415" lon="3.06244">
        <ele>935.5</ele>
        <time>2019-02-21T11:00:03Z</time>
      </trkpt>
      <trkpt lat="43.69414" lon="3.06244">
        <ele>935.98</ele>
        <time>2019-02-21T11:00:04Z</time>
      </trkpt>
      <trkpt lat="43.69406" lon="3.06238">
        <ele>936.46</ele>
        <time>2019-02-21T11:00:13Z</time>
      </trkpt>
      <trkpt lat="43.69402" lon="3.06235">
        <ele>936.46</ele>
        <time>2019-02-21T11:00:17Z</time>
      </trkpt>
      <trkpt lat="43.69401" lon="3.06234">
        <ele>936.46</ele>
        <time>2019-02-21T11:00:18Z</time>
      </trkpt>
      <trkpt lat="43.69399" lon="3.06233">
        <ele>936.46</ele>
        <time>2019-02-21T11:00:19Z</time>
      </trkpt>
      <trkpt lat="43.69397" lon="3.06232">
        <ele>936.94</ele>
        <time>2019-02-21T11:00:22Z</time>
      </trkpt>
      <trkpt lat="43.69395" lon="3.06231">
        <ele>936.94</ele>
        <time>2019-02-21T11:00:23Z</time>
      </trkpt>
      <trkpt lat="43.69387" lon="3.06226">
        <ele>937.42</ele>
        <time>2019-02-21T11:00:31Z</time>
      </trkpt>
      <trkpt lat="43.69386" lon="3.06226">
        <ele>937.42</ele>
        <time>2019-02-21T11:00:32Z</time>
      </trkpt>
      <trkpt lat="43.69384" lon="3.06225">
        <ele>937.42</ele>
        <time>2019-02-21T11:00:33Z</time>
      </trkpt>
      <trkpt lat="43.69377" lon="3.0622">
        <ele>937.9</ele>
        <time>2019-02-21T11:00:42Z</time>
      </trkpt>
      <trkpt lat="43.69369" lon="3.06213">
        <ele>938.86</ele>
        <time>2019-02-21T11:00:51Z</time>
      </trkpt>
      <trkpt lat="43.69369" lon="3.06212">
        <ele>938.86</ele>
        <time>2019-02-21T11:00:52Z</time>
      </trkpt>
      <trkpt lat="43.69368" lon="3.06211">
        <ele>938.86</ele>
        <time>2019-02-21T11:00:53Z</time>
      </trkpt>
      <trkpt lat="43.69363" lon="3.06203">
        <ele>939.83</ele>
        <time>2019-02-21T11:01:01Z</time>
      </trkpt>
      <trkpt lat="43.69356" lon="3.06194">
        <ele>941.27</ele>
        <time>2019-02-21T11:01:10Z</time>
      </trkpt>
      <trkpt lat="43.69355" lon="3.06192">
        <ele>941.27</ele>
        <time>2019-02-21T11:01:12Z</time>
      </trkpt>
      <trkpt lat="43.69353" lon="3.06189">
        <ele>941.27</ele>
        <time>2019-02-21T11:01:15Z</time>
      </trkpt>
      <trkpt lat="43.69352" lon="3.06188">
        <ele>941.75</ele>
        <time>2019-02-21T11:01:16Z</time>
      </trkpt>
      <trkpt lat="43.69346" lon="3.06178">
        <ele>942.23</ele>
        <time>2019-02-21T11:01:25Z</time>
      </trkpt>
      <trkpt lat="43.6934" lon="3.06171">
        <ele>942.71</ele>
        <time>2019-02-21T11:01:33Z</time>
      </trkpt>
      <trkpt lat="43.69339" lon="3.0617">
        <ele>942.71</ele>
        <time>2019-02-21T11:01:34Z</time>
      </trkpt>
      <trkpt lat="43.69333" lon="3.06165">
        <ele>943.67</ele>
        <time>2019-02-21T11:01:43Z</time>
      </trkpt>
      <trkpt lat="43.69329" lon="3.06164">
        <ele>943.67</ele>
        <time>2019-02-21T11:02:02Z</time>
      </trkpt>
      <trkpt lat="43.69327" lon="3.06161">
        <ele>943.67</ele>
        <time>2019-02-21T11:02:10Z</time>
      </trkpt>
      <trkpt lat="43.69326" lon="3.06159">
        <ele>944.15</ele>
        <time>2019-02-21T11:02:13Z</time>
      </trkpt>
      <trkpt lat="43.69326" lon="3.06158">
        <ele>944.15</ele>
        <time>2019-02-21T11:02:14Z</time>
      </trkpt>
      <trkpt lat="43.69325" lon="3.06156">
        <ele>944.15</ele>
        <time>2019-02-21T11:02:15Z</time>
      </trkpt>
      <trkpt lat="43.69324" lon="3.06154">
        <ele>944.63</ele>
        <time>2019-02-21T11:02:18Z</time>
      </trkpt>
      <trkpt lat="43.69323" lon="3.06153">
        <ele>944.63</ele>
        <time>2019-02-21T11:02:19Z</time>
      </trkpt>
      <trkpt lat="43.69317" lon="3.06143">
        <ele>945.59</ele>
        <time>2019-02-21T11:02:28Z</time>
      </trkpt>
      <trkpt lat="43.69313" lon="3.06135">
        <ele>947.04</ele>
        <time>2019-02-21T11:02:36Z</time>
      </trkpt>
      <trkpt lat="43.69309" lon="3.06126">
        <ele>947.52</ele>
        <time>2019-02-21T11:02:45Z</time>
      </trkpt>
      <trkpt lat="43.69309" lon="3.06122">
        <ele>948</ele>
        <time>2019-02-21T11:02:50Z</time>
      </trkpt>
      <trkpt lat="43.69309" lon="3.06119">
        <ele>948</ele>
        <time>2019-02-21T11:02:53Z</time>
      </trkpt>
      <trkpt lat="43.69306" lon="3.06111">
        <ele>948.48</ele>
        <time>2019-02-21T11:03:02Z</time>
      </trkpt>
      <trkpt lat="43.693" lon="3.06105">
        <ele>948.48</ele>
        <time>2019-02-21T11:03:12Z</time>
      </trkpt>
      <trkpt lat="43.69298" lon="3.06101">
        <ele>948.48</ele>
        <time>2019-02-21T11:03:15Z</time>
      </trkpt>
      <trkpt lat="43.69292" lon="3.06094">
        <ele>948.48</ele>
        <time>2019-02-21T11:03:24Z</time>
      </trkpt>
      <trkpt lat="43.6929" lon="3.06091">
        <ele>948.48</ele>
        <time>2019-02-21T11:03:26Z</time>
      </trkpt>
      <trkpt lat="43.69285" lon="3.06087">
        <ele>948.48</ele>
        <time>2019-02-21T11:03:33Z</time>
      </trkpt>
      <trkpt lat="43.69282" lon="3.06086">
        <ele>948.96</ele>
        <time>2019-02-21T11:03:36Z</time>
      </trkpt>
      <trkpt lat="43.69274" lon="3.06087">
        <ele>949.44</ele>
        <time>2019-02-21T11:03:43Z</time>
      </trkpt>
      <trkpt lat="43.69271" lon="3.06088">
        <ele>949.92</ele>
        <time>2019-02-21T11:03:51Z</time>
      </trkpt>
      <trkpt lat="43.69266" lon="3.06088">
        <ele>949.92</ele>
        <time>2019-02-21T11:04:03Z</time>
      </trkpt>
      <trkpt lat="43.69266" lon="3.0609">
        <ele>949.92</ele>
        <time>2019-02-21T11:04:34Z</time>
      </trkpt>
      <trkpt lat="43.69265" lon="3.06091">
        <ele>949.92</ele>
        <time>2019-02-21T11:04:54Z</time>
      </trkpt>
      <trkpt lat="43.69264" lon="3.06091">
        <ele>949.92</ele>
        <time>2019-02-21T11:05:22Z</time>
      </trkpt>
      <trkpt lat="43.69264" lon="3.06091">
        <ele>949.92</ele>
        <time>2019-02-21T11:05:50Z</time>
      </trkpt>
      <trkpt lat="43.69262" lon="3.06092">
        <ele>949.92</ele>
        <time>2019-02-21T11:06:04Z</time>
      </trkpt>
      <trkpt lat="43.6926" lon="3.06093">
        <ele>949.92</ele>
        <time>2019-02-21T11:06:35Z</time>
      </trkpt>
      <trkpt lat="43.6926" lon="3.06094">
        <ele>949.92</ele>
        <time>2019-02-21T11:06:51Z</time>
      </trkpt>
      <trkpt lat="43.6926" lon="3.06093">
        <ele>949.92</ele>
        <time>2019-02-21T11:07:11Z</time>
      </trkpt>
      <trkpt lat="43.69263" lon="3.06092">
        <ele>949.92</ele>
        <time>2019-02-21T11:07:25Z</time>
      </trkpt>
      <trkpt lat="43.69264" lon="3.06094">
        <ele>949.92</ele>
        <time>2019-02-21T11:07:36Z</time>
      </trkpt>
      <trkpt lat="43.69267" lon="3.06095">
        <ele>949.92</ele>
        <time>2019-02-21T11:07:52Z</time>
      </trkpt>
      <trkpt lat="43.69268" lon="3.06092">
        <ele>948.48</ele>
        <time>2019-02-21T11:07:57Z</time>
      </trkpt>
      <trkpt lat="43.69268" lon="3.06092">
        <ele>949.92</ele>
        <time>2019-02-21T11:07:59Z</time>
      </trkpt>
      <trkpt lat="43.69264" lon="3.0609">
        <ele>949.92</ele>
        <time>2019-02-21T11:08:21Z</time>
      </trkpt>
      <trkpt lat="43.69265" lon="3.06093">
        <ele>948.96</ele>
        <time>2019-02-21T11:08:38Z</time>
      </trkpt>
      <trkpt lat="43.69264" lon="3.06092">
        <ele>949.92</ele>
        <time>2019-02-21T11:08:49Z</time>
      </trkpt>
      <trkpt lat="43.69262" lon="3.06091">
        <ele>949.92</ele>
        <time>2019-02-21T11:09:03Z</time>
      </trkpt>
      <trkpt lat="43.69261" lon="3.06092">
        <ele>948.96</ele>
        <time>2019-02-21T11:09:11Z</time>
      </trkpt>
      <trkpt lat="43.6926" lon="3.06092">
        <ele>948.96</ele>
        <time>2019-02-21T11:09:42Z</time>
      </trkpt>
      <trkpt lat="43.6926" lon="3.06092">
        <ele>948.96</ele>
        <time>2019-02-21T11:10:13Z</time>
      </trkpt>
      <trkpt lat="43.6926" lon="3.0609">
        <ele>949.44</ele>
        <time>2019-02-21T11:10:52Z</time>
      </trkpt>
      <trkpt lat="43.6926" lon="3.06089">
        <ele>949.44</ele>
        <time>2019-02-21T11:11:27Z</time>
      </trkpt>
      <trkpt lat="43.69261" lon="3.0609">
        <ele>949.44</ele>
        <time>2019-02-21T11:12:03Z</time>
      </trkpt>
      <trkpt lat="43.69259" lon="3.06091">
        <ele>949.44</ele>
        <time>2019-02-21T11:12:41Z</time>
      </trkpt>
      <trkpt lat="43.69259" lon="3.06091">
        <ele>949.44</ele>
        <time>2019-02-21T11:13:25Z</time>
      </trkpt>
      <trkpt lat="43.69258" lon="3.06091">
        <ele>949.44</ele>
        <time>2019-02-21T11:14:03Z</time>
      </trkpt>
      <trkpt lat="43.69257" lon="3.06095">
        <ele>949.92</ele>
        <time>2019-02-21T11:14:36Z</time>
      </trkpt>
      <trkpt lat="43.6926" lon="3.06091">
        <ele>949.92</ele>
        <time>2019-02-21T11:15:14Z</time>
      </trkpt>
      <trkpt lat="43.69259" lon="3.06092">
        <ele>949.92</ele>
        <time>2019-02-21T11:15:48Z</time>
      </trkpt>
      <trkpt lat="43.69259" lon="3.06092">
        <ele>949.92</ele>
        <time>2019-02-21T11:16:22Z</time>
      </trkpt>
      <trkpt lat="43.69259" lon="3.06089">
        <ele>949.92</ele>
        <time>2019-02-21T11:17:04Z</time>
      </trkpt>
      <trkpt lat="43.6926" lon="3.0609">
        <ele>950.4</ele>
        <time>2019-02-21T11:17:39Z</time>
      </trkpt>
      <trkpt lat="43.69259" lon="3.06092">
        <ele>950.4</ele>
        <time>2019-02-21T11:18:12Z</time>
      </trkpt>
      <trkpt lat="43.69259" lon="3.06093">
        <ele>951.36</ele>
        <time>2019-02-21T11:18:45Z</time>
      </trkpt>
      <trkpt lat="43.6926" lon="3.06093">
        <ele>951.36</ele>
        <time>2019-02-21T11:19:14Z</time>
      </trkpt>
      <trkpt lat="43.69262" lon="3.06094">
        <ele>951.36</ele>
        <time>2019-02-21T11:19:49Z</time>
      </trkpt>
      <trkpt lat="43.69262" lon="3.06094">
        <ele>951.36</ele>
        <time>2019-02-21T11:20:20Z</time>
      </trkpt>
      <trkpt lat="43.69262" lon="3.06093">
        <ele>951.36</ele>
        <time>2019-02-21T11:21:03Z</time>
      </trkpt>
      <trkpt lat="43.69261" lon="3.06092">
        <ele>951.36</ele>
        <time>2019-02-21T11:21:42Z</time>
      </trkpt>
      <trkpt lat="43.69261" lon="3.06093">
        <ele>951.36</ele>
        <time>2019-02-21T11:22:23Z</time>
      </trkpt>
      <trkpt lat="43.69261" lon="3.06091">
        <ele>951.36</ele>
        <time>2019-02-21T11:23:01Z</time>
      </trkpt>
      <trkpt lat="43.6926" lon="3.06091">
        <ele>951.36</ele>
        <time>2019-02-21T11:23:35Z</time>
      </trkpt>
      <trkpt lat="43.6926" lon="3.06092">
        <ele>951.36</ele>
        <time>2019-02-21T11:24:23Z</time>
      </trkpt>
      <trkpt lat="43.69259" lon="3.06092">
        <ele>951.36</ele>
        <time>2019-02-21T11:25:11Z</time>
      </trkpt>
      <trkpt lat="43.6926" lon="3.06092">
        <ele>951.36</ele>
        <time>2019-02-21T11:25:56Z</time>
      </trkpt>
      <trkpt lat="43.6926" lon="3.06091">
        <ele>951.36</ele>
        <time>2019-02-21T11:26:38Z</time>
      </trkpt>
      <trkpt lat="43.6926" lon="3.06092">
        <ele>951.36</ele>
        <time>2019-02-21T11:27:24Z</time>
      </trkpt>
      <trkpt lat="43.69259" lon="3.06093">
        <ele>951.36</ele>
        <time>2019-02-21T11:28:02Z</time>
      </trkpt>
      <trkpt lat="43.6926" lon="3.06093">
        <ele>951.36</ele>
        <time>2019-02-21T11:28:44Z</time>
      </trkpt>
      <trkpt lat="43.69261" lon="3.06092">
        <ele>951.36</ele>
        <time>2019-02-21T11:29:15Z</time>
      </trkpt>
      <trkpt lat="43.6926" lon="3.06093">
        <ele>949.92</ele>
        <time>2019-02-21T11:29:54Z</time>
      </trkpt>
      <trkpt lat="43.6926" lon="3.06095">
        <ele>949.92</ele>
        <time>2019-02-21T11:30:26Z</time>
      </trkpt>
      <trkpt lat="43.69261" lon="3.06095">
        <ele>949.92</ele>
        <time>2019-02-21T11:30:48Z</time>
      </trkpt>
      <trkpt lat="43.69261" lon="3.06094">
        <ele>949.92</ele>
        <time>2019-02-21T11:31:16Z</time>
      </trkpt>
      <trkpt lat="43.69261" lon="3.06094">
        <ele>950.4</ele>
        <time>2019-02-21T11:31:53Z</time>
      </trkpt>
      <trkpt lat="43.69262" lon="3.06096">
        <ele>950.4</ele>
        <time>2019-02-21T11:32:32Z</time>
      </trkpt>
      <trkpt lat="43.69261" lon="3.06095">
        <ele>950.4</ele>
        <time>2019-02-21T11:33:10Z</time>
      </trkpt>
      <trkpt lat="43.69262" lon="3.06096">
        <ele>949.44</ele>
        <time>2019-02-21T11:33:44Z</time>
      </trkpt>
      <trkpt lat="43.69262" lon="3.06095">
        <ele>949.44</ele>
        <time>2019-02-21T11:34:20Z</time>
      </trkpt>
      <trkpt lat="43.69261" lon="3.06095">
        <ele>949.44</ele>
        <time>2019-02-21T11:35:04Z</time>
      </trkpt>
      <trkpt lat="43.69263" lon="3.06096">
        <ele>949.44</ele>
        <time>2019-02-21T11:35:36Z</time>
      </trkpt>
      <trkpt lat="43.69262" lon="3.06093">
        <ele>949.44</ele>
        <time>2019-02-21T11:36:17Z</time>
      </trkpt>
      <trkpt lat="43.6926" lon="3.06092">
        <ele>951.36</ele>
        <time>2019-02-21T11:36:50Z</time>
      </trkpt>
      <trkpt lat="43.69259" lon="3.06092">
        <ele>950.4</ele>
        <time>2019-02-21T11:36:52Z</time>
      </trkpt>
      <trkpt lat="43.6926" lon="3.06092">
        <ele>949.92</ele>
        <time>2019-02-21T11:37:30Z</time>
      </trkpt>
      <trkpt lat="43.69261" lon="3.06093">
        <ele>949.92</ele>
        <time>2019-02-21T11:38:04Z</time>
      </trkpt>
      <trkpt lat="43.69261" lon="3.06092">
        <ele>949.92</ele>
        <time>2019-02-21T11:38:45Z</time>
      </trkpt>
      <trkpt lat="43.6926" lon="3.06094">
        <ele>949.92</ele>
        <time>2019-02-21T11:39:25Z</time>
      </trkpt>
      <trkpt lat="43.6926" lon="3.06093">
        <ele>951.36</ele>
        <time>2019-02-21T11:39:46Z</time>
      </trkpt>
      <trkpt lat="43.69262" lon="3.06092">
        <ele>951.36</ele>
        <time>2019-02-21T11:40:05Z</time>
      </trkpt>
      <trkpt lat="43.69262" lon="3.0609">
        <ele>951.36</ele>
        <time>2019-02-21T11:40:22Z</time>
      </trkpt>
      <trkpt lat="43.69261" lon="3.0609">
        <ele>951.36</ele>
        <time>2019-02-21T11:40:53Z</time>
      </trkpt>
      <trkpt lat="43.6926" lon="3.06091">
        <ele>951.36</ele>
        <time>2019-02-21T11:41:23Z</time>
      </trkpt>
      <trkpt lat="43.69263" lon="3.06093">
        <ele>951.36</ele>
        <time>2019-02-21T11:41:44Z</time>
      </trkpt>
      <trkpt lat="43.69263" lon="3.06094">
        <ele>950.88</ele>
        <time>2019-02-21T11:42:02Z</time>
      </trkpt>
      <trkpt lat="43.69263" lon="3.06092">
        <ele>950.88</ele>
        <time>2019-02-21T11:42:33Z</time>
      </trkpt>
      <trkpt lat="43.69264" lon="3.06093">
        <ele>950.88</ele>
        <time>2019-02-21T11:42:57Z</time>
      </trkpt>
      <trkpt lat="43.69261" lon="3.06093">
        <ele>950.88</ele>
        <time>2019-02-21T11:43:25Z</time>
      </trkpt>
      <trkpt lat="43.69259" lon="3.06095">
        <ele>950.88</ele>
        <time>2019-02-21T11:43:49Z</time>
      </trkpt>
      <trkpt lat="43.69263" lon="3.06092">
        <ele>950.88</ele>
        <time>2019-02-21T11:44:15Z</time>
      </trkpt>
      <trkpt lat="43.69265" lon="3.06091">
        <ele>950.88</ele>
        <time>2019-02-21T11:44:17Z</time>
      </trkpt>
      <trkpt lat="43.69268" lon="3.06089">
        <ele>950.88</ele>
        <time>2019-02-21T11:44:20Z</time>
      </trkpt>
      <trkpt lat="43.69275" lon="3.06086">
        <ele>950.88</ele>
        <time>2019-02-21T11:44:26Z</time>
      </trkpt>
      <trkpt lat="43.69278" lon="3.06086">
        <ele>949.44</ele>
        <time>2019-02-21T11:44:29Z</time>
      </trkpt>
      <trkpt lat="43.69286" lon="3.06083">
        <ele>948</ele>
        <time>2019-02-21T11:44:40Z</time>
      </trkpt>
      <trkpt lat="43.69291" lon="3.06073">
        <ele>945.59</ele>
        <time>2019-02-21T11:44:50Z</time>
      </trkpt>
      <trkpt lat="43.69296" lon="3.06071">
        <ele>945.11</ele>
        <time>2019-02-21T11:45:06Z</time>
      </trkpt>
      <trkpt lat="43.69295" lon="3.06075">
        <ele>945.11</ele>
        <time>2019-02-21T11:45:52Z</time>
      </trkpt>
      <trkpt lat="43.69292" lon="3.06072">
        <ele>945.11</ele>
        <time>2019-02-21T11:46:08Z</time>
      </trkpt>
      <trkpt lat="43.6929" lon="3.06074">
        <ele>945.11</ele>
        <time>2019-02-21T11:46:11Z</time>
      </trkpt>
      <trkpt lat="43.6929" lon="3.06072">
        <ele>945.11</ele>
        <time>2019-02-21T11:46:28Z</time>
      </trkpt>
      <trkpt lat="43.69288" lon="3.06076">
        <ele>946.56</ele>
        <time>2019-02-21T11:46:44Z</time>
      </trkpt>
      <trkpt lat="43.69288" lon="3.06077">
        <ele>946.56</ele>
        <time>2019-02-21T11:46:45Z</time>
      </trkpt>
      <trkpt lat="43.69287" lon="3.0608">
        <ele>947.04</ele>
        <time>2019-02-21T11:46:47Z</time>
      </trkpt>
      <trkpt lat="43.69285" lon="3.06086">
        <ele>948.48</ele>
        <time>2019-02-21T11:46:55Z</time>
      </trkpt>
      <trkpt lat="43.69283" lon="3.06088">
        <ele>948.96</ele>
        <time>2019-02-21T11:46:58Z</time>
      </trkpt>
      <trkpt lat="43.6928" lon="3.06087">
        <ele>949.44</ele>
        <time>2019-02-21T11:47:03Z</time>
      </trkpt>
      <trkpt lat="43.69276" lon="3.06087">
        <ele>949.92</ele>
        <time>2019-02-21T11:47:08Z</time>
      </trkpt>
      <trkpt lat="43.69273" lon="3.06088">
        <ele>949.92</ele>
        <time>2019-02-21T11:47:11Z</time>
      </trkpt>
      <trkpt lat="43.69271" lon="3.06088">
        <ele>950.4</ele>
        <time>2019-02-21T11:47:15Z</time>
      </trkpt>
      <trkpt lat="43.69263" lon="3.06088">
        <ele>950.88</ele>
        <time>2019-02-21T11:47:27Z</time>
      </trkpt>
      <trkpt lat="43.69263" lon="3.06089">
        <ele>950.4</ele>
        <time>2019-02-21T11:47:46Z</time>
      </trkpt>
      <trkpt lat="43.69262" lon="3.06088">
        <ele>950.4</ele>
        <time>2019-02-21T11:48:21Z</time>
      </trkpt>
      <trkpt lat="43.69263" lon="3.06089">
        <ele>950.4</ele>
        <time>2019-02-21T11:48:54Z</time>
      </trkpt>
      <trkpt lat="43.69263" lon="3.06091">
        <ele>951.36</ele>
        <time>2019-02-21T11:49:27Z</time>
      </trkpt>
      <trkpt lat="43.69263" lon="3.0609">
        <ele>951.84</ele>
        <time>2019-02-21T11:49:44Z</time>
      </trkpt>
      <trkpt lat="43.6926" lon="3.06089">
        <ele>951.84</ele>
        <time>2019-02-21T11:50:05Z</time>
      </trkpt>
      <trkpt lat="43.69262" lon="3.06091">
        <ele>951.84</ele>
        <time>2019-02-21T11:50:21Z</time>
      </trkpt>
      <trkpt lat="43.69263" lon="3.06092">
        <ele>951.84</ele>
        <time>2019-02-21T11:50:38Z</time>
      </trkpt>
      <trkpt lat="43.69263" lon="3.06091">
        <ele>951.84</ele>
        <time>2019-02-21T11:50:49Z</time>
      </trkpt>
      <trkpt lat="43.69261" lon="3.0609">
        <ele>951.84</ele>
        <time>2019-02-21T11:51:10Z</time>
      </trkpt>
      <trkpt lat="43.69262" lon="3.0609">
        <ele>951.84</ele>
        <time>2019-02-21T11:51:33Z</time>
      </trkpt>
      <trkpt lat="43.69262" lon="3.06093">
        <ele>951.84</ele>
        <time>2019-02-21T11:51:53Z</time>
      </trkpt>
      <trkpt lat="43.69261" lon="3.06094">
        <ele>951.84</ele>
        <time>2019-02-21T11:52:11Z</time>
      </trkpt>
      <trkpt lat="43.69262" lon="3.06094">
        <ele>951.84</ele>
        <time>2019-02-21T11:52:23Z</time>
      </trkpt>
      <trkpt lat="43.69261" lon="3.06093">
        <ele>951.84</ele>
        <time>2019-02-21T11:52:38Z</time>
      </trkpt>
      <trkpt lat="43.6926" lon="3.06095">
        <ele>948</ele>
        <time>2019-02-21T11:52:45Z</time>
      </trkpt>
      <trkpt lat="43.69261" lon="3.06096">
        <ele>950.88</ele>
        <time>2019-02-21T11:53:07Z</time>
      </trkpt>
      <trkpt lat="43.69263" lon="3.06094">
        <ele>950.88</ele>
        <time>2019-02-21T11:53:23Z</time>
      </trkpt>
      <trkpt lat="43.69265" lon="3.06092">
        <ele>950.88</ele>
        <time>2019-02-21T11:53:35Z</time>
      </trkpt>
      <trkpt lat="43.69267" lon="3.06092">
        <ele>950.88</ele>
        <time>2019-02-21T11:53:52Z</time>
      </trkpt>
      <trkpt lat="43.69267" lon="3.06091">
        <ele>950.88</ele>
        <time>2019-02-21T11:54:18Z</time>
      </trkpt>
      <trkpt lat="43.69268" lon="3.0609">
        <ele>950.88</ele>
        <time>2019-02-21T11:54:34Z</time>
      </trkpt>
      <trkpt lat="43.69269" lon="3.0609">
        <ele>950.4</ele>
        <time>2019-02-21T11:55:07Z</time>
      </trkpt>
      <trkpt lat="43.6927" lon="3.06091">
        <ele>950.4</ele>
        <time>2019-02-21T11:55:26Z</time>
      </trkpt>
      <trkpt lat="43.69269" lon="3.06092">
        <ele>950.4</ele>
        <time>2019-02-21T11:55:38Z</time>
      </trkpt>
      <trkpt lat="43.69268" lon="3.06094">
        <ele>950.4</ele>
        <time>2019-02-21T11:56:03Z</time>
      </trkpt>
      <trkpt lat="43.6927" lon="3.06092">
        <ele>950.4</ele>
        <time>2019-02-21T11:56:07Z</time>
      </trkpt>
      <trkpt lat="43.69272" lon="3.06089">
        <ele>950.4</ele>
        <time>2019-02-21T11:56:09Z</time>
      </trkpt>
      <trkpt lat="43.69274" lon="3.06088">
        <ele>949.44</ele>
        <time>2019-02-21T11:56:10Z</time>
      </trkpt>
      <trkpt lat="43.69278" lon="3.0609">
        <ele>949.44</ele>
        <time>2019-02-21T11:56:16Z</time>
      </trkpt>
      <trkpt lat="43.6928" lon="3.06092">
        <ele>948.96</ele>
        <time>2019-02-21T11:56:18Z</time>
      </trkpt>
      <trkpt lat="43.69282" lon="3.06094">
        <ele>948.96</ele>
        <time>2019-02-21T11:56:19Z</time>
      </trkpt>
      <trkpt lat="43.6929" lon="3.06102">
        <ele>948.96</ele>
        <time>2019-02-21T11:56:27Z</time>
      </trkpt>
      <trkpt lat="43.69291" lon="3.06104">
        <ele>948.96</ele>
        <time>2019-02-21T11:56:28Z</time>
      </trkpt>
      <trkpt lat="43.69291" lon="3.06107">
        <ele>948.96</ele>
        <time>2019-02-21T11:56:29Z</time>
      </trkpt>
      <trkpt lat="43.69292" lon="3.06115">
        <ele>948.96</ele>
        <time>2019-02-21T11:56:34Z</time>
      </trkpt>
      <trkpt lat="43.69293" lon="3.06117">
        <ele>948.96</ele>
        <time>2019-02-21T11:56:35Z</time>
      </trkpt>
      <trkpt lat="43.69296" lon="3.06126">
        <ele>949.92</ele>
        <time>2019-02-21T11:56:39Z</time>
      </trkpt>
      <trkpt lat="43.69303" lon="3.06135">
        <ele>948</ele>
        <time>2019-02-21T11:56:49Z</time>
      </trkpt>
      <trkpt lat="43.69305" lon="3.06138">
        <ele>948</ele>
        <time>2019-02-21T11:56:52Z</time>
      </trkpt>
      <trkpt lat="43.69308" lon="3.06141">
        <ele>947.52</ele>
        <time>2019-02-21T11:56:56Z</time>
      </trkpt>
      <trkpt lat="43.6931" lon="3.06142">
        <ele>947.04</ele>
        <time>2019-02-21T11:56:57Z</time>
      </trkpt>
      <trkpt lat="43.69311" lon="3.06144">
        <ele>947.04</ele>
        <time>2019-02-21T11:56:58Z</time>
      </trkpt>
      <trkpt lat="43.69314" lon="3.06146">
        <ele>947.04</ele>
        <time>2019-02-21T11:57:01Z</time>
      </trkpt>
      <trkpt lat="43.69315" lon="3.06147">
        <ele>946.56</ele>
        <time>2019-02-21T11:57:02Z</time>
      </trkpt>
      <trkpt lat="43.69316" lon="3.06148">
        <ele>946.07</ele>
        <time>2019-02-21T11:57:03Z</time>
      </trkpt>
      <trkpt lat="43.69324" lon="3.0616">
        <ele>945.11</ele>
        <time>2019-02-21T11:57:12Z</time>
      </trkpt>
      <trkpt lat="43.69325" lon="3.06162">
        <ele>945.11</ele>
        <time>2019-02-21T11:57:13Z</time>
      </trkpt>
      <trkpt lat="43.69326" lon="3.06163">
        <ele>945.11</ele>
        <time>2019-02-21T11:57:14Z</time>
      </trkpt>
      <trkpt lat="43.69327" lon="3.06164">
        <ele>945.11</ele>
        <time>2019-02-21T11:57:15Z</time>
      </trkpt>
      <trkpt lat="43.69329" lon="3.06165">
        <ele>945.11</ele>
        <time>2019-02-21T11:57:16Z</time>
      </trkpt>
      <trkpt lat="43.69337" lon="3.06175">
        <ele>943.67</ele>
        <time>2019-02-21T11:57:26Z</time>
      </trkpt>
      <trkpt lat="43.69338" lon="3.06176">
        <ele>943.67</ele>
        <time>2019-02-21T11:57:27Z</time>
      </trkpt>
      <trkpt lat="43.69339" lon="3.06177">
        <ele>943.19</ele>
        <time>2019-02-21T11:57:28Z</time>
      </trkpt>
      <trkpt lat="43.69339" lon="3.06178">
        <ele>943.19</ele>
        <time>2019-02-21T11:57:29Z</time>
      </trkpt>
      <trkpt lat="43.6934" lon="3.0618">
        <ele>943.19</ele>
        <time>2019-02-21T11:57:30Z</time>
      </trkpt>
      <trkpt lat="43.69341" lon="3.06181">
        <ele>943.19</ele>
        <time>2019-02-21T11:57:31Z</time>
      </trkpt>
      <trkpt lat="43.6935" lon="3.06193">
        <ele>942.23</ele>
        <time>2019-02-21T11:57:42Z</time>
      </trkpt>
      <trkpt lat="43.69355" lon="3.06202">
        <ele>941.75</ele>
        <time>2019-02-21T11:57:49Z</time>
      </trkpt>
      <trkpt lat="43.69356" lon="3.06203">
        <ele>940.79</ele>
        <time>2019-02-21T11:57:50Z</time>
      </trkpt>
      <trkpt lat="43.69357" lon="3.06205">
        <ele>940.79</ele>
        <time>2019-02-21T11:57:51Z</time>
      </trkpt>
      <trkpt lat="43.69358" lon="3.06206">
        <ele>940.79</ele>
        <time>2019-02-21T11:57:52Z</time>
      </trkpt>
      <trkpt lat="43.69359" lon="3.06208">
        <ele>940.79</ele>
        <time>2019-02-21T11:57:53Z</time>
      </trkpt>
      <trkpt lat="43.69361" lon="3.06209">
        <ele>940.31</ele>
        <time>2019-02-21T11:57:56Z</time>
      </trkpt>
      <trkpt lat="43.69361" lon="3.0621">
        <ele>940.31</ele>
        <time>2019-02-21T11:57:57Z</time>
      </trkpt>
      <trkpt lat="43.69362" lon="3.06212">
        <ele>940.31</ele>
        <time>2019-02-21T11:57:58Z</time>
      </trkpt>
      <trkpt lat="43.69363" lon="3.06213">
        <ele>940.31</ele>
        <time>2019-02-21T11:57:59Z</time>
      </trkpt>
      <trkpt lat="43.69365" lon="3.06216">
        <ele>939.83</ele>
        <time>2019-02-21T11:58:02Z</time>
      </trkpt>
      <trkpt lat="43.69368" lon="3.06217">
        <ele>939.35</ele>
        <time>2019-02-21T11:58:04Z</time>
      </trkpt>
      <trkpt lat="43.69376" lon="3.06223">
        <ele>938.86</ele>
        <time>2019-02-21T11:58:13Z</time>
      </trkpt>
      <trkpt lat="43.69377" lon="3.06224">
        <ele>938.86</ele>
        <time>2019-02-21T11:58:14Z</time>
      </trkpt>
      <trkpt lat="43.69379" lon="3.06225">
        <ele>938.38</ele>
        <time>2019-02-21T11:58:15Z</time>
      </trkpt>
      <trkpt lat="43.6938" lon="3.06227">
        <ele>938.38</ele>
        <time>2019-02-21T11:58:16Z</time>
      </trkpt>
      <trkpt lat="43.69381" lon="3.06227">
        <ele>938.38</ele>
        <time>2019-02-21T11:58:17Z</time>
      </trkpt>
      <trkpt lat="43.69385" lon="3.06229">
        <ele>937.42</ele>
        <time>2019-02-21T11:58:21Z</time>
      </trkpt>
      <trkpt lat="43.69386" lon="3.0623">
        <ele>937.42</ele>
        <time>2019-02-21T11:58:22Z</time>
      </trkpt>
      <trkpt lat="43.69388" lon="3.06231">
        <ele>937.42</ele>
        <time>2019-02-21T11:58:23Z</time>
      </trkpt>
      <trkpt lat="43.6939" lon="3.06232">
        <ele>937.42</ele>
        <time>2019-02-21T11:58:26Z</time>
      </trkpt>
      <trkpt lat="43.69393" lon="3.06233">
        <ele>937.42</ele>
        <time>2019-02-21T11:58:28Z</time>
      </trkpt>
      <trkpt lat="43.69394" lon="3.06233">
        <ele>937.42</ele>
        <time>2019-02-21T11:58:29Z</time>
      </trkpt>
      <trkpt lat="43.69398" lon="3.06236">
        <ele>937.42</ele>
        <time>2019-02-21T11:58:35Z</time>
      </trkpt>
      <trkpt lat="43.69399" lon="3.06237">
        <ele>936.94</ele>
        <time>2019-02-21T11:58:36Z</time>
      </trkpt>
      <trkpt lat="43.69401" lon="3.06238">
        <ele>936.94</ele>
        <time>2019-02-21T11:58:37Z</time>
      </trkpt>
      <trkpt lat="43.69406" lon="3.0624">
        <ele>936.46</ele>
        <time>2019-02-21T11:58:42Z</time>
      </trkpt>
      <trkpt lat="43.69407" lon="3.06241">
        <ele>936.46</ele>
        <time>2019-02-21T11:58:43Z</time>
      </trkpt>
      <trkpt lat="43.69418" lon="3.06249">
        <ele>935.98</ele>
        <time>2019-02-21T11:58:54Z</time>
      </trkpt>
      <trkpt lat="43.69431" lon="3.06261">
        <ele>935.02</ele>
        <time>2019-02-21T11:59:06Z</time>
      </trkpt>
      <trkpt lat="43.69432" lon="3.06262">
        <ele>934.54</ele>
        <time>2019-02-21T11:59:08Z</time>
      </trkpt>
      <trkpt lat="43.69433" lon="3.06263">
        <ele>934.54</ele>
        <time>2019-02-21T11:59:09Z</time>
      </trkpt>
      <trkpt lat="43.69434" lon="3.06263">
        <ele>934.54</ele>
        <time>2019-02-21T11:59:10Z</time>
      </trkpt>
      <trkpt lat="43.69436" lon="3.06264">
        <ele>934.54</ele>
        <time>2019-02-21T11:59:11Z</time>
      </trkpt>
      <trkpt lat="43.69437" lon="3.06265">
        <ele>934.54</ele>
        <time>2019-02-21T11:59:12Z</time>
      </trkpt>
      <trkpt lat="43.69445" lon="3.06265">
        <ele>934.06</ele>
        <time>2019-02-21T11:59:20Z</time>
      </trkpt>
      <trkpt lat="43.69446" lon="3.06265">
        <ele>934.06</ele>
        <time>2019-02-21T11:59:21Z</time>
      </trkpt>
      <trkpt lat="43.69448" lon="3.06264">
        <ele>933.58</ele>
        <time>2019-02-21T11:59:22Z</time>
      </trkpt>
      <trkpt lat="43.69458" lon="3.06262">
        <ele>933.1</ele>
        <time>2019-02-21T11:59:33Z</time>
      </trkpt>
      <trkpt lat="43.69459" lon="3.06262">
        <ele>933.1</ele>
        <time>2019-02-21T11:59:34Z</time>
      </trkpt>
      <trkpt lat="43.69462" lon="3.0626">
        <ele>932.62</ele>
        <time>2019-02-21T11:59:49Z</time>
      </trkpt>
      <trkpt lat="43.69475" lon="3.06252">
        <ele>931.65</ele>
        <time>2019-02-21T12:00:00Z</time>
      </trkpt>
      <trkpt lat="43.69476" lon="3.06251">
        <ele>931.65</ele>
        <time>2019-02-21T12:00:01Z</time>
      </trkpt>
      <trkpt lat="43.69477" lon="3.06251">
        <ele>930.69</ele>
        <time>2019-02-21T12:00:02Z</time>
      </trkpt>
      <trkpt lat="43.69478" lon="3.0625">
        <ele>930.69</ele>
        <time>2019-02-21T12:00:03Z</time>
      </trkpt>
      <trkpt lat="43.69479" lon="3.06249">
        <ele>930.69</ele>
        <time>2019-02-21T12:00:04Z</time>
      </trkpt>
      <trkpt lat="43.69481" lon="3.06248">
        <ele>930.69</ele>
        <time>2019-02-21T12:00:05Z</time>
      </trkpt>
      <trkpt lat="43.69483" lon="3.06247">
        <ele>930.69</ele>
        <time>2019-02-21T12:00:08Z</time>
      </trkpt>
      <trkpt lat="43.69484" lon="3.06246">
        <ele>930.69</ele>
        <time>2019-02-21T12:00:09Z</time>
      </trkpt>
      <trkpt lat="43.69485" lon="3.06245">
        <ele>930.21</ele>
        <time>2019-02-21T12:00:10Z</time>
      </trkpt>
      <trkpt lat="43.69492" lon="3.06241">
        <ele>930.21</ele>
        <time>2019-02-21T12:00:16Z</time>
      </trkpt>
      <trkpt lat="43.69494" lon="3.06241">
        <ele>930.21</ele>
        <time>2019-02-21T12:00:17Z</time>
      </trkpt>
      <trkpt lat="43.69495" lon="3.0624">
        <ele>929.73</ele>
        <time>2019-02-21T12:00:18Z</time>
      </trkpt>
      <trkpt lat="43.69501" lon="3.06237">
        <ele>929.73</ele>
        <time>2019-02-21T12:00:23Z</time>
      </trkpt>
      <trkpt lat="43.69502" lon="3.06236">
        <ele>929.25</ele>
        <time>2019-02-21T12:00:24Z</time>
      </trkpt>
      <trkpt lat="43.69504" lon="3.06235">
        <ele>929.25</ele>
        <time>2019-02-21T12:00:25Z</time>
      </trkpt>
      <trkpt lat="43.69516" lon="3.06231">
        <ele>927.33</ele>
        <time>2019-02-21T12:00:36Z</time>
      </trkpt>
      <trkpt lat="43.69531" lon="3.06225">
        <ele>926.85</ele>
        <time>2019-02-21T12:00:47Z</time>
      </trkpt>
      <trkpt lat="43.69543" lon="3.06223">
        <ele>925.41</ele>
        <time>2019-02-21T12:00:58Z</time>
      </trkpt>
      <trkpt lat="43.69551" lon="3.06222">
        <ele>924.93</ele>
        <time>2019-02-21T12:01:05Z</time>
      </trkpt>
      <trkpt lat="43.69553" lon="3.06222">
        <ele>924.93</ele>
        <time>2019-02-21T12:01:06Z</time>
      </trkpt>
      <trkpt lat="43.69554" lon="3.06222">
        <ele>924.93</ele>
        <time>2019-02-21T12:01:07Z</time>
      </trkpt>
      <trkpt lat="43.69556" lon="3.06222">
        <ele>924.45</ele>
        <time>2019-02-21T12:01:08Z</time>
      </trkpt>
      <trkpt lat="43.69557" lon="3.06222">
        <ele>924.45</ele>
        <time>2019-02-21T12:01:09Z</time>
      </trkpt>
      <trkpt lat="43.69567" lon="3.06223">
        <ele>923.48</ele>
        <time>2019-02-21T12:01:18Z</time>
      </trkpt>
      <trkpt lat="43.69568" lon="3.06224">
        <ele>922.52</ele>
        <time>2019-02-21T12:01:19Z</time>
      </trkpt>
      <trkpt lat="43.69569" lon="3.06224">
        <ele>922.52</ele>
        <time>2019-02-21T12:01:20Z</time>
      </trkpt>
      <trkpt lat="43.69571" lon="3.06224">
        <ele>922.52</ele>
        <time>2019-02-21T12:01:21Z</time>
      </trkpt>
      <trkpt lat="43.69573" lon="3.06223">
        <ele>922.52</ele>
        <time>2019-02-21T12:01:22Z</time>
      </trkpt>
      <trkpt lat="43.69575" lon="3.06223">
        <ele>922.52</ele>
        <time>2019-02-21T12:01:25Z</time>
      </trkpt>
      <trkpt lat="43.69576" lon="3.06223">
        <ele>922.04</ele>
        <time>2019-02-21T12:01:26Z</time>
      </trkpt>
      <trkpt lat="43.69578" lon="3.06222">
        <ele>922.04</ele>
        <time>2019-02-21T12:01:27Z</time>
      </trkpt>
      <trkpt lat="43.69589" lon="3.06216">
        <ele>920.6</ele>
        <time>2019-02-21T12:01:37Z</time>
      </trkpt>
      <trkpt lat="43.696" lon="3.06208">
        <ele>919.16</ele>
        <time>2019-02-21T12:01:48Z</time>
      </trkpt>
      <trkpt lat="43.69605" lon="3.06204">
        <ele>918.68</ele>
        <time>2019-02-21T12:01:53Z</time>
      </trkpt>
      <trkpt lat="43.69606" lon="3.06203">
        <ele>918.68</ele>
        <time>2019-02-21T12:01:54Z</time>
      </trkpt>
      <trkpt lat="43.69607" lon="3.06202">
        <ele>918.68</ele>
        <time>2019-02-21T12:01:55Z</time>
      </trkpt>
      <trkpt lat="43.69609" lon="3.06202">
        <ele>918.2</ele>
        <time>2019-02-21T12:01:56Z</time>
      </trkpt>
      <trkpt lat="43.69619" lon="3.06198">
        <ele>917.24</ele>
        <time>2019-02-21T12:02:06Z</time>
      </trkpt>
      <trkpt lat="43.69622" lon="3.06198">
        <ele>916.75</ele>
        <time>2019-02-21T12:02:08Z</time>
      </trkpt>
      <trkpt lat="43.69623" lon="3.06199">
        <ele>916.27</ele>
        <time>2019-02-21T12:02:09Z</time>
      </trkpt>
      <trkpt lat="43.69627" lon="3.06205">
        <ele>915.79</ele>
        <time>2019-02-21T12:02:14Z</time>
      </trkpt>
      <trkpt lat="43.69627" lon="3.06212">
        <ele>913.87</ele>
        <time>2019-02-21T12:02:20Z</time>
      </trkpt>
      <trkpt lat="43.69626" lon="3.06214">
        <ele>913.87</ele>
        <time>2019-02-21T12:02:21Z</time>
      </trkpt>
      <trkpt lat="43.69625" lon="3.06215">
        <ele>913.87</ele>
        <time>2019-02-21T12:02:22Z</time>
      </trkpt>
      <trkpt lat="43.69617" lon="3.06228">
        <ele>912.43</ele>
        <time>2019-02-21T12:02:32Z</time>
      </trkpt>
      <trkpt lat="43.69613" lon="3.06229">
        <ele>911.95</ele>
        <time>2019-02-21T12:02:37Z</time>
      </trkpt>
      <trkpt lat="43.69612" lon="3.06229">
        <ele>911.95</ele>
        <time>2019-02-21T12:02:38Z</time>
      </trkpt>
      <trkpt lat="43.69607" lon="3.06234">
        <ele>910.51</ele>
        <time>2019-02-21T12:02:47Z</time>
      </trkpt>
      <trkpt lat="43.69605" lon="3.06235">
        <ele>910.51</ele>
        <time>2019-02-21T12:02:48Z</time>
      </trkpt>
      <trkpt lat="43.69604" lon="3.06236">
        <ele>910.51</ele>
        <time>2019-02-21T12:02:49Z</time>
      </trkpt>
      <trkpt lat="43.69596" lon="3.06243">
        <ele>910.03</ele>
        <time>2019-02-21T12:02:59Z</time>
      </trkpt>
      <trkpt lat="43.69595" lon="3.06244">
        <ele>910.03</ele>
        <time>2019-02-21T12:03:00Z</time>
      </trkpt>
      <trkpt lat="43.69592" lon="3.06246">
        <ele>910.03</ele>
        <time>2019-02-21T12:03:03Z</time>
      </trkpt>
      <trkpt lat="43.69591" lon="3.06247">
        <ele>910.03</ele>
        <time>2019-02-21T12:03:04Z</time>
      </trkpt>
      <trkpt lat="43.6959" lon="3.06248">
        <ele>909.54</ele>
        <time>2019-02-21T12:03:05Z</time>
      </trkpt>
      <trkpt lat="43.69588" lon="3.06249">
        <ele>909.54</ele>
        <time>2019-02-21T12:03:06Z</time>
      </trkpt>
      <trkpt lat="43.69587" lon="3.0625">
        <ele>909.54</ele>
        <time>2019-02-21T12:03:07Z</time>
      </trkpt>
      <trkpt lat="43.69577" lon="3.06253">
        <ele>908.58</ele>
        <time>2019-02-21T12:03:16Z</time>
      </trkpt>
      <trkpt lat="43.69576" lon="3.06253">
        <ele>908.58</ele>
        <time>2019-02-21T12:03:17Z</time>
      </trkpt>
      <trkpt lat="43.69574" lon="3.06253">
        <ele>908.58</ele>
        <time>2019-02-21T12:03:19Z</time>
      </trkpt>
      <trkpt lat="43.69572" lon="3.06254">
        <ele>908.1</ele>
        <time>2019-02-21T12:03:22Z</time>
      </trkpt>
      <trkpt lat="43.69568" lon="3.06255">
        <ele>907.14</ele>
        <time>2019-02-21T12:03:26Z</time>
      </trkpt>
      <trkpt lat="43.69561" lon="3.06256">
        <ele>906.66</ele>
        <time>2019-02-21T12:03:32Z</time>
      </trkpt>
      <trkpt lat="43.69559" lon="3.06256">
        <ele>906.66</ele>
        <time>2019-02-21T12:03:33Z</time>
      </trkpt>
      <trkpt lat="43.69558" lon="3.06257">
        <ele>906.66</ele>
        <time>2019-02-21T12:03:34Z</time>
      </trkpt>
      <trkpt lat="43.69556" lon="3.06257">
        <ele>906.66</ele>
        <time>2019-02-21T12:03:35Z</time>
      </trkpt>
      <trkpt lat="43.69554" lon="3.06257">
        <ele>906.66</ele>
        <time>2019-02-21T12:03:36Z</time>
      </trkpt>
      <trkpt lat="43.69551" lon="3.06258">
        <ele>906.18</ele>
        <time>2019-02-21T12:03:39Z</time>
      </trkpt>
      <trkpt lat="43.6955" lon="3.06259">
        <ele>906.18</ele>
        <time>2019-02-21T12:03:40Z</time>
      </trkpt>
      <trkpt lat="43.69549" lon="3.06259">
        <ele>905.7</ele>
        <time>2019-02-21T12:03:41Z</time>
      </trkpt>
      <trkpt lat="43.69547" lon="3.0626">
        <ele>905.7</ele>
        <time>2019-02-21T12:03:42Z</time>
      </trkpt>
      <trkpt lat="43.69546" lon="3.0626">
        <ele>905.7</ele>
        <time>2019-02-21T12:03:43Z</time>
      </trkpt>
      <trkpt lat="43.69543" lon="3.06261">
        <ele>905.22</ele>
        <time>2019-02-21T12:03:46Z</time>
      </trkpt>
      <trkpt lat="43.69542" lon="3.06262">
        <ele>905.22</ele>
        <time>2019-02-21T12:03:47Z</time>
      </trkpt>
      <trkpt lat="43.6954" lon="3.06262">
        <ele>904.74</ele>
        <time>2019-02-21T12:03:48Z</time>
      </trkpt>
      <trkpt lat="43.69539" lon="3.06263">
        <ele>904.74</ele>
        <time>2019-02-21T12:03:49Z</time>
      </trkpt>
      <trkpt lat="43.69537" lon="3.06263">
        <ele>904.74</ele>
        <time>2019-02-21T12:03:50Z</time>
      </trkpt>
      <trkpt lat="43.69528" lon="3.06268">
        <ele>903.78</ele>
        <time>2019-02-21T12:03:59Z</time>
      </trkpt>
      <trkpt lat="43.69527" lon="3.06268">
        <ele>903.78</ele>
        <time>2019-02-21T12:04:00Z</time>
      </trkpt>
      <trkpt lat="43.69525" lon="3.06269">
        <ele>903.3</ele>
        <time>2019-02-21T12:04:01Z</time>
      </trkpt>
      <trkpt lat="43.69524" lon="3.06271">
        <ele>903.3</ele>
        <time>2019-02-21T12:04:02Z</time>
      </trkpt>
      <trkpt lat="43.69522" lon="3.06272">
        <ele>903.3</ele>
        <time>2019-02-21T12:04:05Z</time>
      </trkpt>
      <trkpt lat="43.6952" lon="3.06274">
        <ele>903.3</ele>
        <time>2019-02-21T12:04:07Z</time>
      </trkpt>
      <trkpt lat="43.69519" lon="3.06275">
        <ele>902.82</ele>
        <time>2019-02-21T12:04:08Z</time>
      </trkpt>
      <trkpt lat="43.69511" lon="3.06282">
        <ele>901.85</ele>
        <time>2019-02-21T12:04:17Z</time>
      </trkpt>
      <trkpt lat="43.6951" lon="3.06283">
        <ele>901.85</ele>
        <time>2019-02-21T12:04:18Z</time>
      </trkpt>
      <trkpt lat="43.69505" lon="3.0629">
        <ele>901.37</ele>
        <time>2019-02-21T12:04:24Z</time>
      </trkpt>
      <trkpt lat="43.69504" lon="3.06291">
        <ele>901.37</ele>
        <time>2019-02-21T12:04:25Z</time>
      </trkpt>
      <trkpt lat="43.69496" lon="3.06303">
        <ele>899.45</ele>
        <time>2019-02-21T12:04:35Z</time>
      </trkpt>
      <trkpt lat="43.69495" lon="3.06304">
        <ele>899.45</ele>
        <time>2019-02-21T12:04:36Z</time>
      </trkpt>
      <trkpt lat="43.69494" lon="3.06305">
        <ele>898.97</ele>
        <time>2019-02-21T12:04:37Z</time>
      </trkpt>
      <trkpt lat="43.69493" lon="3.06306">
        <ele>898.97</ele>
        <time>2019-02-21T12:04:38Z</time>
      </trkpt>
      <trkpt lat="43.69492" lon="3.06308">
        <ele>898.97</ele>
        <time>2019-02-21T12:04:39Z</time>
      </trkpt>
      <trkpt lat="43.69491" lon="3.0631">
        <ele>898.97</ele>
        <time>2019-02-21T12:04:40Z</time>
      </trkpt>
      <trkpt lat="43.6949" lon="3.06312">
        <ele>898.49</ele>
        <time>2019-02-21T12:04:43Z</time>
      </trkpt>
      <trkpt lat="43.69489" lon="3.06313">
        <ele>898.49</ele>
        <time>2019-02-21T12:04:44Z</time>
      </trkpt>
      <trkpt lat="43.6948" lon="3.06327">
        <ele>897.53</ele>
        <time>2019-02-21T12:04:54Z</time>
      </trkpt>
      <trkpt lat="43.6947" lon="3.06334">
        <ele>896.09</ele>
        <time>2019-02-21T12:05:04Z</time>
      </trkpt>
      <trkpt lat="43.69462" lon="3.06338">
        <ele>895.61</ele>
        <time>2019-02-21T12:05:10Z</time>
      </trkpt>
      <trkpt lat="43.69461" lon="3.06339">
        <ele>895.61</ele>
        <time>2019-02-21T12:05:11Z</time>
      </trkpt>
      <trkpt lat="43.69455" lon="3.06341">
        <ele>895.12</ele>
        <time>2019-02-21T12:05:16Z</time>
      </trkpt>
      <trkpt lat="43.69453" lon="3.06342">
        <ele>895.12</ele>
        <time>2019-02-21T12:05:17Z</time>
      </trkpt>
      <trkpt lat="43.69452" lon="3.06343">
        <ele>895.12</ele>
        <time>2019-02-21T12:05:18Z</time>
      </trkpt>
      <trkpt lat="43.6945" lon="3.06343">
        <ele>895.12</ele>
        <time>2019-02-21T12:05:19Z</time>
      </trkpt>
      <trkpt lat="43.69449" lon="3.06344">
        <ele>894.64</ele>
        <time>2019-02-21T12:05:20Z</time>
      </trkpt>
      <trkpt lat="43.69447" lon="3.06345">
        <ele>894.64</ele>
        <time>2019-02-21T12:05:23Z</time>
      </trkpt>
      <trkpt lat="43.69445" lon="3.06345">
        <ele>894.64</ele>
        <time>2019-02-21T12:05:24Z</time>
      </trkpt>
      <trkpt lat="43.69444" lon="3.06345">
        <ele>894.16</ele>
        <time>2019-02-21T12:05:25Z</time>
      </trkpt>
      <trkpt lat="43.69442" lon="3.06346">
        <ele>894.16</ele>
        <time>2019-02-21T12:05:26Z</time>
      </trkpt>
      <trkpt lat="43.6944" lon="3.06346">
        <ele>894.16</ele>
        <time>2019-02-21T12:05:27Z</time>
      </trkpt>
      <trkpt lat="43.69438" lon="3.06345">
        <ele>893.68</ele>
        <time>2019-02-21T12:05:30Z</time>
      </trkpt>
      <trkpt lat="43.69437" lon="3.06345">
        <ele>893.2</ele>
        <time>2019-02-21T12:05:31Z</time>
      </trkpt>
      <trkpt lat="43.69428" lon="3.06341">
        <ele>892.24</ele>
        <time>2019-02-21T12:05:39Z</time>
      </trkpt>
      <trkpt lat="43.69425" lon="3.0634">
        <ele>892.24</ele>
        <time>2019-02-21T12:05:41Z</time>
      </trkpt>
      <trkpt lat="43.69424" lon="3.0634">
        <ele>892.24</ele>
        <time>2019-02-21T12:05:42Z</time>
      </trkpt>
      <trkpt lat="43.69422" lon="3.06339">
        <ele>892.24</ele>
        <time>2019-02-21T12:05:43Z</time>
      </trkpt>
      <trkpt lat="43.69412" lon="3.06334">
        <ele>890.32</ele>
        <time>2019-02-21T12:05:53Z</time>
      </trkpt>
      <trkpt lat="43.69411" lon="3.06333">
        <ele>889.84</ele>
        <time>2019-02-21T12:05:54Z</time>
      </trkpt>
      <trkpt lat="43.6941" lon="3.06333">
        <ele>889.84</ele>
        <time>2019-02-21T12:05:55Z</time>
      </trkpt>
      <trkpt lat="43.694" lon="3.06327">
        <ele>888.4</ele>
        <time>2019-02-21T12:06:05Z</time>
      </trkpt>
      <trkpt lat="43.69398" lon="3.06326">
        <ele>888.4</ele>
        <time>2019-02-21T12:06:07Z</time>
      </trkpt>
      <trkpt lat="43.69397" lon="3.06325">
        <ele>888.4</ele>
        <time>2019-02-21T12:06:08Z</time>
      </trkpt>
      <trkpt lat="43.69394" lon="3.06323">
        <ele>887.91</ele>
        <time>2019-02-21T12:06:12Z</time>
      </trkpt>
      <trkpt lat="43.69393" lon="3.06323">
        <ele>887.91</ele>
        <time>2019-02-21T12:06:13Z</time>
      </trkpt>
      <trkpt lat="43.69391" lon="3.06322">
        <ele>887.91</ele>
        <time>2019-02-21T12:06:14Z</time>
      </trkpt>
      <trkpt lat="43.69389" lon="3.06322">
        <ele>886.95</ele>
        <time>2019-02-21T12:06:15Z</time>
      </trkpt>
      <trkpt lat="43.69387" lon="3.06321">
        <ele>886.95</ele>
        <time>2019-02-21T12:06:18Z</time>
      </trkpt>
      <trkpt lat="43.69386" lon="3.0632">
        <ele>886.47</ele>
        <time>2019-02-21T12:06:19Z</time>
      </trkpt>
      <trkpt lat="43.69385" lon="3.0632">
        <ele>886.47</ele>
        <time>2019-02-21T12:06:20Z</time>
      </trkpt>
      <trkpt lat="43.69383" lon="3.0632">
        <ele>886.47</ele>
        <time>2019-02-21T12:06:21Z</time>
      </trkpt>
      <trkpt lat="43.69382" lon="3.06319">
        <ele>886.47</ele>
        <time>2019-02-21T12:06:22Z</time>
      </trkpt>
      <trkpt lat="43.6938" lon="3.06318">
        <ele>885.51</ele>
        <time>2019-02-21T12:06:23Z</time>
      </trkpt>
      <trkpt lat="43.69379" lon="3.06318">
        <ele>885.51</ele>
        <time>2019-02-21T12:06:26Z</time>
      </trkpt>
      <trkpt lat="43.69377" lon="3.06318">
        <ele>885.51</ele>
        <time>2019-02-21T12:06:27Z</time>
      </trkpt>
      <trkpt lat="43.69365" lon="3.06314">
        <ele>884.55</ele>
        <time>2019-02-21T12:06:38Z</time>
      </trkpt>
      <trkpt lat="43.69364" lon="3.06314">
        <ele>884.55</ele>
        <time>2019-02-21T12:06:39Z</time>
      </trkpt>
      <trkpt lat="43.69362" lon="3.06314">
        <ele>883.59</ele>
        <time>2019-02-21T12:06:40Z</time>
      </trkpt>
      <trkpt lat="43.69351" lon="3.06312">
        <ele>882.63</ele>
        <time>2019-02-21T12:06:50Z</time>
      </trkpt>
      <trkpt lat="43.69349" lon="3.06312">
        <ele>882.63</ele>
        <time>2019-02-21T12:06:51Z</time>
      </trkpt>
      <trkpt lat="43.69348" lon="3.06312">
        <ele>882.15</ele>
        <time>2019-02-21T12:06:52Z</time>
      </trkpt>
      <trkpt lat="43.69337" lon="3.06312">
        <ele>880.71</ele>
        <time>2019-02-21T12:07:02Z</time>
      </trkpt>
      <trkpt lat="43.69336" lon="3.06312">
        <ele>880.71</ele>
        <time>2019-02-21T12:07:03Z</time>
      </trkpt>
      <trkpt lat="43.69335" lon="3.06312">
        <ele>880.71</ele>
        <time>2019-02-21T12:07:04Z</time>
      </trkpt>
      <trkpt lat="43.69322" lon="3.06311">
        <ele>878.3</ele>
        <time>2019-02-21T12:07:15Z</time>
      </trkpt>
      <trkpt lat="43.69313" lon="3.06311">
        <ele>877.82</ele>
        <time>2019-02-21T12:07:22Z</time>
      </trkpt>
      <trkpt lat="43.69311" lon="3.06311">
        <ele>877.34</ele>
        <time>2019-02-21T12:07:24Z</time>
      </trkpt>
      <trkpt lat="43.69309" lon="3.06311">
        <ele>877.34</ele>
        <time>2019-02-21T12:07:25Z</time>
      </trkpt>
      <trkpt lat="43.69298" lon="3.06311">
        <ele>875.42</ele>
        <time>2019-02-21T12:07:36Z</time>
      </trkpt>
      <trkpt lat="43.69286" lon="3.0631">
        <ele>873.5</ele>
        <time>2019-02-21T12:07:47Z</time>
      </trkpt>
      <trkpt lat="43.69282" lon="3.06309">
        <ele>873.01</ele>
        <time>2019-02-21T12:07:51Z</time>
      </trkpt>
      <trkpt lat="43.69281" lon="3.06308">
        <ele>873.01</ele>
        <time>2019-02-21T12:07:52Z</time>
      </trkpt>
      <trkpt lat="43.6927" lon="3.06304">
        <ele>871.57</ele>
        <time>2019-02-21T12:08:02Z</time>
      </trkpt>
      <trkpt lat="43.69268" lon="3.06303">
        <ele>871.09</ele>
        <time>2019-02-21T12:08:04Z</time>
      </trkpt>
      <trkpt lat="43.69267" lon="3.06302">
        <ele>871.09</ele>
        <time>2019-02-21T12:08:05Z</time>
      </trkpt>
      <trkpt lat="43.69266" lon="3.06302">
        <ele>871.09</ele>
        <time>2019-02-21T12:08:06Z</time>
      </trkpt>
      <trkpt lat="43.69264" lon="3.06301">
        <ele>870.13</ele>
        <time>2019-02-21T12:08:07Z</time>
      </trkpt>
      <trkpt lat="43.69263" lon="3.06301">
        <ele>870.13</ele>
        <time>2019-02-21T12:08:08Z</time>
      </trkpt>
      <trkpt lat="43.69261" lon="3.063">
        <ele>870.13</ele>
        <time>2019-02-21T12:08:09Z</time>
      </trkpt>
      <trkpt lat="43.69253" lon="3.06295">
        <ele>868.69</ele>
        <time>2019-02-21T12:08:19Z</time>
      </trkpt>
      <trkpt lat="43.69249" lon="3.06294">
        <ele>868.21</ele>
        <time>2019-02-21T12:08:23Z</time>
      </trkpt>
      <trkpt lat="43.69247" lon="3.06292">
        <ele>867.73</ele>
        <time>2019-02-21T12:08:25Z</time>
      </trkpt>
      <trkpt lat="43.69236" lon="3.06288">
        <ele>866.29</ele>
        <time>2019-02-21T12:08:35Z</time>
      </trkpt>
      <trkpt lat="43.69235" lon="3.06287">
        <ele>866.29</ele>
        <time>2019-02-21T12:08:36Z</time>
      </trkpt>
      <trkpt lat="43.69234" lon="3.06286">
        <ele>865.8</ele>
        <time>2019-02-21T12:08:37Z</time>
      </trkpt>
      <trkpt lat="43.69233" lon="3.06286">
        <ele>865.8</ele>
        <time>2019-02-21T12:08:38Z</time>
      </trkpt>
      <trkpt lat="43.69222" lon="3.06279">
        <ele>863.88</ele>
        <time>2019-02-21T12:08:49Z</time>
      </trkpt>
      <trkpt lat="43.69212" lon="3.06275">
        <ele>862.92</ele>
        <time>2019-02-21T12:08:59Z</time>
      </trkpt>
      <trkpt lat="43.69211" lon="3.06274">
        <ele>862.92</ele>
        <time>2019-02-21T12:09:00Z</time>
      </trkpt>
      <trkpt lat="43.69208" lon="3.06273">
        <ele>862.92</ele>
        <time>2019-02-21T12:09:02Z</time>
      </trkpt>
      <trkpt lat="43.69207" lon="3.06272">
        <ele>862.92</ele>
        <time>2019-02-21T12:09:03Z</time>
      </trkpt>
      <trkpt lat="43.69198" lon="3.06269">
        <ele>861</ele>
        <time>2019-02-21T12:09:12Z</time>
      </trkpt>
      <trkpt lat="43.69196" lon="3.06268">
        <ele>861</ele>
        <time>2019-02-21T12:09:13Z</time>
      </trkpt>
      <trkpt lat="43.69195" lon="3.06268">
        <ele>861</ele>
        <time>2019-02-21T12:09:14Z</time>
      </trkpt>
      <trkpt lat="43.69194" lon="3.06267">
        <ele>860.52</ele>
        <time>2019-02-21T12:09:15Z</time>
      </trkpt>
      <trkpt lat="43.69192" lon="3.06267">
        <ele>860.52</ele>
        <time>2019-02-21T12:09:16Z</time>
      </trkpt>
      <trkpt lat="43.69183" lon="3.06262">
        <ele>859.08</ele>
        <time>2019-02-21T12:09:26Z</time>
      </trkpt>
      <trkpt lat="43.69175" lon="3.06258">
        <ele>858.59</ele>
        <time>2019-02-21T12:09:33Z</time>
      </trkpt>
      <trkpt lat="43.69174" lon="3.06257">
        <ele>857.63</ele>
        <time>2019-02-21T12:09:34Z</time>
      </trkpt>
      <trkpt lat="43.69173" lon="3.06257">
        <ele>857.63</ele>
        <time>2019-02-21T12:09:35Z</time>
      </trkpt>
      <trkpt lat="43.69171" lon="3.06256">
        <ele>857.15</ele>
        <time>2019-02-21T12:09:36Z</time>
      </trkpt>
      <trkpt lat="43.6917" lon="3.06255">
        <ele>857.15</ele>
        <time>2019-02-21T12:09:37Z</time>
      </trkpt>
      <trkpt lat="43.69167" lon="3.06254">
        <ele>857.15</ele>
        <time>2019-02-21T12:09:40Z</time>
      </trkpt>
      <trkpt lat="43.69166" lon="3.06253">
        <ele>857.15</ele>
        <time>2019-02-21T12:09:41Z</time>
      </trkpt>
      <trkpt lat="43.69165" lon="3.06252">
        <ele>857.15</ele>
        <time>2019-02-21T12:09:42Z</time>
      </trkpt>
      <trkpt lat="43.69164" lon="3.06251">
        <ele>857.15</ele>
        <time>2019-02-21T12:09:43Z</time>
      </trkpt>
      <trkpt lat="43.69163" lon="3.06251">
        <ele>856.19</ele>
        <time>2019-02-21T12:09:44Z</time>
      </trkpt>
      <trkpt lat="43.69161" lon="3.0625">
        <ele>856.19</ele>
        <time>2019-02-21T12:09:46Z</time>
      </trkpt>
      <trkpt lat="43.6916" lon="3.0625">
        <ele>856.19</ele>
        <time>2019-02-21T12:09:47Z</time>
      </trkpt>
      <trkpt lat="43.69159" lon="3.06249">
        <ele>856.19</ele>
        <time>2019-02-21T12:09:48Z</time>
      </trkpt>
      <trkpt lat="43.69158" lon="3.06248">
        <ele>856.19</ele>
        <time>2019-02-21T12:09:49Z</time>
      </trkpt>
      <trkpt lat="43.69149" lon="3.0624">
        <ele>854.75</ele>
        <time>2019-02-21T12:09:59Z</time>
      </trkpt>
      <trkpt lat="43.69148" lon="3.06239">
        <ele>854.27</ele>
        <time>2019-02-21T12:10:00Z</time>
      </trkpt>
      <trkpt lat="43.69147" lon="3.06238">
        <ele>854.27</ele>
        <time>2019-02-21T12:10:01Z</time>
      </trkpt>
      <trkpt lat="43.69146" lon="3.06237">
        <ele>854.27</ele>
        <time>2019-02-21T12:10:02Z</time>
      </trkpt>
      <trkpt lat="43.69136" lon="3.06228">
        <ele>852.35</ele>
        <time>2019-02-21T12:10:13Z</time>
      </trkpt>
      <trkpt lat="43.6913" lon="3.06223">
        <ele>851.87</ele>
        <time>2019-02-21T12:10:19Z</time>
      </trkpt>
      <trkpt lat="43.69129" lon="3.06222">
        <ele>851.38</ele>
        <time>2019-02-21T12:10:20Z</time>
      </trkpt>
      <trkpt lat="43.69128" lon="3.06221">
        <ele>851.38</ele>
        <time>2019-02-21T12:10:21Z</time>
      </trkpt>
      <trkpt lat="43.69126" lon="3.0622">
        <ele>850.9</ele>
        <time>2019-02-21T12:10:22Z</time>
      </trkpt>
      <trkpt lat="43.69118" lon="3.06211">
        <ele>849.94</ele>
        <time>2019-02-21T12:10:32Z</time>
      </trkpt>
      <trkpt lat="43.69111" lon="3.06205">
        <ele>848.5</ele>
        <time>2019-02-21T12:10:39Z</time>
      </trkpt>
      <trkpt lat="43.6911" lon="3.06205">
        <ele>848.5</ele>
        <time>2019-02-21T12:10:40Z</time>
      </trkpt>
      <trkpt lat="43.69108" lon="3.06204">
        <ele>848.02</ele>
        <time>2019-02-21T12:10:41Z</time>
      </trkpt>
      <trkpt lat="43.69107" lon="3.06202">
        <ele>848.02</ele>
        <time>2019-02-21T12:10:42Z</time>
      </trkpt>
      <trkpt lat="43.69104" lon="3.062">
        <ele>847.54</ele>
        <time>2019-02-21T12:10:46Z</time>
      </trkpt>
      <trkpt lat="43.69103" lon="3.06199">
        <ele>847.06</ele>
        <time>2019-02-21T12:10:47Z</time>
      </trkpt>
      <trkpt lat="43.69101" lon="3.06198">
        <ele>847.06</ele>
        <time>2019-02-21T12:10:48Z</time>
      </trkpt>
      <trkpt lat="43.691" lon="3.06196">
        <ele>847.06</ele>
        <time>2019-02-21T12:10:49Z</time>
      </trkpt>
      <trkpt lat="43.69098" lon="3.06194">
        <ele>846.58</ele>
        <time>2019-02-21T12:10:52Z</time>
      </trkpt>
      <trkpt lat="43.69097" lon="3.06194">
        <ele>846.58</ele>
        <time>2019-02-21T12:10:53Z</time>
      </trkpt>
      <trkpt lat="43.69096" lon="3.06193">
        <ele>846.58</ele>
        <time>2019-02-21T12:10:54Z</time>
      </trkpt>
      <trkpt lat="43.69095" lon="3.06192">
        <ele>846.1</ele>
        <time>2019-02-21T12:10:55Z</time>
      </trkpt>
      <trkpt lat="43.69093" lon="3.06191">
        <ele>846.1</ele>
        <time>2019-02-21T12:10:56Z</time>
      </trkpt>
      <trkpt lat="43.69092" lon="3.06188">
        <ele>845.62</ele>
        <time>2019-02-21T12:10:59Z</time>
      </trkpt>
      <trkpt lat="43.69091" lon="3.06187">
        <ele>845.62</ele>
        <time>2019-02-21T12:11:00Z</time>
      </trkpt>
      <trkpt lat="43.69088" lon="3.06185">
        <ele>845.14</ele>
        <time>2019-02-21T12:11:02Z</time>
      </trkpt>
      <trkpt lat="43.69086" lon="3.06183">
        <ele>844.66</ele>
        <time>2019-02-21T12:11:05Z</time>
      </trkpt>
      <trkpt lat="43.69086" lon="3.06182">
        <ele>844.66</ele>
        <time>2019-02-21T12:11:06Z</time>
      </trkpt>
      <trkpt lat="43.69084" lon="3.06181">
        <ele>844.66</ele>
        <time>2019-02-21T12:11:07Z</time>
      </trkpt>
      <trkpt lat="43.69076" lon="3.06171">
        <ele>842.25</ele>
        <time>2019-02-21T12:11:17Z</time>
      </trkpt>
      <trkpt lat="43.69075" lon="3.0617">
        <ele>842.25</ele>
        <time>2019-02-21T12:11:18Z</time>
      </trkpt>
      <trkpt lat="43.69074" lon="3.06169">
        <ele>842.25</ele>
        <time>2019-02-21T12:11:19Z</time>
      </trkpt>
      <trkpt lat="43.69065" lon="3.06157">
        <ele>840.81</ele>
        <time>2019-02-21T12:11:31Z</time>
      </trkpt>
      <trkpt lat="43.6906" lon="3.0615">
        <ele>839.37</ele>
        <time>2019-02-21T12:11:37Z</time>
      </trkpt>
      <trkpt lat="43.69059" lon="3.06149">
        <ele>839.37</ele>
        <time>2019-02-21T12:11:38Z</time>
      </trkpt>
      <trkpt lat="43.69058" lon="3.06148">
        <ele>839.37</ele>
        <time>2019-02-21T12:11:39Z</time>
      </trkpt>
      <trkpt lat="43.69051" lon="3.06134">
        <ele>837.93</ele>
        <time>2019-02-21T12:11:50Z</time>
      </trkpt>
      <trkpt lat="43.6905" lon="3.06132">
        <ele>837.45</ele>
        <time>2019-02-21T12:11:51Z</time>
      </trkpt>
      <trkpt lat="43.69049" lon="3.06131">
        <ele>837.45</ele>
        <time>2019-02-21T12:11:52Z</time>
      </trkpt>
      <trkpt lat="43.69049" lon="3.06129">
        <ele>836.48</ele>
        <time>2019-02-21T12:11:53Z</time>
      </trkpt>
      <trkpt lat="43.69048" lon="3.06127">
        <ele>836.48</ele>
        <time>2019-02-21T12:11:54Z</time>
      </trkpt>
      <trkpt lat="43.69042" lon="3.06114">
        <ele>835.04</ele>
        <time>2019-02-21T12:12:04Z</time>
      </trkpt>
      <trkpt lat="43.69041" lon="3.06113">
        <ele>835.04</ele>
        <time>2019-02-21T12:12:05Z</time>
      </trkpt>
      <trkpt lat="43.6904" lon="3.06111">
        <ele>835.04</ele>
        <time>2019-02-21T12:12:06Z</time>
      </trkpt>
      <trkpt lat="43.69034" lon="3.06097">
        <ele>833.12</ele>
        <time>2019-02-21T12:12:17Z</time>
      </trkpt>
      <trkpt lat="43.69026" lon="3.06081">
        <ele>831.68</ele>
        <time>2019-02-21T12:12:28Z</time>
      </trkpt>
      <trkpt lat="43.69019" lon="3.0607">
        <ele>830.24</ele>
        <time>2019-02-21T12:12:38Z</time>
      </trkpt>
      <trkpt lat="43.69014" lon="3.06063">
        <ele>828.79</ele>
        <time>2019-02-21T12:12:44Z</time>
      </trkpt>
      <trkpt lat="43.69013" lon="3.06062">
        <ele>828.79</ele>
        <time>2019-02-21T12:12:45Z</time>
      </trkpt>
      <trkpt lat="43.69012" lon="3.06061">
        <ele>828.31</ele>
        <time>2019-02-21T12:12:46Z</time>
      </trkpt>
      <trkpt lat="43.69011" lon="3.06059">
        <ele>828.31</ele>
        <time>2019-02-21T12:12:47Z</time>
      </trkpt>
      <trkpt lat="43.6901" lon="3.06058">
        <ele>828.31</ele>
        <time>2019-02-21T12:12:48Z</time>
      </trkpt>
      <trkpt lat="43.69006" lon="3.06052">
        <ele>826.87</ele>
        <time>2019-02-21T12:12:54Z</time>
      </trkpt>
      <trkpt lat="43.69003" lon="3.06049">
        <ele>826.39</ele>
        <time>2019-02-21T12:12:58Z</time>
      </trkpt>
      <trkpt lat="43.69002" lon="3.06049">
        <ele>826.39</ele>
        <time>2019-02-21T12:12:59Z</time>
      </trkpt>
      <trkpt lat="43.69001" lon="3.06048">
        <ele>826.39</ele>
        <time>2019-02-21T12:13:00Z</time>
      </trkpt>
      <trkpt lat="43.68999" lon="3.06047">
        <ele>825.91</ele>
        <time>2019-02-21T12:13:01Z</time>
      </trkpt>
      <trkpt lat="43.68997" lon="3.06045">
        <ele>825.91</ele>
        <time>2019-02-21T12:13:04Z</time>
      </trkpt>
      <trkpt lat="43.68996" lon="3.06044">
        <ele>824.95</ele>
        <time>2019-02-21T12:13:05Z</time>
      </trkpt>
      <trkpt lat="43.68995" lon="3.06043">
        <ele>824.95</ele>
        <time>2019-02-21T12:13:06Z</time>
      </trkpt>
      <trkpt lat="43.68994" lon="3.06043">
        <ele>824.95</ele>
        <time>2019-02-21T12:13:07Z</time>
      </trkpt>
      <trkpt lat="43.68992" lon="3.06042">
        <ele>824.95</ele>
        <time>2019-02-21T12:13:08Z</time>
      </trkpt>
      <trkpt lat="43.68991" lon="3.06041">
        <ele>824.47</ele>
        <time>2019-02-21T12:13:09Z</time>
      </trkpt>
      <trkpt lat="43.68989" lon="3.0604">
        <ele>823.99</ele>
        <time>2019-02-21T12:13:12Z</time>
      </trkpt>
      <trkpt lat="43.68987" lon="3.06038">
        <ele>823.99</ele>
        <time>2019-02-21T12:13:14Z</time>
      </trkpt>
      <trkpt lat="43.68986" lon="3.06037">
        <ele>823.51</ele>
        <time>2019-02-21T12:13:15Z</time>
      </trkpt>
      <trkpt lat="43.68983" lon="3.06035">
        <ele>823.03</ele>
        <time>2019-02-21T12:13:18Z</time>
      </trkpt>
      <trkpt lat="43.68982" lon="3.06035">
        <ele>822.55</ele>
        <time>2019-02-21T12:13:19Z</time>
      </trkpt>
      <trkpt lat="43.68981" lon="3.06034">
        <ele>822.55</ele>
        <time>2019-02-21T12:13:20Z</time>
      </trkpt>
      <trkpt lat="43.68979" lon="3.06034">
        <ele>822.55</ele>
        <time>2019-02-21T12:13:21Z</time>
      </trkpt>
      <trkpt lat="43.68977" lon="3.06033">
        <ele>822.06</ele>
        <time>2019-02-21T12:13:24Z</time>
      </trkpt>
      <trkpt lat="43.68976" lon="3.06032">
        <ele>822.06</ele>
        <time>2019-02-21T12:13:25Z</time>
      </trkpt>
      <trkpt lat="43.68974" lon="3.06032">
        <ele>822.06</ele>
        <time>2019-02-21T12:13:26Z</time>
      </trkpt>
      <trkpt lat="43.68973" lon="3.06031">
        <ele>822.06</ele>
        <time>2019-02-21T12:13:27Z</time>
      </trkpt>
      <trkpt lat="43.68972" lon="3.0603">
        <ele>821.1</ele>
        <time>2019-02-21T12:13:28Z</time>
      </trkpt>
      <trkpt lat="43.68962" lon="3.06027">
        <ele>819.18</ele>
        <time>2019-02-21T12:13:38Z</time>
      </trkpt>
      <trkpt lat="43.68955" lon="3.06026">
        <ele>817.74</ele>
        <time>2019-02-21T12:13:44Z</time>
      </trkpt>
      <trkpt lat="43.68954" lon="3.06026">
        <ele>817.74</ele>
        <time>2019-02-21T12:13:45Z</time>
      </trkpt>
      <trkpt lat="43.68953" lon="3.06025">
        <ele>817.74</ele>
        <time>2019-02-21T12:13:46Z</time>
      </trkpt>
      <trkpt lat="43.68952" lon="3.06025">
        <ele>817.74</ele>
        <time>2019-02-21T12:13:47Z</time>
      </trkpt>
      <trkpt lat="43.6895" lon="3.06025">
        <ele>817.26</ele>
        <time>2019-02-21T12:13:48Z</time>
      </trkpt>
      <trkpt lat="43.68948" lon="3.06025">
        <ele>816.78</ele>
        <time>2019-02-21T12:13:51Z</time>
      </trkpt>
      <trkpt lat="43.68947" lon="3.06025">
        <ele>816.3</ele>
        <time>2019-02-21T12:13:52Z</time>
      </trkpt>
      <trkpt lat="43.68934" lon="3.06026">
        <ele>814.37</ele>
        <time>2019-02-21T12:14:03Z</time>
      </trkpt>
      <trkpt lat="43.68933" lon="3.06026">
        <ele>814.37</ele>
        <time>2019-02-21T12:14:04Z</time>
      </trkpt>
      <trkpt lat="43.68932" lon="3.06026">
        <ele>813.89</ele>
        <time>2019-02-21T12:14:05Z</time>
      </trkpt>
      <trkpt lat="43.68925" lon="3.06025">
        <ele>812.45</ele>
        <time>2019-02-21T12:14:11Z</time>
      </trkpt>
      <trkpt lat="43.68923" lon="3.06025">
        <ele>811.97</ele>
        <time>2019-02-21T12:14:13Z</time>
      </trkpt>
      <trkpt lat="43.68922" lon="3.06024">
        <ele>811.97</ele>
        <time>2019-02-21T12:14:14Z</time>
      </trkpt>
      <trkpt lat="43.6892" lon="3.06024">
        <ele>811.97</ele>
        <time>2019-02-21T12:14:17Z</time>
      </trkpt>
      <trkpt lat="43.68919" lon="3.06024">
        <ele>811.49</ele>
        <time>2019-02-21T12:14:18Z</time>
      </trkpt>
      <trkpt lat="43.68916" lon="3.06024">
        <ele>811.01</ele>
        <time>2019-02-21T12:14:20Z</time>
      </trkpt>
      <trkpt lat="43.68907" lon="3.0602">
        <ele>810.05</ele>
        <time>2019-02-21T12:14:30Z</time>
      </trkpt>
      <trkpt lat="43.68905" lon="3.06019">
        <ele>809.09</ele>
        <time>2019-02-21T12:14:32Z</time>
      </trkpt>
      <trkpt lat="43.68892" lon="3.06015">
        <ele>807.16</ele>
        <time>2019-02-21T12:14:44Z</time>
      </trkpt>
      <trkpt lat="43.68885" lon="3.06011">
        <ele>805.72</ele>
        <time>2019-02-21T12:14:51Z</time>
      </trkpt>
      <trkpt lat="43.68884" lon="3.0601">
        <ele>805.72</ele>
        <time>2019-02-21T12:14:52Z</time>
      </trkpt>
      <trkpt lat="43.68871" lon="3.05996">
        <ele>803.32</ele>
        <time>2019-02-21T12:15:07Z</time>
      </trkpt>
      <trkpt lat="43.68862" lon="3.05981">
        <ele>802.36</ele>
        <time>2019-02-21T12:15:21Z</time>
      </trkpt>
      <trkpt lat="43.68858" lon="3.05972">
        <ele>801.4</ele>
        <time>2019-02-21T12:15:28Z</time>
      </trkpt>
      <trkpt lat="43.68857" lon="3.05971">
        <ele>801.4</ele>
        <time>2019-02-21T12:15:29Z</time>
      </trkpt>
      <trkpt lat="43.68846" lon="3.05951">
        <ele>799.47</ele>
        <time>2019-02-21T12:15:46Z</time>
      </trkpt>
      <trkpt lat="43.68837" lon="3.05927">
        <ele>796.59</ele>
        <time>2019-02-21T12:16:04Z</time>
      </trkpt>
      <trkpt lat="43.68835" lon="3.05922">
        <ele>796.11</ele>
        <time>2019-02-21T12:16:07Z</time>
      </trkpt>
      <trkpt lat="43.68835" lon="3.0592">
        <ele>796.11</ele>
        <time>2019-02-21T12:16:08Z</time>
      </trkpt>
      <trkpt lat="43.68834" lon="3.05919">
        <ele>796.11</ele>
        <time>2019-02-21T12:16:09Z</time>
      </trkpt>
      <trkpt lat="43.68831" lon="3.05899">
        <ele>794.19</ele>
        <time>2019-02-21T12:16:24Z</time>
      </trkpt>
      <trkpt lat="43.68829" lon="3.05898">
        <ele>794.19</ele>
        <time>2019-02-21T12:16:25Z</time>
      </trkpt>
      <trkpt lat="43.68827" lon="3.05898">
        <ele>793.71</ele>
        <time>2019-02-21T12:16:27Z</time>
      </trkpt>
      <trkpt lat="43.68824" lon="3.05903">
        <ele>793.71</ele>
        <time>2019-02-21T12:16:34Z</time>
      </trkpt>
      <trkpt lat="43.68822" lon="3.0591">
        <ele>792.74</ele>
        <time>2019-02-21T12:16:47Z</time>
      </trkpt>
      <trkpt lat="43.6882" lon="3.05914">
        <ele>791.78</ele>
        <time>2019-02-21T12:16:54Z</time>
      </trkpt>
      <trkpt lat="43.68813" lon="3.05921">
        <ele>788.42</ele>
        <time>2019-02-21T12:17:07Z</time>
      </trkpt>
      <trkpt lat="43.68806" lon="3.05931">
        <ele>785.53</ele>
        <time>2019-02-21T12:17:22Z</time>
      </trkpt>
      <trkpt lat="43.688" lon="3.05939">
        <ele>782.17</ele>
        <time>2019-02-21T12:17:34Z</time>
      </trkpt>
      <trkpt lat="43.68792" lon="3.05941">
        <ele>779.29</ele>
        <time>2019-02-21T12:17:47Z</time>
      </trkpt>
      <trkpt lat="43.6879" lon="3.05949">
        <ele>776.88</ele>
        <time>2019-02-21T12:17:58Z</time>
      </trkpt>
      <trkpt lat="43.68788" lon="3.05955">
        <ele>776.4</ele>
        <time>2019-02-21T12:18:06Z</time>
      </trkpt>
      <trkpt lat="43.68785" lon="3.05959">
        <ele>776.4</ele>
        <time>2019-02-21T12:18:09Z</time>
      </trkpt>
      <trkpt lat="43.68784" lon="3.05961">
        <ele>775.92</ele>
        <time>2019-02-21T12:18:11Z</time>
      </trkpt>
      <trkpt lat="43.68784" lon="3.05962">
        <ele>775.92</ele>
        <time>2019-02-21T12:18:12Z</time>
      </trkpt>
      <trkpt lat="43.68783" lon="3.05964">
        <ele>775.92</ele>
        <time>2019-02-21T12:18:13Z</time>
      </trkpt>
      <trkpt lat="43.68783" lon="3.05966">
        <ele>775.92</ele>
        <time>2019-02-21T12:18:14Z</time>
      </trkpt>
      <trkpt lat="43.68782" lon="3.05967">
        <ele>775.44</ele>
        <time>2019-02-21T12:18:15Z</time>
      </trkpt>
      <trkpt lat="43.68782" lon="3.05969">
        <ele>775.44</ele>
        <time>2019-02-21T12:18:16Z</time>
      </trkpt>
      <trkpt lat="43.68782" lon="3.0597">
        <ele>775.44</ele>
        <time>2019-02-21T12:18:17Z</time>
      </trkpt>
      <trkpt lat="43.68782" lon="3.05972">
        <ele>775.44</ele>
        <time>2019-02-21T12:18:18Z</time>
      </trkpt>
      <trkpt lat="43.68782" lon="3.05974">
        <ele>775.44</ele>
        <time>2019-02-21T12:18:19Z</time>
      </trkpt>
      <trkpt lat="43.68784" lon="3.06001">
        <ele>774</ele>
        <time>2019-02-21T12:18:36Z</time>
      </trkpt>
      <trkpt lat="43.68788" lon="3.06025">
        <ele>772.56</ele>
        <time>2019-02-21T12:18:52Z</time>
      </trkpt>
      <trkpt lat="43.68794" lon="3.06044">
        <ele>772.08</ele>
        <time>2019-02-21T12:19:06Z</time>
      </trkpt>
      <trkpt lat="43.68796" lon="3.06048">
        <ele>771.6</ele>
        <time>2019-02-21T12:19:09Z</time>
      </trkpt>
      <trkpt lat="43.68796" lon="3.06049">
        <ele>771.6</ele>
        <time>2019-02-21T12:19:10Z</time>
      </trkpt>
      <trkpt lat="43.68797" lon="3.0605">
        <ele>771.6</ele>
        <time>2019-02-21T12:19:11Z</time>
      </trkpt>
      <trkpt lat="43.68797" lon="3.06052">
        <ele>771.6</ele>
        <time>2019-02-21T12:19:12Z</time>
      </trkpt>
      <trkpt lat="43.68801" lon="3.06061">
        <ele>770.15</ele>
        <time>2019-02-21T12:19:24Z</time>
      </trkpt>
      <trkpt lat="43.68801" lon="3.06068">
        <ele>768.71</ele>
        <time>2019-02-21T12:19:36Z</time>
      </trkpt>
      <trkpt lat="43.68801" lon="3.06069">
        <ele>768.71</ele>
        <time>2019-02-21T12:19:37Z</time>
      </trkpt>
      <trkpt lat="43.688" lon="3.06073">
        <ele>767.75</ele>
        <time>2019-02-21T12:19:41Z</time>
      </trkpt>
      <trkpt lat="43.68799" lon="3.06081">
        <ele>765.83</ele>
        <time>2019-02-21T12:19:50Z</time>
      </trkpt>
      <trkpt lat="43.68797" lon="3.06088">
        <ele>765.35</ele>
        <time>2019-02-21T12:19:55Z</time>
      </trkpt>
      <trkpt lat="43.68797" lon="3.06095">
        <ele>764.87</ele>
        <time>2019-02-21T12:20:10Z</time>
      </trkpt>
      <trkpt lat="43.68794" lon="3.06099">
        <ele>762.46</ele>
        <time>2019-02-21T12:20:19Z</time>
      </trkpt>
      <trkpt lat="43.68792" lon="3.06109">
        <ele>759.58</ele>
        <time>2019-02-21T12:20:30Z</time>
      </trkpt>
      <trkpt lat="43.68787" lon="3.06116">
        <ele>758.14</ele>
        <time>2019-02-21T12:20:41Z</time>
      </trkpt>
      <trkpt lat="43.68786" lon="3.06116">
        <ele>757.18</ele>
        <time>2019-02-21T12:20:42Z</time>
      </trkpt>
      <trkpt lat="43.68783" lon="3.06129">
        <ele>755.25</ele>
        <time>2019-02-21T12:20:56Z</time>
      </trkpt>
      <trkpt lat="43.68775" lon="3.06135">
        <ele>753.33</ele>
        <time>2019-02-21T12:21:11Z</time>
      </trkpt>
      <trkpt lat="43.68767" lon="3.06141">
        <ele>751.41</ele>
        <time>2019-02-21T12:21:27Z</time>
      </trkpt>
      <trkpt lat="43.68769" lon="3.06154">
        <ele>749.49</ele>
        <time>2019-02-21T12:21:44Z</time>
      </trkpt>
      <trkpt lat="43.68762" lon="3.06159">
        <ele>746.12</ele>
        <time>2019-02-21T12:22:02Z</time>
      </trkpt>
      <trkpt lat="43.68756" lon="3.06162">
        <ele>744.68</ele>
        <time>2019-02-21T12:22:12Z</time>
      </trkpt>
      <trkpt lat="43.68755" lon="3.06168">
        <ele>743.24</ele>
        <time>2019-02-21T12:22:26Z</time>
      </trkpt>
      <trkpt lat="43.68749" lon="3.06177">
        <ele>739.87</ele>
        <time>2019-02-21T12:22:42Z</time>
      </trkpt>
      <trkpt lat="43.68742" lon="3.06187">
        <ele>736.51</ele>
        <time>2019-02-21T12:23:02Z</time>
      </trkpt>
      <trkpt lat="43.68738" lon="3.06196">
        <ele>734.58</ele>
        <time>2019-02-21T12:23:15Z</time>
      </trkpt>
      <trkpt lat="43.68732" lon="3.06198">
        <ele>732.66</ele>
        <time>2019-02-21T12:23:28Z</time>
      </trkpt>
      <trkpt lat="43.68724" lon="3.06201">
        <ele>730.26</ele>
        <time>2019-02-21T12:23:41Z</time>
      </trkpt>
      <trkpt lat="43.68715" lon="3.06214">
        <ele>727.37</ele>
        <time>2019-02-21T12:23:57Z</time>
      </trkpt>
      <trkpt lat="43.68715" lon="3.06231">
        <ele>725.45</ele>
        <time>2019-02-21T12:24:13Z</time>
      </trkpt>
      <trkpt lat="43.68715" lon="3.06244">
        <ele>725.45</ele>
        <time>2019-02-21T12:24:27Z</time>
      </trkpt>
      <trkpt lat="43.68717" lon="3.06247">
        <ele>725.45</ele>
        <time>2019-02-21T12:24:30Z</time>
      </trkpt>
      <trkpt lat="43.68722" lon="3.06259">
        <ele>724.01</ele>
        <time>2019-02-21T12:24:43Z</time>
      </trkpt>
      <trkpt lat="43.68729" lon="3.06272">
        <ele>722.09</ele>
        <time>2019-02-21T12:25:00Z</time>
      </trkpt>
      <trkpt lat="43.68732" lon="3.06276">
        <ele>721.13</ele>
        <time>2019-02-21T12:25:22Z</time>
      </trkpt>
      <trkpt lat="43.68735" lon="3.06279">
        <ele>720.65</ele>
        <time>2019-02-21T12:25:27Z</time>
      </trkpt>
      <trkpt lat="43.6874" lon="3.06283">
        <ele>719.2</ele>
        <time>2019-02-21T12:25:34Z</time>
      </trkpt>
      <trkpt lat="43.68744" lon="3.06286">
        <ele>717.76</ele>
        <time>2019-02-21T12:25:40Z</time>
      </trkpt>
      <trkpt lat="43.6875" lon="3.06295">
        <ele>715.36</ele>
        <time>2019-02-21T12:25:56Z</time>
      </trkpt>
      <trkpt lat="43.68749" lon="3.06298">
        <ele>714.88</ele>
        <time>2019-02-21T12:25:59Z</time>
      </trkpt>
      <trkpt lat="43.68745" lon="3.06313">
        <ele>712.47</ele>
        <time>2019-02-21T12:26:14Z</time>
      </trkpt>
      <trkpt lat="43.68743" lon="3.0632">
        <ele>710.55</ele>
        <time>2019-02-21T12:26:23Z</time>
      </trkpt>
      <trkpt lat="43.68742" lon="3.06325">
        <ele>710.07</ele>
        <time>2019-02-21T12:26:34Z</time>
      </trkpt>
      <trkpt lat="43.68741" lon="3.06325">
        <ele>710.07</ele>
        <time>2019-02-21T12:26:54Z</time>
      </trkpt>
      <trkpt lat="43.68738" lon="3.06326">
        <ele>710.07</ele>
        <time>2019-02-21T12:27:18Z</time>
      </trkpt>
      <trkpt lat="43.68737" lon="3.06328">
        <ele>710.07</ele>
        <time>2019-02-21T12:27:28Z</time>
      </trkpt>
      <trkpt lat="43.68735" lon="3.0633">
        <ele>710.07</ele>
        <time>2019-02-21T12:27:37Z</time>
      </trkpt>
      <trkpt lat="43.68737" lon="3.06339">
        <ele>710.07</ele>
        <time>2019-02-21T12:27:50Z</time>
      </trkpt>
      <trkpt lat="43.68737" lon="3.06341">
        <ele>710.07</ele>
        <time>2019-02-21T12:27:57Z</time>
      </trkpt>
      <trkpt lat="43.68741" lon="3.06355">
        <ele>707.67</ele>
        <time>2019-02-21T12:28:07Z</time>
      </trkpt>
      <trkpt lat="43.68745" lon="3.06366">
        <ele>704.78</ele>
        <time>2019-02-21T12:28:17Z</time>
      </trkpt>
      <trkpt lat="43.68746" lon="3.06373">
        <ele>703.82</ele>
        <time>2019-02-21T12:28:24Z</time>
      </trkpt>
      <trkpt lat="43.68745" lon="3.06381">
        <ele>703.82</ele>
        <time>2019-02-21T12:28:35Z</time>
      </trkpt>
      <trkpt lat="43.68745" lon="3.06382">
        <ele>703.34</ele>
        <time>2019-02-21T12:28:42Z</time>
      </trkpt>
      <trkpt lat="43.68745" lon="3.06388">
        <ele>703.34</ele>
        <time>2019-02-21T12:28:48Z</time>
      </trkpt>
      <trkpt lat="43.68747" lon="3.06404">
        <ele>700.46</ele>
        <time>2019-02-21T12:28:59Z</time>
      </trkpt>
      <trkpt lat="43.6875" lon="3.06407">
        <ele>699.02</ele>
        <time>2019-02-21T12:29:05Z</time>
      </trkpt>
      <trkpt lat="43.68751" lon="3.0642">
        <ele>697.57</ele>
        <time>2019-02-21T12:29:12Z</time>
      </trkpt>
      <trkpt lat="43.68753" lon="3.06427">
        <ele>696.13</ele>
        <time>2019-02-21T12:29:17Z</time>
      </trkpt>
      <trkpt lat="43.68752" lon="3.06441">
        <ele>695.17</ele>
        <time>2019-02-21T12:29:28Z</time>
      </trkpt>
      <trkpt lat="43.68752" lon="3.06445">
        <ele>695.17</ele>
        <time>2019-02-21T12:29:31Z</time>
      </trkpt>
      <trkpt lat="43.68753" lon="3.06453">
        <ele>694.69</ele>
        <time>2019-02-21T12:29:37Z</time>
      </trkpt>
      <trkpt lat="43.68752" lon="3.06466">
        <ele>692.77</ele>
        <time>2019-02-21T12:29:47Z</time>
      </trkpt>
      <trkpt lat="43.68756" lon="3.06481">
        <ele>689.4</ele>
        <time>2019-02-21T12:30:01Z</time>
      </trkpt>
      <trkpt lat="43.68756" lon="3.06493">
        <ele>687</ele>
        <time>2019-02-21T12:30:14Z</time>
      </trkpt>
      <trkpt lat="43.68754" lon="3.06502">
        <ele>686.04</ele>
        <time>2019-02-21T12:30:27Z</time>
      </trkpt>
      <trkpt lat="43.68752" lon="3.06512">
        <ele>685.08</ele>
        <time>2019-02-21T12:30:38Z</time>
      </trkpt>
      <trkpt lat="43.68751" lon="3.06524">
        <ele>682.67</ele>
        <time>2019-02-21T12:30:50Z</time>
      </trkpt>
      <trkpt lat="43.68751" lon="3.06533">
        <ele>681.23</ele>
        <time>2019-02-21T12:30:57Z</time>
      </trkpt>
      <trkpt lat="43.68751" lon="3.06537">
        <ele>681.23</ele>
        <time>2019-02-21T12:31:02Z</time>
      </trkpt>
      <trkpt lat="43.68752" lon="3.06546">
        <ele>679.79</ele>
        <time>2019-02-21T12:31:15Z</time>
      </trkpt>
      <trkpt lat="43.68754" lon="3.06551">
        <ele>677.87</ele>
        <time>2019-02-21T12:31:32Z</time>
      </trkpt>
      <trkpt lat="43.6876" lon="3.06553">
        <ele>676.42</ele>
        <time>2019-02-21T12:31:47Z</time>
      </trkpt>
      <trkpt lat="43.68765" lon="3.06549">
        <ele>674.98</ele>
        <time>2019-02-21T12:32:01Z</time>
      </trkpt>
      <trkpt lat="43.68769" lon="3.06555">
        <ele>672.58</ele>
        <time>2019-02-21T12:32:13Z</time>
      </trkpt>
      <trkpt lat="43.68771" lon="3.06559">
        <ele>669.7</ele>
        <time>2019-02-21T12:32:27Z</time>
      </trkpt>
      <trkpt lat="43.68775" lon="3.06553">
        <ele>669.22</ele>
        <time>2019-02-21T12:32:40Z</time>
      </trkpt>
      <trkpt lat="43.6878" lon="3.06552">
        <ele>666.81</ele>
        <time>2019-02-21T12:32:57Z</time>
      </trkpt>
      <trkpt lat="43.68778" lon="3.06559">
        <ele>663.93</ele>
        <time>2019-02-21T12:33:12Z</time>
      </trkpt>
      <trkpt lat="43.68778" lon="3.06562">
        <ele>662.97</ele>
        <time>2019-02-21T12:33:18Z</time>
      </trkpt>
      <trkpt lat="43.68778" lon="3.06565">
        <ele>662.01</ele>
        <time>2019-02-21T12:33:23Z</time>
      </trkpt>
      <trkpt lat="43.68777" lon="3.06568">
        <ele>662.01</ele>
        <time>2019-02-21T12:33:26Z</time>
      </trkpt>
      <trkpt lat="43.68777" lon="3.0657">
        <ele>662.01</ele>
        <time>2019-02-21T12:33:28Z</time>
      </trkpt>
      <trkpt lat="43.68774" lon="3.06576">
        <ele>662.01</ele>
        <time>2019-02-21T12:33:35Z</time>
      </trkpt>
      <trkpt lat="43.68773" lon="3.06579">
        <ele>662.01</ele>
        <time>2019-02-21T12:33:38Z</time>
      </trkpt>
      <trkpt lat="43.68772" lon="3.06599">
        <ele>662.01</ele>
        <time>2019-02-21T12:33:50Z</time>
      </trkpt>
      <trkpt lat="43.6877" lon="3.06606">
        <ele>664.41</ele>
        <time>2019-02-21T12:34:00Z</time>
      </trkpt>
      <trkpt lat="43.68766" lon="3.06617">
        <ele>664.89</ele>
        <time>2019-02-21T12:34:10Z</time>
      </trkpt>
      <trkpt lat="43.68763" lon="3.0663">
        <ele>664.89</ele>
        <time>2019-02-21T12:34:20Z</time>
      </trkpt>
      <trkpt lat="43.68764" lon="3.06635">
        <ele>663.45</ele>
        <time>2019-02-21T12:34:24Z</time>
      </trkpt>
      <trkpt lat="43.68763" lon="3.06646">
        <ele>661.52</ele>
        <time>2019-02-21T12:34:37Z</time>
      </trkpt>
      <trkpt lat="43.6876" lon="3.06655">
        <ele>660.08</ele>
        <time>2019-02-21T12:34:47Z</time>
      </trkpt>
      <trkpt lat="43.68759" lon="3.06657">
        <ele>659.6</ele>
        <time>2019-02-21T12:34:49Z</time>
      </trkpt>
      <trkpt lat="43.68758" lon="3.06668">
        <ele>658.64</ele>
        <time>2019-02-21T12:34:57Z</time>
      </trkpt>
      <trkpt lat="43.68757" lon="3.06677">
        <ele>657.68</ele>
        <time>2019-02-21T12:35:05Z</time>
      </trkpt>
      <trkpt lat="43.68754" lon="3.06682">
        <ele>657.68</ele>
        <time>2019-02-21T12:35:20Z</time>
      </trkpt>
      <trkpt lat="43.68759" lon="3.0669">
        <ele>656.24</ele>
        <time>2019-02-21T12:35:33Z</time>
      </trkpt>
      <trkpt lat="43.68762" lon="3.06698">
        <ele>653.35</ele>
        <time>2019-02-21T12:35:43Z</time>
      </trkpt>
      <trkpt lat="43.68765" lon="3.06704">
        <ele>651.43</ele>
        <time>2019-02-21T12:35:53Z</time>
      </trkpt>
      <trkpt lat="43.68768" lon="3.06709">
        <ele>649.99</ele>
        <time>2019-02-21T12:36:05Z</time>
      </trkpt>
      <trkpt lat="43.68773" lon="3.06713">
        <ele>646.62</ele>
        <time>2019-02-21T12:36:16Z</time>
      </trkpt>
      <trkpt lat="43.68777" lon="3.06722">
        <ele>645.18</ele>
        <time>2019-02-21T12:36:25Z</time>
      </trkpt>
      <trkpt lat="43.68783" lon="3.06728">
        <ele>643.74</ele>
        <time>2019-02-21T12:36:33Z</time>
      </trkpt>
      <trkpt lat="43.68786" lon="3.06731">
        <ele>642.78</ele>
        <time>2019-02-21T12:36:47Z</time>
      </trkpt>
      <trkpt lat="43.68788" lon="3.06732">
        <ele>642.3</ele>
        <time>2019-02-21T12:37:03Z</time>
      </trkpt>
      <trkpt lat="43.68787" lon="3.06733">
        <ele>642.3</ele>
        <time>2019-02-21T12:37:22Z</time>
      </trkpt>
      <trkpt lat="43.6879" lon="3.06733">
        <ele>642.3</ele>
        <time>2019-02-21T12:37:44Z</time>
      </trkpt>
      <trkpt lat="43.68791" lon="3.06732">
        <ele>641.82</ele>
        <time>2019-02-21T12:38:02Z</time>
      </trkpt>
      <trkpt lat="43.68796" lon="3.0673">
        <ele>639.41</ele>
        <time>2019-02-21T12:38:14Z</time>
      </trkpt>
      <trkpt lat="43.68798" lon="3.06731">
        <ele>638.45</ele>
        <time>2019-02-21T12:38:16Z</time>
      </trkpt>
      <trkpt lat="43.68803" lon="3.06728">
        <ele>637.01</ele>
        <time>2019-02-21T12:38:23Z</time>
      </trkpt>
      <trkpt lat="43.68804" lon="3.06724">
        <ele>636.05</ele>
        <time>2019-02-21T12:38:27Z</time>
      </trkpt>
      <trkpt lat="43.68804" lon="3.06712">
        <ele>633.65</ele>
        <time>2019-02-21T12:38:37Z</time>
      </trkpt>
      <trkpt lat="43.68801" lon="3.06702">
        <ele>633.65</ele>
        <time>2019-02-21T12:38:47Z</time>
      </trkpt>
      <trkpt lat="43.68804" lon="3.06696">
        <ele>632.2</ele>
        <time>2019-02-21T12:38:58Z</time>
      </trkpt>
      <trkpt lat="43.68805" lon="3.06695">
        <ele>630.76</ele>
        <time>2019-02-21T12:39:03Z</time>
      </trkpt>
      <trkpt lat="43.68807" lon="3.06693">
        <ele>629.8</ele>
        <time>2019-02-21T12:39:13Z</time>
      </trkpt>
      <trkpt lat="43.68811" lon="3.06694">
        <ele>627.4</ele>
        <time>2019-02-21T12:39:21Z</time>
      </trkpt>
      <trkpt lat="43.68812" lon="3.06693">
        <ele>626.44</ele>
        <time>2019-02-21T12:39:23Z</time>
      </trkpt>
      <trkpt lat="43.68812" lon="3.06691">
        <ele>624.51</ele>
        <time>2019-02-21T12:39:39Z</time>
      </trkpt>
      <trkpt lat="43.68814" lon="3.06691">
        <ele>624.03</ele>
        <time>2019-02-21T12:39:57Z</time>
      </trkpt>
      <trkpt lat="43.68814" lon="3.06692">
        <ele>623.55</ele>
        <time>2019-02-21T12:40:14Z</time>
      </trkpt>
      <trkpt lat="43.68814" lon="3.067">
        <ele>623.07</ele>
        <time>2019-02-21T12:40:24Z</time>
      </trkpt>
      <trkpt lat="43.68819" lon="3.06699">
        <ele>621.15</ele>
        <time>2019-02-21T12:40:39Z</time>
      </trkpt>
      <trkpt lat="43.6882" lon="3.06696">
        <ele>620.67</ele>
        <time>2019-02-21T12:40:58Z</time>
      </trkpt>
      <trkpt lat="43.68821" lon="3.06694">
        <ele>619.71</ele>
        <time>2019-02-21T12:41:13Z</time>
      </trkpt>
      <trkpt lat="43.68822" lon="3.06696">
        <ele>618.26</ele>
        <time>2019-02-21T12:41:19Z</time>
      </trkpt>
      <trkpt lat="43.68826" lon="3.067">
        <ele>616.82</ele>
        <time>2019-02-21T12:41:33Z</time>
      </trkpt>
      <trkpt lat="43.68829" lon="3.06705">
        <ele>615.38</ele>
        <time>2019-02-21T12:41:55Z</time>
      </trkpt>
      <trkpt lat="43.68832" lon="3.06705">
        <ele>613.94</ele>
        <time>2019-02-21T12:42:11Z</time>
      </trkpt>
      <trkpt lat="43.68834" lon="3.06706">
        <ele>612.98</ele>
        <time>2019-02-21T12:42:39Z</time>
      </trkpt>
      <trkpt lat="43.68836" lon="3.06706">
        <ele>611.54</ele>
        <time>2019-02-21T12:42:55Z</time>
      </trkpt>
      <trkpt lat="43.68837" lon="3.06702">
        <ele>610.57</ele>
        <time>2019-02-21T12:43:21Z</time>
      </trkpt>
      <trkpt lat="43.68838" lon="3.06701">
        <ele>609.13</ele>
        <time>2019-02-21T12:43:40Z</time>
      </trkpt>
      <trkpt lat="43.6884" lon="3.06703">
        <ele>607.69</ele>
        <time>2019-02-21T12:43:51Z</time>
      </trkpt>
      <trkpt lat="43.68842" lon="3.06707">
        <ele>605.29</ele>
        <time>2019-02-21T12:44:04Z</time>
      </trkpt>
      <trkpt lat="43.68846" lon="3.06712">
        <ele>603.85</ele>
        <time>2019-02-21T12:44:12Z</time>
      </trkpt>
      <trkpt lat="43.68851" lon="3.06721">
        <ele>601.44</ele>
        <time>2019-02-21T12:44:23Z</time>
      </trkpt>
      <trkpt lat="43.68852" lon="3.0672">
        <ele>601.44</ele>
        <time>2019-02-21T12:44:24Z</time>
      </trkpt>
      <trkpt lat="43.68854" lon="3.06711">
        <ele>599.52</ele>
        <time>2019-02-21T12:44:39Z</time>
      </trkpt>
      <trkpt lat="43.68855" lon="3.06705">
        <ele>598.56</ele>
        <time>2019-02-21T12:44:53Z</time>
      </trkpt>
      <trkpt lat="43.68856" lon="3.06695">
        <ele>596.64</ele>
        <time>2019-02-21T12:45:06Z</time>
      </trkpt>
      <trkpt lat="43.68857" lon="3.06693">
        <ele>594.71</ele>
        <time>2019-02-21T12:45:20Z</time>
      </trkpt>
      <trkpt lat="43.68861" lon="3.06695">
        <ele>594.71</ele>
        <time>2019-02-21T12:45:24Z</time>
      </trkpt>
      <trkpt lat="43.68861" lon="3.06697">
        <ele>594.71</ele>
        <time>2019-02-21T12:45:26Z</time>
      </trkpt>
      <trkpt lat="43.68862" lon="3.06704">
        <ele>593.27</ele>
        <time>2019-02-21T12:45:33Z</time>
      </trkpt>
      <trkpt lat="43.68867" lon="3.06707">
        <ele>592.31</ele>
        <time>2019-02-21T12:45:40Z</time>
      </trkpt>
      <trkpt lat="43.68869" lon="3.0671">
        <ele>591.83</ele>
        <time>2019-02-21T12:45:44Z</time>
      </trkpt>
      <trkpt lat="43.68877" lon="3.06713">
        <ele>590.87</ele>
        <time>2019-02-21T12:45:55Z</time>
      </trkpt>
      <trkpt lat="43.6888" lon="3.06711">
        <ele>592.31</ele>
        <time>2019-02-21T12:46:00Z</time>
      </trkpt>
      <trkpt lat="43.68883" lon="3.06712">
        <ele>593.27</ele>
        <time>2019-02-21T12:46:04Z</time>
      </trkpt>
      <trkpt lat="43.68886" lon="3.06712">
        <ele>594.23</ele>
        <time>2019-02-21T12:46:08Z</time>
      </trkpt>
      <trkpt lat="43.68893" lon="3.06715">
        <ele>594.23</ele>
        <time>2019-02-21T12:46:16Z</time>
      </trkpt>
      <trkpt lat="43.689" lon="3.06709">
        <ele>597.12</ele>
        <time>2019-02-21T12:46:29Z</time>
      </trkpt>
      <trkpt lat="43.68908" lon="3.06705">
        <ele>598.08</ele>
        <time>2019-02-21T12:46:40Z</time>
      </trkpt>
      <trkpt lat="43.68911" lon="3.06708">
        <ele>596.64</ele>
        <time>2019-02-21T12:46:48Z</time>
      </trkpt>
      <trkpt lat="43.68917" lon="3.06711">
        <ele>595.67</ele>
        <time>2019-02-21T12:47:00Z</time>
      </trkpt>
      <trkpt lat="43.68922" lon="3.06709">
        <ele>594.71</ele>
        <time>2019-02-21T12:47:18Z</time>
      </trkpt>
      <trkpt lat="43.6892" lon="3.06713">
        <ele>594.71</ele>
        <time>2019-02-21T12:47:25Z</time>
      </trkpt>
      <trkpt lat="43.68916" lon="3.06719">
        <ele>597.12</ele>
        <time>2019-02-21T12:47:36Z</time>
      </trkpt>
      <trkpt lat="43.68916" lon="3.06722">
        <ele>597.6</ele>
        <time>2019-02-21T12:47:40Z</time>
      </trkpt>
      <trkpt lat="43.68916" lon="3.06724">
        <ele>598.56</ele>
        <time>2019-02-21T12:47:45Z</time>
      </trkpt>
      <trkpt lat="43.68916" lon="3.0673">
        <ele>600.96</ele>
        <time>2019-02-21T12:47:55Z</time>
      </trkpt>
      <trkpt lat="43.68921" lon="3.06734">
        <ele>602.88</ele>
        <time>2019-02-21T12:48:10Z</time>
      </trkpt>
      <trkpt lat="43.68922" lon="3.06738">
        <ele>604.33</ele>
        <time>2019-02-21T12:48:22Z</time>
      </trkpt>
      <trkpt lat="43.68922" lon="3.06745">
        <ele>606.73</ele>
        <time>2019-02-21T12:48:33Z</time>
      </trkpt>
      <trkpt lat="43.68925" lon="3.06751">
        <ele>608.65</ele>
        <time>2019-02-21T12:48:45Z</time>
      </trkpt>
      <trkpt lat="43.6893" lon="3.06755">
        <ele>609.61</ele>
        <time>2019-02-21T12:48:56Z</time>
      </trkpt>
      <trkpt lat="43.68936" lon="3.0676">
        <ele>611.54</ele>
        <time>2019-02-21T12:49:05Z</time>
      </trkpt>
      <trkpt lat="43.68941" lon="3.06766">
        <ele>612.98</ele>
        <time>2019-02-21T12:49:16Z</time>
      </trkpt>
      <trkpt lat="43.68945" lon="3.06772">
        <ele>612.98</ele>
        <time>2019-02-21T12:49:25Z</time>
      </trkpt>
      <trkpt lat="43.68952" lon="3.06779">
        <ele>613.46</ele>
        <time>2019-02-21T12:49:34Z</time>
      </trkpt>
      <trkpt lat="43.68953" lon="3.06778">
        <ele>613.46</ele>
        <time>2019-02-21T12:49:35Z</time>
      </trkpt>
      <trkpt lat="43.6896" lon="3.06782">
        <ele>613.94</ele>
        <time>2019-02-21T12:49:45Z</time>
      </trkpt>
      <trkpt lat="43.68963" lon="3.06789">
        <ele>613.94</ele>
        <time>2019-02-21T12:49:55Z</time>
      </trkpt>
      <trkpt lat="43.68963" lon="3.06792">
        <ele>614.42</ele>
        <time>2019-02-21T12:49:59Z</time>
      </trkpt>
      <trkpt lat="43.68964" lon="3.06799">
        <ele>616.34</ele>
        <time>2019-02-21T12:50:10Z</time>
      </trkpt>
      <trkpt lat="43.68966" lon="3.06799">
        <ele>614.42</ele>
        <time>2019-02-21T12:50:27Z</time>
      </trkpt>
      <trkpt lat="43.68966" lon="3.06799">
        <ele>615.38</ele>
        <time>2019-02-21T12:50:33Z</time>
      </trkpt>
      <trkpt lat="43.6897" lon="3.06802">
        <ele>615.38</ele>
        <time>2019-02-21T12:51:02Z</time>
      </trkpt>
      <trkpt lat="43.68971" lon="3.06802">
        <ele>615.86</ele>
        <time>2019-02-21T12:51:33Z</time>
      </trkpt>
      <trkpt lat="43.6897" lon="3.06804">
        <ele>616.34</ele>
        <time>2019-02-21T12:52:05Z</time>
      </trkpt>
      <trkpt lat="43.68966" lon="3.06806">
        <ele>616.34</ele>
        <time>2019-02-21T12:52:28Z</time>
      </trkpt>
      <trkpt lat="43.6897" lon="3.06805">
        <ele>614.9</ele>
        <time>2019-02-21T12:52:49Z</time>
      </trkpt>
      <trkpt lat="43.68969" lon="3.06809">
        <ele>616.34</ele>
        <time>2019-02-21T12:53:00Z</time>
      </trkpt>
      <trkpt lat="43.68968" lon="3.06814">
        <ele>616.34</ele>
        <time>2019-02-21T12:53:14Z</time>
      </trkpt>
      <trkpt lat="43.68968" lon="3.06814">
        <ele>616.34</ele>
        <time>2019-02-21T12:53:36Z</time>
      </trkpt>
      <trkpt lat="43.68967" lon="3.06816">
        <ele>614.9</ele>
        <time>2019-02-21T12:53:44Z</time>
      </trkpt>
      <trkpt lat="43.68963" lon="3.06817">
        <ele>611.54</ele>
        <time>2019-02-21T12:53:57Z</time>
      </trkpt>
      <trkpt lat="43.68961" lon="3.06819">
        <ele>607.69</ele>
        <time>2019-02-21T12:54:10Z</time>
      </trkpt>
      <trkpt lat="43.68959" lon="3.06821">
        <ele>606.25</ele>
        <time>2019-02-21T12:54:27Z</time>
      </trkpt>
      <trkpt lat="43.68959" lon="3.06823">
        <ele>604.81</ele>
        <time>2019-02-21T12:54:42Z</time>
      </trkpt>
      <trkpt lat="43.68957" lon="3.06823">
        <ele>603.85</ele>
        <time>2019-02-21T12:54:55Z</time>
      </trkpt>
      <trkpt lat="43.68953" lon="3.06823">
        <ele>601.92</ele>
        <time>2019-02-21T12:55:09Z</time>
      </trkpt>
      <trkpt lat="43.68952" lon="3.06828">
        <ele>601.92</ele>
        <time>2019-02-21T12:55:12Z</time>
      </trkpt>
      <trkpt lat="43.68945" lon="3.06838">
        <ele>599.04</ele>
        <time>2019-02-21T12:55:24Z</time>
      </trkpt>
      <trkpt lat="43.68945" lon="3.06839">
        <ele>598.56</ele>
        <time>2019-02-21T12:55:25Z</time>
      </trkpt>
      <trkpt lat="43.6894" lon="3.06844">
        <ele>596.64</ele>
        <time>2019-02-21T12:55:37Z</time>
      </trkpt>
      <trkpt lat="43.68938" lon="3.06847">
        <ele>594.71</ele>
        <time>2019-02-21T12:55:52Z</time>
      </trkpt>
      <trkpt lat="43.68935" lon="3.06843">
        <ele>592.79</ele>
        <time>2019-02-21T12:56:04Z</time>
      </trkpt>
      <trkpt lat="43.68932" lon="3.06842">
        <ele>590.39</ele>
        <time>2019-02-21T12:56:17Z</time>
      </trkpt>
      <trkpt lat="43.6893" lon="3.0684">
        <ele>588.95</ele>
        <time>2019-02-21T12:56:27Z</time>
      </trkpt>
      <trkpt lat="43.68927" lon="3.0684">
        <ele>587.98</ele>
        <time>2019-02-21T12:56:40Z</time>
      </trkpt>
      <trkpt lat="43.68926" lon="3.06839">
        <ele>587.5</ele>
        <time>2019-02-21T12:56:46Z</time>
      </trkpt>
      <trkpt lat="43.68922" lon="3.06842">
        <ele>585.58</ele>
        <time>2019-02-21T12:56:57Z</time>
      </trkpt>
      <trkpt lat="43.68921" lon="3.06847">
        <ele>584.62</ele>
        <time>2019-02-21T12:57:13Z</time>
      </trkpt>
      <trkpt lat="43.68916" lon="3.06851">
        <ele>581.73</ele>
        <time>2019-02-21T12:57:26Z</time>
      </trkpt>
      <trkpt lat="43.68916" lon="3.06857">
        <ele>580.77</ele>
        <time>2019-02-21T12:57:37Z</time>
      </trkpt>
      <trkpt lat="43.68911" lon="3.06859">
        <ele>579.33</ele>
        <time>2019-02-21T12:57:47Z</time>
      </trkpt>
      <trkpt lat="43.6891" lon="3.0686">
        <ele>577.89</ele>
        <time>2019-02-21T12:58:00Z</time>
      </trkpt>
      <trkpt lat="43.68908" lon="3.06861">
        <ele>576.45</ele>
        <time>2019-02-21T12:58:10Z</time>
      </trkpt>
      <trkpt lat="43.68904" lon="3.06866">
        <ele>574.53</ele>
        <time>2019-02-21T12:58:15Z</time>
      </trkpt>
      <trkpt lat="43.68902" lon="3.06876">
        <ele>574.53</ele>
        <time>2019-02-21T12:58:23Z</time>
      </trkpt>
      <trkpt lat="43.68901" lon="3.06879">
        <ele>574.53</ele>
        <time>2019-02-21T12:58:26Z</time>
      </trkpt>
      <trkpt lat="43.689" lon="3.06883">
        <ele>574.53</ele>
        <time>2019-02-21T12:58:30Z</time>
      </trkpt>
      <trkpt lat="43.68899" lon="3.06886">
        <ele>574.04</ele>
        <time>2019-02-21T12:58:33Z</time>
      </trkpt>
      <trkpt lat="43.68893" lon="3.0689">
        <ele>571.64</ele>
        <time>2019-02-21T12:58:46Z</time>
      </trkpt>
      <trkpt lat="43.68889" lon="3.06891">
        <ele>569.24</ele>
        <time>2019-02-21T12:58:57Z</time>
      </trkpt>
      <trkpt lat="43.68889" lon="3.06888">
        <ele>567.8</ele>
        <time>2019-02-21T12:59:11Z</time>
      </trkpt>
      <trkpt lat="43.68886" lon="3.06887">
        <ele>565.87</ele>
        <time>2019-02-21T12:59:17Z</time>
      </trkpt>
      <trkpt lat="43.68881" lon="3.06886">
        <ele>564.43</ele>
        <time>2019-02-21T12:59:28Z</time>
      </trkpt>
      <trkpt lat="43.68878" lon="3.06884">
        <ele>562.51</ele>
        <time>2019-02-21T12:59:37Z</time>
      </trkpt>
      <trkpt lat="43.68878" lon="3.06881">
        <ele>561.55</ele>
        <time>2019-02-21T12:59:41Z</time>
      </trkpt>
      <trkpt lat="43.68876" lon="3.06877">
        <ele>559.62</ele>
        <time>2019-02-21T12:59:58Z</time>
      </trkpt>
      <trkpt lat="43.6887" lon="3.06878">
        <ele>558.18</ele>
        <time>2019-02-21T13:00:09Z</time>
      </trkpt>
      <trkpt lat="43.68867" lon="3.06883">
        <ele>556.74</ele>
        <time>2019-02-21T13:00:25Z</time>
      </trkpt>
      <trkpt lat="43.68865" lon="3.06883">
        <ele>555.3</ele>
        <time>2019-02-21T13:00:38Z</time>
      </trkpt>
      <trkpt lat="43.6886" lon="3.06888">
        <ele>553.38</ele>
        <time>2019-02-21T13:00:54Z</time>
      </trkpt>
      <trkpt lat="43.68861" lon="3.06891">
        <ele>552.41</ele>
        <time>2019-02-21T13:01:06Z</time>
      </trkpt>
      <trkpt lat="43.68861" lon="3.06897">
        <ele>550.97</ele>
        <time>2019-02-21T13:01:23Z</time>
      </trkpt>
      <trkpt lat="43.68861" lon="3.06902">
        <ele>549.53</ele>
        <time>2019-02-21T13:01:43Z</time>
      </trkpt>
      <trkpt lat="43.68864" lon="3.06908">
        <ele>548.57</ele>
        <time>2019-02-21T13:01:54Z</time>
      </trkpt>
      <trkpt lat="43.68861" lon="3.06911">
        <ele>546.17</ele>
        <time>2019-02-21T13:02:07Z</time>
      </trkpt>
      <trkpt lat="43.68855" lon="3.06905">
        <ele>543.76</ele>
        <time>2019-02-21T13:02:23Z</time>
      </trkpt>
      <trkpt lat="43.68855" lon="3.06905">
        <ele>543.76</ele>
        <time>2019-02-21T13:02:24Z</time>
      </trkpt>
      <trkpt lat="43.68851" lon="3.06909">
        <ele>540.4</ele>
        <time>2019-02-21T13:02:37Z</time>
      </trkpt>
      <trkpt lat="43.68848" lon="3.06917">
        <ele>537.99</ele>
        <time>2019-02-21T13:02:48Z</time>
      </trkpt>
      <trkpt lat="43.68851" lon="3.0693">
        <ele>537.03</ele>
        <time>2019-02-21T13:02:59Z</time>
      </trkpt>
      <trkpt lat="43.68851" lon="3.06934">
        <ele>536.55</ele>
        <time>2019-02-21T13:03:14Z</time>
      </trkpt>
      <trkpt lat="43.68851" lon="3.06935">
        <ele>535.59</ele>
        <time>2019-02-21T13:03:15Z</time>
      </trkpt>
      <trkpt lat="43.68853" lon="3.0694">
        <ele>535.11</ele>
        <time>2019-02-21T13:03:28Z</time>
      </trkpt>
      <trkpt lat="43.68852" lon="3.06942">
        <ele>536.55</ele>
        <time>2019-02-21T13:03:31Z</time>
      </trkpt>
      <trkpt lat="43.68851" lon="3.0695">
        <ele>536.55</ele>
        <time>2019-02-21T13:03:43Z</time>
      </trkpt>
      <trkpt lat="43.68854" lon="3.06957">
        <ele>534.15</ele>
        <time>2019-02-21T13:03:54Z</time>
      </trkpt>
      <trkpt lat="43.68856" lon="3.06961">
        <ele>532.71</ele>
        <time>2019-02-21T13:04:02Z</time>
      </trkpt>
      <trkpt lat="43.6886" lon="3.06967">
        <ele>531.27</ele>
        <time>2019-02-21T13:04:14Z</time>
      </trkpt>
      <trkpt lat="43.68861" lon="3.06968">
        <ele>529.82</ele>
        <time>2019-02-21T13:04:27Z</time>
      </trkpt>
      <trkpt lat="43.68863" lon="3.06971">
        <ele>527.9</ele>
        <time>2019-02-21T13:04:39Z</time>
      </trkpt>
      <trkpt lat="43.68863" lon="3.06977">
        <ele>525.98</ele>
        <time>2019-02-21T13:04:52Z</time>
      </trkpt>
      <trkpt lat="43.68863" lon="3.06981">
        <ele>524.54</ele>
        <time>2019-02-21T13:05:07Z</time>
      </trkpt>
      <trkpt lat="43.68863" lon="3.06981">
        <ele>524.54</ele>
        <time>2019-02-21T13:05:08Z</time>
      </trkpt>
      <trkpt lat="43.68864" lon="3.06985">
        <ele>523.58</ele>
        <time>2019-02-21T13:05:11Z</time>
      </trkpt>
      <trkpt lat="43.68864" lon="3.0699">
        <ele>522.13</ele>
        <time>2019-02-21T13:05:16Z</time>
      </trkpt>
      <trkpt lat="43.68863" lon="3.06996">
        <ele>521.17</ele>
        <time>2019-02-21T13:05:28Z</time>
      </trkpt>
      <trkpt lat="43.68863" lon="3.07">
        <ele>520.21</ele>
        <time>2019-02-21T13:05:33Z</time>
      </trkpt>
      <trkpt lat="43.6886" lon="3.07005">
        <ele>518.29</ele>
        <time>2019-02-21T13:05:45Z</time>
      </trkpt>
      <trkpt lat="43.68857" lon="3.07009">
        <ele>517.33</ele>
        <time>2019-02-21T13:05:57Z</time>
      </trkpt>
      <trkpt lat="43.68857" lon="3.07014">
        <ele>517.33</ele>
        <time>2019-02-21T13:06:10Z</time>
      </trkpt>
      <trkpt lat="43.68858" lon="3.07019">
        <ele>516.37</ele>
        <time>2019-02-21T13:06:25Z</time>
      </trkpt>
      <trkpt lat="43.68857" lon="3.07019">
        <ele>515.88</ele>
        <time>2019-02-21T13:06:30Z</time>
      </trkpt>
      <trkpt lat="43.68855" lon="3.07023">
        <ele>514.92</ele>
        <time>2019-02-21T13:06:35Z</time>
      </trkpt>
      <trkpt lat="43.68852" lon="3.07023">
        <ele>513</ele>
        <time>2019-02-21T13:06:49Z</time>
      </trkpt>
      <trkpt lat="43.68851" lon="3.07023">
        <ele>512.52</ele>
        <time>2019-02-21T13:06:51Z</time>
      </trkpt>
      <trkpt lat="43.68847" lon="3.0703">
        <ele>509.64</ele>
        <time>2019-02-21T13:07:03Z</time>
      </trkpt>
      <trkpt lat="43.68845" lon="3.07034">
        <ele>507.71</ele>
        <time>2019-02-21T13:07:16Z</time>
      </trkpt>
      <trkpt lat="43.68844" lon="3.07034">
        <ele>505.31</ele>
        <time>2019-02-21T13:07:32Z</time>
      </trkpt>
      <trkpt lat="43.68842" lon="3.07042">
        <ele>503.39</ele>
        <time>2019-02-21T13:07:45Z</time>
      </trkpt>
      <trkpt lat="43.68837" lon="3.07045">
        <ele>501.95</ele>
        <time>2019-02-21T13:07:57Z</time>
      </trkpt>
      <trkpt lat="43.68832" lon="3.07044">
        <ele>500.5</ele>
        <time>2019-02-21T13:08:12Z</time>
      </trkpt>
      <trkpt lat="43.6883" lon="3.07042">
        <ele>498.58</ele>
        <time>2019-02-21T13:08:24Z</time>
      </trkpt>
      <trkpt lat="43.68827" lon="3.07045">
        <ele>496.66</ele>
        <time>2019-02-21T13:08:36Z</time>
      </trkpt>
      <trkpt lat="43.68824" lon="3.0705">
        <ele>494.74</ele>
        <time>2019-02-21T13:08:49Z</time>
      </trkpt>
      <trkpt lat="43.68823" lon="3.07051">
        <ele>494.74</ele>
        <time>2019-02-21T13:09:02Z</time>
      </trkpt>
      <trkpt lat="43.68823" lon="3.07051">
        <ele>493.29</ele>
        <time>2019-02-21T13:09:05Z</time>
      </trkpt>
      <trkpt lat="43.6882" lon="3.07053">
        <ele>491.85</ele>
        <time>2019-02-21T13:09:17Z</time>
      </trkpt>
      <trkpt lat="43.68818" lon="3.07058">
        <ele>490.41</ele>
        <time>2019-02-21T13:09:30Z</time>
      </trkpt>
      <trkpt lat="43.68815" lon="3.07059">
        <ele>488.49</ele>
        <time>2019-02-21T13:09:42Z</time>
      </trkpt>
      <trkpt lat="43.68809" lon="3.07058">
        <ele>486.08</ele>
        <time>2019-02-21T13:09:54Z</time>
      </trkpt>
      <trkpt lat="43.68804" lon="3.07059">
        <ele>483.2</ele>
        <time>2019-02-21T13:10:06Z</time>
      </trkpt>
      <trkpt lat="43.68798" lon="3.0706">
        <ele>481.76</ele>
        <time>2019-02-21T13:10:19Z</time>
      </trkpt>
      <trkpt lat="43.68794" lon="3.07059">
        <ele>479.84</ele>
        <time>2019-02-21T13:10:33Z</time>
      </trkpt>
      <trkpt lat="43.68788" lon="3.07062">
        <ele>477.91</ele>
        <time>2019-02-21T13:10:46Z</time>
      </trkpt>
      <trkpt lat="43.68785" lon="3.07066">
        <ele>475.03</ele>
        <time>2019-02-21T13:11:00Z</time>
      </trkpt>
      <trkpt lat="43.68781" lon="3.07072">
        <ele>473.11</ele>
        <time>2019-02-21T13:11:15Z</time>
      </trkpt>
      <trkpt lat="43.6878" lon="3.07073">
        <ele>471.66</ele>
        <time>2019-02-21T13:11:30Z</time>
      </trkpt>
      <trkpt lat="43.68777" lon="3.07081">
        <ele>470.22</ele>
        <time>2019-02-21T13:11:46Z</time>
      </trkpt>
      <trkpt lat="43.68772" lon="3.07086">
        <ele>471.18</ele>
        <time>2019-02-21T13:11:59Z</time>
      </trkpt>
      <trkpt lat="43.68772" lon="3.07091">
        <ele>471.18</ele>
        <time>2019-02-21T13:12:13Z</time>
      </trkpt>
      <trkpt lat="43.68771" lon="3.07092">
        <ele>471.66</ele>
        <time>2019-02-21T13:12:30Z</time>
      </trkpt>
      <trkpt lat="43.68771" lon="3.07086">
        <ele>471.66</ele>
        <time>2019-02-21T13:12:55Z</time>
      </trkpt>
      <trkpt lat="43.6877" lon="3.07085">
        <ele>471.66</ele>
        <time>2019-02-21T13:13:37Z</time>
      </trkpt>
      <trkpt lat="43.68774" lon="3.07089">
        <ele>471.66</ele>
        <time>2019-02-21T13:14:17Z</time>
      </trkpt>
      <trkpt lat="43.68776" lon="3.07091">
        <ele>471.66</ele>
        <time>2019-02-21T13:14:49Z</time>
      </trkpt>
      <trkpt lat="43.68777" lon="3.07095">
        <ele>471.18</ele>
        <time>2019-02-21T13:15:22Z</time>
      </trkpt>
      <trkpt lat="43.68777" lon="3.07093">
        <ele>471.18</ele>
        <time>2019-02-21T13:15:57Z</time>
      </trkpt>
      <trkpt lat="43.68777" lon="3.07087">
        <ele>471.18</ele>
        <time>2019-02-21T13:16:31Z</time>
      </trkpt>
      <trkpt lat="43.68777" lon="3.07086">
        <ele>471.18</ele>
        <time>2019-02-21T13:16:51Z</time>
      </trkpt>
      <trkpt lat="43.68777" lon="3.07087">
        <ele>470.7</ele>
        <time>2019-02-21T13:17:22Z</time>
      </trkpt>
      <trkpt lat="43.68778" lon="3.07092">
        <ele>470.7</ele>
        <time>2019-02-21T13:17:52Z</time>
      </trkpt>
      <trkpt lat="43.68775" lon="3.07089">
        <ele>470.7</ele>
        <time>2019-02-21T13:18:11Z</time>
      </trkpt>
      <trkpt lat="43.68771" lon="3.07092">
        <ele>469.74</ele>
        <time>2019-02-21T13:18:18Z</time>
      </trkpt>
      <trkpt lat="43.68767" lon="3.07095">
        <ele>467.82</ele>
        <time>2019-02-21T13:18:23Z</time>
      </trkpt>
      <trkpt lat="43.68766" lon="3.071">
        <ele>467.82</ele>
        <time>2019-02-21T13:18:37Z</time>
      </trkpt>
      <trkpt lat="43.68765" lon="3.07097">
        <ele>466.86</ele>
        <time>2019-02-21T13:18:47Z</time>
      </trkpt>
      <trkpt lat="43.68762" lon="3.07095">
        <ele>465.9</ele>
        <time>2019-02-21T13:18:51Z</time>
      </trkpt>
      <trkpt lat="43.6876" lon="3.07099">
        <ele>464.93</ele>
        <time>2019-02-21T13:18:55Z</time>
      </trkpt>
      <trkpt lat="43.68756" lon="3.07105">
        <ele>463.49</ele>
        <time>2019-02-21T13:19:06Z</time>
      </trkpt>
      <trkpt lat="43.68753" lon="3.07111">
        <ele>461.57</ele>
        <time>2019-02-21T13:19:18Z</time>
      </trkpt>
      <trkpt lat="43.68753" lon="3.07112">
        <ele>461.09</ele>
        <time>2019-02-21T13:19:25Z</time>
      </trkpt>
      <trkpt lat="43.68754" lon="3.07119">
        <ele>459.17</ele>
        <time>2019-02-21T13:19:31Z</time>
      </trkpt>
      <trkpt lat="43.68751" lon="3.07127">
        <ele>457.24</ele>
        <time>2019-02-21T13:19:44Z</time>
      </trkpt>
      <trkpt lat="43.68751" lon="3.07129">
        <ele>457.24</ele>
        <time>2019-02-21T13:19:45Z</time>
      </trkpt>
      <trkpt lat="43.68751" lon="3.07133">
        <ele>456.76</ele>
        <time>2019-02-21T13:19:49Z</time>
      </trkpt>
      <trkpt lat="43.6875" lon="3.07138">
        <ele>455.32</ele>
        <time>2019-02-21T13:19:59Z</time>
      </trkpt>
      <trkpt lat="43.68751" lon="3.0714">
        <ele>453.88</ele>
        <time>2019-02-21T13:20:15Z</time>
      </trkpt>
      <trkpt lat="43.68748" lon="3.07145">
        <ele>451</ele>
        <time>2019-02-21T13:20:27Z</time>
      </trkpt>
      <trkpt lat="43.68746" lon="3.07153">
        <ele>449.07</ele>
        <time>2019-02-21T13:20:41Z</time>
      </trkpt>
      <trkpt lat="43.68746" lon="3.07162">
        <ele>447.15</ele>
        <time>2019-02-21T13:20:50Z</time>
      </trkpt>
      <trkpt lat="43.68746" lon="3.07169">
        <ele>446.67</ele>
        <time>2019-02-21T13:21:04Z</time>
      </trkpt>
      <trkpt lat="43.68745" lon="3.07175">
        <ele>445.23</ele>
        <time>2019-02-21T13:21:22Z</time>
      </trkpt>
      <trkpt lat="43.68746" lon="3.07178">
        <ele>443.79</ele>
        <time>2019-02-21T13:21:35Z</time>
      </trkpt>
      <trkpt lat="43.68747" lon="3.07185">
        <ele>442.82</ele>
        <time>2019-02-21T13:21:49Z</time>
      </trkpt>
      <trkpt lat="43.68746" lon="3.07186">
        <ele>441.38</ele>
        <time>2019-02-21T13:21:54Z</time>
      </trkpt>
      <trkpt lat="43.68745" lon="3.0719">
        <ele>440.42</ele>
        <time>2019-02-21T13:21:58Z</time>
      </trkpt>
      <trkpt lat="43.6875" lon="3.07205">
        <ele>439.46</ele>
        <time>2019-02-21T13:22:12Z</time>
      </trkpt>
      <trkpt lat="43.68751" lon="3.0721">
        <ele>438.98</ele>
        <time>2019-02-21T13:22:29Z</time>
      </trkpt>
      <trkpt lat="43.68753" lon="3.07211">
        <ele>437.06</ele>
        <time>2019-02-21T13:22:41Z</time>
      </trkpt>
      <trkpt lat="43.68754" lon="3.07214">
        <ele>434.65</ele>
        <time>2019-02-21T13:22:47Z</time>
      </trkpt>
      <trkpt lat="43.68756" lon="3.07219">
        <ele>434.17</ele>
        <time>2019-02-21T13:22:53Z</time>
      </trkpt>
      <trkpt lat="43.68758" lon="3.07223">
        <ele>433.21</ele>
        <time>2019-02-21T13:23:05Z</time>
      </trkpt>
      <trkpt lat="43.68756" lon="3.07225">
        <ele>430.33</ele>
        <time>2019-02-21T13:23:15Z</time>
      </trkpt>
      <trkpt lat="43.68759" lon="3.07235">
        <ele>427.92</ele>
        <time>2019-02-21T13:23:26Z</time>
      </trkpt>
      <trkpt lat="43.68763" lon="3.07244">
        <ele>427.92</ele>
        <time>2019-02-21T13:23:34Z</time>
      </trkpt>
      <trkpt lat="43.68764" lon="3.07254">
        <ele>426.96</ele>
        <time>2019-02-21T13:23:46Z</time>
      </trkpt>
      <trkpt lat="43.68764" lon="3.07261">
        <ele>425.52</ele>
        <time>2019-02-21T13:23:57Z</time>
      </trkpt>
      <trkpt lat="43.68765" lon="3.07263">
        <ele>425.04</ele>
        <time>2019-02-21T13:23:59Z</time>
      </trkpt>
      <trkpt lat="43.68766" lon="3.07271">
        <ele>421.68</ele>
        <time>2019-02-21T13:24:06Z</time>
      </trkpt>
      <trkpt lat="43.68769" lon="3.07279">
        <ele>421.68</ele>
        <time>2019-02-21T13:24:12Z</time>
      </trkpt>
      <trkpt lat="43.68769" lon="3.07293">
        <ele>419.27</ele>
        <time>2019-02-21T13:24:24Z</time>
      </trkpt>
      <trkpt lat="43.68769" lon="3.07304">
        <ele>416.39</ele>
        <time>2019-02-21T13:24:33Z</time>
      </trkpt>
      <trkpt lat="43.68768" lon="3.07308">
        <ele>416.39</ele>
        <time>2019-02-21T13:24:37Z</time>
      </trkpt>
      <trkpt lat="43.68769" lon="3.07315">
        <ele>416.39</ele>
        <time>2019-02-21T13:24:43Z</time>
      </trkpt>
      <trkpt lat="43.68772" lon="3.0733">
        <ele>415.91</ele>
        <time>2019-02-21T13:24:55Z</time>
      </trkpt>
      <trkpt lat="43.68774" lon="3.07342">
        <ele>414.95</ele>
        <time>2019-02-21T13:25:09Z</time>
      </trkpt>
      <trkpt lat="43.68774" lon="3.07349">
        <ele>413.5</ele>
        <time>2019-02-21T13:25:14Z</time>
      </trkpt>
      <trkpt lat="43.68773" lon="3.07357">
        <ele>413.02</ele>
        <time>2019-02-21T13:25:21Z</time>
      </trkpt>
      <trkpt lat="43.68773" lon="3.07361">
        <ele>414.47</ele>
        <time>2019-02-21T13:25:25Z</time>
      </trkpt>
      <trkpt lat="43.68771" lon="3.07373">
        <ele>413.02</ele>
        <time>2019-02-21T13:25:34Z</time>
      </trkpt>
      <trkpt lat="43.6877" lon="3.07382">
        <ele>412.06</ele>
        <time>2019-02-21T13:25:41Z</time>
      </trkpt>
      <trkpt lat="43.68768" lon="3.07384">
        <ele>412.06</ele>
        <time>2019-02-21T13:25:43Z</time>
      </trkpt>
      <trkpt lat="43.68766" lon="3.07402">
        <ele>411.1</ele>
        <time>2019-02-21T13:25:55Z</time>
      </trkpt>
      <trkpt lat="43.68768" lon="3.07407">
        <ele>410.62</ele>
        <time>2019-02-21T13:25:59Z</time>
      </trkpt>
      <trkpt lat="43.68771" lon="3.07418">
        <ele>408.7</ele>
        <time>2019-02-21T13:26:11Z</time>
      </trkpt>
      <trkpt lat="43.68774" lon="3.07424">
        <ele>406.77</ele>
        <time>2019-02-21T13:26:27Z</time>
      </trkpt>
      <trkpt lat="43.68773" lon="3.07427">
        <ele>405.33</ele>
        <time>2019-02-21T13:26:44Z</time>
      </trkpt>
      <trkpt lat="43.68772" lon="3.0743">
        <ele>403.41</ele>
        <time>2019-02-21T13:26:56Z</time>
      </trkpt>
      <trkpt lat="43.68771" lon="3.0743">
        <ele>401.49</ele>
        <time>2019-02-21T13:26:58Z</time>
      </trkpt>
      <trkpt lat="43.68765" lon="3.07433">
        <ele>400.53</ele>
        <time>2019-02-21T13:27:12Z</time>
      </trkpt>
      <trkpt lat="43.68766" lon="3.07433">
        <ele>399.57</ele>
        <time>2019-02-21T13:27:15Z</time>
      </trkpt>
      <trkpt lat="43.68766" lon="3.07437">
        <ele>399.57</ele>
        <time>2019-02-21T13:27:18Z</time>
      </trkpt>
      <trkpt lat="43.68769" lon="3.07442">
        <ele>399.57</ele>
        <time>2019-02-21T13:27:30Z</time>
      </trkpt>
      <trkpt lat="43.68771" lon="3.07444">
        <ele>399.08</ele>
        <time>2019-02-21T13:27:46Z</time>
      </trkpt>
      <trkpt lat="43.68769" lon="3.07444">
        <ele>400.53</ele>
        <time>2019-02-21T13:27:52Z</time>
      </trkpt>
      <trkpt lat="43.68768" lon="3.0744">
        <ele>399.08</ele>
        <time>2019-02-21T13:27:57Z</time>
      </trkpt>
      <trkpt lat="43.68765" lon="3.0744">
        <ele>399.08</ele>
        <time>2019-02-21T13:28:11Z</time>
      </trkpt>
      <trkpt lat="43.6876" lon="3.07438">
        <ele>399.08</ele>
        <time>2019-02-21T13:28:19Z</time>
      </trkpt>
      <trkpt lat="43.68753" lon="3.0744">
        <ele>400.05</ele>
        <time>2019-02-21T13:28:30Z</time>
      </trkpt>
      <trkpt lat="43.68749" lon="3.07445">
        <ele>400.53</ele>
        <time>2019-02-21T13:28:53Z</time>
      </trkpt>
      <trkpt lat="43.68746" lon="3.07442">
        <ele>400.53</ele>
        <time>2019-02-21T13:28:56Z</time>
      </trkpt>
      <trkpt lat="43.68738" lon="3.07438">
        <ele>401.97</ele>
        <time>2019-02-21T13:29:03Z</time>
      </trkpt>
      <trkpt lat="43.68733" lon="3.0744">
        <ele>402.45</ele>
        <time>2019-02-21T13:29:09Z</time>
      </trkpt>
      <trkpt lat="43.68719" lon="3.07444">
        <ele>401.01</ele>
        <time>2019-02-21T13:29:21Z</time>
      </trkpt>
      <trkpt lat="43.68715" lon="3.07444">
        <ele>401.49</ele>
        <time>2019-02-21T13:29:24Z</time>
      </trkpt>
      <trkpt lat="43.68703" lon="3.07442">
        <ele>402.45</ele>
        <time>2019-02-21T13:29:35Z</time>
      </trkpt>
      <trkpt lat="43.68698" lon="3.07444">
        <ele>401.01</ele>
        <time>2019-02-21T13:29:37Z</time>
      </trkpt>
      <trkpt lat="43.68693" lon="3.07446">
        <ele>401.97</ele>
        <time>2019-02-21T13:29:40Z</time>
      </trkpt>
      <trkpt lat="43.68685" lon="3.07452">
        <ele>401.01</ele>
        <time>2019-02-21T13:29:50Z</time>
      </trkpt>
      <trkpt lat="43.68681" lon="3.07457">
        <ele>401.01</ele>
        <time>2019-02-21T13:29:53Z</time>
      </trkpt>
      <trkpt lat="43.68675" lon="3.0747">
        <ele>400.53</ele>
        <time>2019-02-21T13:30:04Z</time>
      </trkpt>
      <trkpt lat="43.68665" lon="3.07488">
        <ele>397.16</ele>
        <time>2019-02-21T13:30:14Z</time>
      </trkpt>
      <trkpt lat="43.68659" lon="3.07501">
        <ele>397.16</ele>
        <time>2019-02-21T13:30:21Z</time>
      </trkpt>
      <trkpt lat="43.68658" lon="3.07503">
        <ele>397.16</ele>
        <time>2019-02-21T13:30:22Z</time>
      </trkpt>
      <trkpt lat="43.68658" lon="3.07505">
        <ele>397.16</ele>
        <time>2019-02-21T13:30:23Z</time>
      </trkpt>
      <trkpt lat="43.68657" lon="3.07507">
        <ele>397.16</ele>
        <time>2019-02-21T13:30:24Z</time>
      </trkpt>
      <trkpt lat="43.68656" lon="3.07509">
        <ele>396.2</ele>
        <time>2019-02-21T13:30:25Z</time>
      </trkpt>
      <trkpt lat="43.68654" lon="3.07512">
        <ele>396.2</ele>
        <time>2019-02-21T13:30:26Z</time>
      </trkpt>
      <trkpt lat="43.68646" lon="3.0753">
        <ele>395.72</ele>
        <time>2019-02-21T13:30:34Z</time>
      </trkpt>
      <trkpt lat="43.6864" lon="3.07554">
        <ele>392.84</ele>
        <time>2019-02-21T13:30:48Z</time>
      </trkpt>
      <trkpt lat="43.68639" lon="3.07556">
        <ele>392.84</ele>
        <time>2019-02-21T13:30:49Z</time>
      </trkpt>
      <trkpt lat="43.68638" lon="3.07558">
        <ele>392.84</ele>
        <time>2019-02-21T13:30:50Z</time>
      </trkpt>
      <trkpt lat="43.68637" lon="3.07559">
        <ele>392.84</ele>
        <time>2019-02-21T13:30:51Z</time>
      </trkpt>
      <trkpt lat="43.68636" lon="3.07561">
        <ele>391.39</ele>
        <time>2019-02-21T13:30:52Z</time>
      </trkpt>
      <trkpt lat="43.68636" lon="3.07562">
        <ele>391.39</ele>
        <time>2019-02-21T13:30:53Z</time>
      </trkpt>
      <trkpt lat="43.68635" lon="3.07567">
        <ele>390.43</ele>
        <time>2019-02-21T13:30:57Z</time>
      </trkpt>
      <trkpt lat="43.68635" lon="3.07569">
        <ele>390.43</ele>
        <time>2019-02-21T13:30:58Z</time>
      </trkpt>
      <trkpt lat="43.68629" lon="3.07585">
        <ele>388.51</ele>
        <time>2019-02-21T13:31:08Z</time>
      </trkpt>
      <trkpt lat="43.68624" lon="3.07599">
        <ele>387.07</ele>
        <time>2019-02-21T13:31:15Z</time>
      </trkpt>
      <trkpt lat="43.68617" lon="3.07616">
        <ele>386.11</ele>
        <time>2019-02-21T13:31:26Z</time>
      </trkpt>
      <trkpt lat="43.68615" lon="3.07623">
        <ele>384.18</ele>
        <time>2019-02-21T13:31:31Z</time>
      </trkpt>
      <trkpt lat="43.68614" lon="3.07625">
        <ele>384.18</ele>
        <time>2019-02-21T13:31:33Z</time>
      </trkpt>
      <trkpt lat="43.68611" lon="3.07633">
        <ele>383.7</ele>
        <time>2019-02-21T13:31:39Z</time>
      </trkpt>
      <trkpt lat="43.6861" lon="3.07635">
        <ele>383.7</ele>
        <time>2019-02-21T13:31:40Z</time>
      </trkpt>
      <trkpt lat="43.68607" lon="3.07646">
        <ele>383.7</ele>
        <time>2019-02-21T13:31:45Z</time>
      </trkpt>
      <trkpt lat="43.68605" lon="3.07663">
        <ele>383.7</ele>
        <time>2019-02-21T13:31:53Z</time>
      </trkpt>
      <trkpt lat="43.68604" lon="3.07664">
        <ele>383.7</ele>
        <time>2019-02-21T13:31:54Z</time>
      </trkpt>
      <trkpt lat="43.68603" lon="3.07666">
        <ele>383.7</ele>
        <time>2019-02-21T13:31:55Z</time>
      </trkpt>
      <trkpt lat="43.686" lon="3.07673">
        <ele>383.7</ele>
        <time>2019-02-21T13:32:00Z</time>
      </trkpt>
      <trkpt lat="43.68599" lon="3.07674">
        <ele>383.7</ele>
        <time>2019-02-21T13:32:01Z</time>
      </trkpt>
      <trkpt lat="43.68591" lon="3.07684">
        <ele>383.7</ele>
        <time>2019-02-21T13:32:09Z</time>
      </trkpt>
      <trkpt lat="43.68588" lon="3.07689">
        <ele>382.26</ele>
        <time>2019-02-21T13:32:14Z</time>
      </trkpt>
      <trkpt lat="43.68587" lon="3.07691">
        <ele>382.26</ele>
        <time>2019-02-21T13:32:15Z</time>
      </trkpt>
      <trkpt lat="43.68582" lon="3.07698">
        <ele>381.78</ele>
        <time>2019-02-21T13:32:22Z</time>
      </trkpt>
      <trkpt lat="43.68581" lon="3.077">
        <ele>381.78</ele>
        <time>2019-02-21T13:32:23Z</time>
      </trkpt>
      <trkpt lat="43.68576" lon="3.07704">
        <ele>381.78</ele>
        <time>2019-02-21T13:32:28Z</time>
      </trkpt>
      <trkpt lat="43.68572" lon="3.0771">
        <ele>379.38</ele>
        <time>2019-02-21T13:32:35Z</time>
      </trkpt>
      <trkpt lat="43.68571" lon="3.07713">
        <ele>379.86</ele>
        <time>2019-02-21T13:32:37Z</time>
      </trkpt>
      <trkpt lat="43.6857" lon="3.07714">
        <ele>379.86</ele>
        <time>2019-02-21T13:32:38Z</time>
      </trkpt>
      <trkpt lat="43.68555" lon="3.07731">
        <ele>380.34</ele>
        <time>2019-02-21T13:32:50Z</time>
      </trkpt>
      <trkpt lat="43.68553" lon="3.0774">
        <ele>379.86</ele>
        <time>2019-02-21T13:32:55Z</time>
      </trkpt>
      <trkpt lat="43.68552" lon="3.07742">
        <ele>379.86</ele>
        <time>2019-02-21T13:32:56Z</time>
      </trkpt>
      <trkpt lat="43.6855" lon="3.07756">
        <ele>379.86</ele>
        <time>2019-02-21T13:33:07Z</time>
      </trkpt>
      <trkpt lat="43.68549" lon="3.07762">
        <ele>378.42</ele>
        <time>2019-02-21T13:33:10Z</time>
      </trkpt>
      <trkpt lat="43.68548" lon="3.07768">
        <ele>379.38</ele>
        <time>2019-02-21T13:33:13Z</time>
      </trkpt>
      <trkpt lat="43.68546" lon="3.07773">
        <ele>379.38</ele>
        <time>2019-02-21T13:33:15Z</time>
      </trkpt>
      <trkpt lat="43.68545" lon="3.07775">
        <ele>379.38</ele>
        <time>2019-02-21T13:33:16Z</time>
      </trkpt>
      <trkpt lat="43.68545" lon="3.07777">
        <ele>379.38</ele>
        <time>2019-02-21T13:33:17Z</time>
      </trkpt>
      <trkpt lat="43.68543" lon="3.07795">
        <ele>378.9</ele>
        <time>2019-02-21T13:33:29Z</time>
      </trkpt>
      <trkpt lat="43.68541" lon="3.07797">
        <ele>378.9</ele>
        <time>2019-02-21T13:33:31Z</time>
      </trkpt>
      <trkpt lat="43.68538" lon="3.078">
        <ele>378.9</ele>
        <time>2019-02-21T13:33:36Z</time>
      </trkpt>
      <trkpt lat="43.68537" lon="3.07801">
        <ele>376.97</ele>
        <time>2019-02-21T13:33:37Z</time>
      </trkpt>
      <trkpt lat="43.68536" lon="3.07801">
        <ele>377.45</ele>
        <time>2019-02-21T13:33:38Z</time>
      </trkpt>
      <trkpt lat="43.68527" lon="3.07807">
        <ele>376.97</ele>
        <time>2019-02-21T13:33:49Z</time>
      </trkpt>
      <trkpt lat="43.68526" lon="3.07809">
        <ele>376.97</ele>
        <time>2019-02-21T13:33:50Z</time>
      </trkpt>
      <trkpt lat="43.68523" lon="3.07813">
        <ele>377.45</ele>
        <time>2019-02-21T13:33:54Z</time>
      </trkpt>
      <trkpt lat="43.68516" lon="3.07829">
        <ele>376.97</ele>
        <time>2019-02-21T13:34:08Z</time>
      </trkpt>
      <trkpt lat="43.68513" lon="3.07834">
        <ele>376.97</ele>
        <time>2019-02-21T13:34:14Z</time>
      </trkpt>
      <trkpt lat="43.68512" lon="3.07836">
        <ele>375.53</ele>
        <time>2019-02-21T13:34:16Z</time>
      </trkpt>
      <trkpt lat="43.68511" lon="3.07837">
        <ele>375.53</ele>
        <time>2019-02-21T13:34:17Z</time>
      </trkpt>
      <trkpt lat="43.6851" lon="3.07839">
        <ele>375.53</ele>
        <time>2019-02-21T13:34:18Z</time>
      </trkpt>
      <trkpt lat="43.68509" lon="3.0784">
        <ele>375.53</ele>
        <time>2019-02-21T13:34:19Z</time>
      </trkpt>
      <trkpt lat="43.68506" lon="3.07848">
        <ele>375.05</ele>
        <time>2019-02-21T13:34:25Z</time>
      </trkpt>
      <trkpt lat="43.68505" lon="3.07852">
        <ele>375.05</ele>
        <time>2019-02-21T13:34:27Z</time>
      </trkpt>
      <trkpt lat="43.68504" lon="3.07854">
        <ele>375.05</ele>
        <time>2019-02-21T13:34:28Z</time>
      </trkpt>
      <trkpt lat="43.68503" lon="3.07856">
        <ele>375.05</ele>
        <time>2019-02-21T13:34:29Z</time>
      </trkpt>
      <trkpt lat="43.68503" lon="3.07858">
        <ele>375.05</ele>
        <time>2019-02-21T13:34:30Z</time>
      </trkpt>
      <trkpt lat="43.68496" lon="3.07873">
        <ele>373.61</ele>
        <time>2019-02-21T13:34:40Z</time>
      </trkpt>
      <trkpt lat="43.68491" lon="3.07889">
        <ele>373.13</ele>
        <time>2019-02-21T13:34:51Z</time>
      </trkpt>
      <trkpt lat="43.68483" lon="3.07904">
        <ele>372.65</ele>
        <time>2019-02-21T13:35:01Z</time>
      </trkpt>
      <trkpt lat="43.68481" lon="3.07906">
        <ele>372.65</ele>
        <time>2019-02-21T13:35:04Z</time>
      </trkpt>
      <trkpt lat="43.68481" lon="3.07908">
        <ele>374.09</ele>
        <time>2019-02-21T13:35:05Z</time>
      </trkpt>
      <trkpt lat="43.6848" lon="3.07911">
        <ele>374.09</ele>
        <time>2019-02-21T13:35:06Z</time>
      </trkpt>
      <trkpt lat="43.68475" lon="3.07924">
        <ele>372.65</ele>
        <time>2019-02-21T13:35:14Z</time>
      </trkpt>
      <trkpt lat="43.68474" lon="3.07929">
        <ele>372.65</ele>
        <time>2019-02-21T13:35:18Z</time>
      </trkpt>
      <trkpt lat="43.68469" lon="3.0795">
        <ele>373.13</ele>
        <time>2019-02-21T13:35:30Z</time>
      </trkpt>
      <trkpt lat="43.68465" lon="3.07964">
        <ele>371.69</ele>
        <time>2019-02-21T13:35:39Z</time>
      </trkpt>
      <trkpt lat="43.68463" lon="3.07975">
        <ele>371.21</ele>
        <time>2019-02-21T13:35:49Z</time>
      </trkpt>
      <trkpt lat="43.68457" lon="3.07991">
        <ele>370.24</ele>
        <time>2019-02-21T13:36:00Z</time>
      </trkpt>
      <trkpt lat="43.6845" lon="3.08017">
        <ele>371.21</ele>
        <time>2019-02-21T13:36:15Z</time>
      </trkpt>
      <trkpt lat="43.68442" lon="3.08044">
        <ele>371.21</ele>
        <time>2019-02-21T13:36:32Z</time>
      </trkpt>
      <trkpt lat="43.68433" lon="3.08071">
        <ele>370.24</ele>
        <time>2019-02-21T13:36:50Z</time>
      </trkpt>
      <trkpt lat="43.68424" lon="3.0809">
        <ele>367.36</ele>
        <time>2019-02-21T13:37:03Z</time>
      </trkpt>
      <trkpt lat="43.68423" lon="3.08091">
        <ele>367.36</ele>
        <time>2019-02-21T13:37:04Z</time>
      </trkpt>
      <trkpt lat="43.68419" lon="3.08099">
        <ele>366.4</ele>
        <time>2019-02-21T13:37:09Z</time>
      </trkpt>
      <trkpt lat="43.68417" lon="3.08104">
        <ele>365.92</ele>
        <time>2019-02-21T13:37:13Z</time>
      </trkpt>
      <trkpt lat="43.68417" lon="3.08106">
        <ele>365.92</ele>
        <time>2019-02-21T13:37:14Z</time>
      </trkpt>
      <trkpt lat="43.68414" lon="3.08121">
        <ele>364.48</ele>
        <time>2019-02-21T13:37:25Z</time>
      </trkpt>
      <trkpt lat="43.68416" lon="3.08139">
        <ele>364</ele>
        <time>2019-02-21T13:37:35Z</time>
      </trkpt>
      <trkpt lat="43.68417" lon="3.08147">
        <ele>364</ele>
        <time>2019-02-21T13:37:39Z</time>
      </trkpt>
      <trkpt lat="43.68416" lon="3.08153">
        <ele>364</ele>
        <time>2019-02-21T13:37:42Z</time>
      </trkpt>
      <trkpt lat="43.68417" lon="3.08155">
        <ele>364</ele>
        <time>2019-02-21T13:37:43Z</time>
      </trkpt>
      <trkpt lat="43.68422" lon="3.0817">
        <ele>364</ele>
        <time>2019-02-21T13:37:54Z</time>
      </trkpt>
      <trkpt lat="43.68432" lon="3.08178">
        <ele>365.92</ele>
        <time>2019-02-21T13:38:04Z</time>
      </trkpt>
      <trkpt lat="43.68436" lon="3.08181">
        <ele>364.48</ele>
        <time>2019-02-21T13:38:07Z</time>
      </trkpt>
      <trkpt lat="43.68437" lon="3.08181">
        <ele>364.48</ele>
        <time>2019-02-21T13:38:08Z</time>
      </trkpt>
      <trkpt lat="43.68446" lon="3.0819">
        <ele>364.48</ele>
        <time>2019-02-21T13:38:17Z</time>
      </trkpt>
      <trkpt lat="43.6845" lon="3.08194">
        <ele>364.48</ele>
        <time>2019-02-21T13:38:22Z</time>
      </trkpt>
      <trkpt lat="43.68451" lon="3.08195">
        <ele>364.48</ele>
        <time>2019-02-21T13:38:23Z</time>
      </trkpt>
      <trkpt lat="43.68453" lon="3.08196">
        <ele>364.48</ele>
        <time>2019-02-21T13:38:24Z</time>
      </trkpt>
      <trkpt lat="43.68456" lon="3.08198">
        <ele>364.48</ele>
        <time>2019-02-21T13:38:28Z</time>
      </trkpt>
      <trkpt lat="43.68457" lon="3.08198">
        <ele>364.48</ele>
        <time>2019-02-21T13:38:29Z</time>
      </trkpt>
      <trkpt lat="43.68459" lon="3.08199">
        <ele>364.48</ele>
        <time>2019-02-21T13:38:30Z</time>
      </trkpt>
      <trkpt lat="43.6846" lon="3.08199">
        <ele>364.48</ele>
        <time>2019-02-21T13:38:31Z</time>
      </trkpt>
      <trkpt lat="43.68463" lon="3.08201">
        <ele>364.48</ele>
        <time>2019-02-21T13:38:35Z</time>
      </trkpt>
      <trkpt lat="43.68465" lon="3.08201">
        <ele>364.48</ele>
        <time>2019-02-21T13:38:36Z</time>
      </trkpt>
      <trkpt lat="43.68467" lon="3.08202">
        <ele>364</ele>
        <time>2019-02-21T13:38:37Z</time>
      </trkpt>
      <trkpt lat="43.68477" lon="3.0821">
        <ele>363.04</ele>
        <time>2019-02-21T13:38:48Z</time>
      </trkpt>
      <trkpt lat="43.68482" lon="3.08217">
        <ele>362.07</ele>
        <time>2019-02-21T13:38:54Z</time>
      </trkpt>
      <trkpt lat="43.68481" lon="3.08231">
        <ele>360.63</ele>
        <time>2019-02-21T13:39:05Z</time>
      </trkpt>
      <trkpt lat="43.6848" lon="3.08232">
        <ele>360.15</ele>
        <time>2019-02-21T13:39:06Z</time>
      </trkpt>
      <trkpt lat="43.68472" lon="3.08257">
        <ele>358.71</ele>
        <time>2019-02-21T13:39:22Z</time>
      </trkpt>
      <trkpt lat="43.68465" lon="3.08269">
        <ele>356.79</ele>
        <time>2019-02-21T13:39:33Z</time>
      </trkpt>
      <trkpt lat="43.68465" lon="3.08271">
        <ele>356.79</ele>
        <time>2019-02-21T13:39:34Z</time>
      </trkpt>
      <trkpt lat="43.68458" lon="3.08285">
        <ele>355.34</ele>
        <time>2019-02-21T13:39:44Z</time>
      </trkpt>
      <trkpt lat="43.68456" lon="3.08288">
        <ele>354.38</ele>
        <time>2019-02-21T13:39:48Z</time>
      </trkpt>
      <trkpt lat="43.68455" lon="3.0829">
        <ele>354.38</ele>
        <time>2019-02-21T13:39:49Z</time>
      </trkpt>
      <trkpt lat="43.68455" lon="3.08292">
        <ele>354.38</ele>
        <time>2019-02-21T13:39:50Z</time>
      </trkpt>
      <trkpt lat="43.68452" lon="3.08297">
        <ele>353.9</ele>
        <time>2019-02-21T13:39:55Z</time>
      </trkpt>
      <trkpt lat="43.68451" lon="3.083">
        <ele>353.9</ele>
        <time>2019-02-21T13:39:57Z</time>
      </trkpt>
      <trkpt lat="43.68445" lon="3.08311">
        <ele>352.46</ele>
        <time>2019-02-21T13:40:10Z</time>
      </trkpt>
      <trkpt lat="43.68427" lon="3.08332">
        <ele>351.98</ele>
        <time>2019-02-21T13:40:23Z</time>
      </trkpt>
      <trkpt lat="43.68426" lon="3.08335">
        <ele>351.98</ele>
        <time>2019-02-21T13:40:25Z</time>
      </trkpt>
      <trkpt lat="43.68425" lon="3.08337">
        <ele>351.5</ele>
        <time>2019-02-21T13:40:26Z</time>
      </trkpt>
      <trkpt lat="43.68425" lon="3.08339">
        <ele>351.5</ele>
        <time>2019-02-21T13:40:27Z</time>
      </trkpt>
      <trkpt lat="43.68419" lon="3.0835">
        <ele>351.5</ele>
        <time>2019-02-21T13:40:33Z</time>
      </trkpt>
      <trkpt lat="43.68418" lon="3.08352">
        <ele>351.5</ele>
        <time>2019-02-21T13:40:34Z</time>
      </trkpt>
      <trkpt lat="43.68417" lon="3.08354">
        <ele>351.5</ele>
        <time>2019-02-21T13:40:35Z</time>
      </trkpt>
      <trkpt lat="43.68413" lon="3.08357">
        <ele>350.54</ele>
        <time>2019-02-21T13:40:39Z</time>
      </trkpt>
      <trkpt lat="43.68412" lon="3.08358">
        <ele>351.02</ele>
        <time>2019-02-21T13:40:40Z</time>
      </trkpt>
      <trkpt lat="43.6841" lon="3.0836">
        <ele>351.02</ele>
        <time>2019-02-21T13:40:41Z</time>
      </trkpt>
      <trkpt lat="43.68409" lon="3.08361">
        <ele>350.54</ele>
        <time>2019-02-21T13:40:42Z</time>
      </trkpt>
      <trkpt lat="43.68408" lon="3.08362">
        <ele>350.54</ele>
        <time>2019-02-21T13:40:43Z</time>
      </trkpt>
      <trkpt lat="43.68408" lon="3.08364">
        <ele>350.54</ele>
        <time>2019-02-21T13:40:44Z</time>
      </trkpt>
      <trkpt lat="43.68406" lon="3.08367">
        <ele>350.54</ele>
        <time>2019-02-21T13:40:48Z</time>
      </trkpt>
      <trkpt lat="43.68405" lon="3.08369">
        <ele>350.54</ele>
        <time>2019-02-21T13:40:49Z</time>
      </trkpt>
      <trkpt lat="43.68405" lon="3.08371">
        <ele>350.54</ele>
        <time>2019-02-21T13:40:50Z</time>
      </trkpt>
      <trkpt lat="43.68402" lon="3.08383">
        <ele>350.54</ele>
        <time>2019-02-21T13:41:00Z</time>
      </trkpt>
      <trkpt lat="43.68401" lon="3.08386">
        <ele>350.54</ele>
        <time>2019-02-21T13:41:02Z</time>
      </trkpt>
      <trkpt lat="43.68399" lon="3.08391">
        <ele>350.06</ele>
        <time>2019-02-21T13:41:06Z</time>
      </trkpt>
      <trkpt lat="43.68397" lon="3.08393">
        <ele>350.06</ele>
        <time>2019-02-21T13:41:08Z</time>
      </trkpt>
      <trkpt lat="43.68395" lon="3.08395">
        <ele>350.06</ele>
        <time>2019-02-21T13:41:10Z</time>
      </trkpt>
      <trkpt lat="43.68394" lon="3.08396">
        <ele>350.06</ele>
        <time>2019-02-21T13:41:11Z</time>
      </trkpt>
      <trkpt lat="43.68392" lon="3.08397">
        <ele>350.06</ele>
        <time>2019-02-21T13:41:12Z</time>
      </trkpt>
      <trkpt lat="43.68391" lon="3.08399">
        <ele>350.06</ele>
        <time>2019-02-21T13:41:13Z</time>
      </trkpt>
      <trkpt lat="43.68388" lon="3.08403">
        <ele>350.06</ele>
        <time>2019-02-21T13:41:16Z</time>
      </trkpt>
      <trkpt lat="43.68387" lon="3.08405">
        <ele>350.06</ele>
        <time>2019-02-21T13:41:17Z</time>
      </trkpt>
      <trkpt lat="43.68386" lon="3.08407">
        <ele>350.06</ele>
        <time>2019-02-21T13:41:18Z</time>
      </trkpt>
      <trkpt lat="43.68385" lon="3.08409">
        <ele>350.06</ele>
        <time>2019-02-21T13:41:19Z</time>
      </trkpt>
      <trkpt lat="43.68377" lon="3.0842">
        <ele>350.06</ele>
        <time>2019-02-21T13:41:28Z</time>
      </trkpt>
      <trkpt lat="43.68368" lon="3.08434">
        <ele>350.54</ele>
        <time>2019-02-21T13:41:38Z</time>
      </trkpt>
      <trkpt lat="43.68363" lon="3.0845">
        <ele>350.54</ele>
        <time>2019-02-21T13:41:48Z</time>
      </trkpt>
      <trkpt lat="43.68362" lon="3.08452">
        <ele>350.54</ele>
        <time>2019-02-21T13:41:50Z</time>
      </trkpt>
      <trkpt lat="43.68362" lon="3.08454">
        <ele>350.54</ele>
        <time>2019-02-21T13:41:51Z</time>
      </trkpt>
      <trkpt lat="43.68361" lon="3.08456">
        <ele>350.54</ele>
        <time>2019-02-21T13:41:52Z</time>
      </trkpt>
      <trkpt lat="43.68361" lon="3.08458">
        <ele>350.54</ele>
        <time>2019-02-21T13:41:53Z</time>
      </trkpt>
      <trkpt lat="43.6836" lon="3.0846">
        <ele>350.54</ele>
        <time>2019-02-21T13:41:54Z</time>
      </trkpt>
      <trkpt lat="43.68357" lon="3.08473">
        <ele>351.5</ele>
        <time>2019-02-21T13:42:03Z</time>
      </trkpt>
      <trkpt lat="43.68356" lon="3.08475">
        <ele>351.5</ele>
        <time>2019-02-21T13:42:04Z</time>
      </trkpt>
      <trkpt lat="43.68356" lon="3.08487">
        <ele>351.98</ele>
        <time>2019-02-21T13:42:12Z</time>
      </trkpt>
      <trkpt lat="43.68356" lon="3.08489">
        <ele>351.98</ele>
        <time>2019-02-21T13:42:13Z</time>
      </trkpt>
      <trkpt lat="43.68355" lon="3.08494">
        <ele>351.98</ele>
        <time>2019-02-21T13:42:18Z</time>
      </trkpt>
      <trkpt lat="43.68355" lon="3.08501">
        <ele>352.46</ele>
        <time>2019-02-21T13:42:22Z</time>
      </trkpt>
      <trkpt lat="43.68355" lon="3.08504">
        <ele>352.46</ele>
        <time>2019-02-21T13:42:23Z</time>
      </trkpt>
      <trkpt lat="43.68351" lon="3.08523">
        <ele>352.46</ele>
        <time>2019-02-21T13:42:32Z</time>
      </trkpt>
      <trkpt lat="43.68347" lon="3.08539">
        <ele>352.46</ele>
        <time>2019-02-21T13:42:42Z</time>
      </trkpt>
      <trkpt lat="43.68343" lon="3.08551">
        <ele>352.46</ele>
        <time>2019-02-21T13:42:51Z</time>
      </trkpt>
      <trkpt lat="43.68342" lon="3.08568">
        <ele>352.46</ele>
        <time>2019-02-21T13:43:01Z</time>
      </trkpt>
      <trkpt lat="43.68343" lon="3.08576">
        <ele>352.46</ele>
        <time>2019-02-21T13:43:07Z</time>
      </trkpt>
      <trkpt lat="43.68343" lon="3.08587">
        <ele>352.46</ele>
        <time>2019-02-21T13:43:16Z</time>
      </trkpt>
      <trkpt lat="43.68341" lon="3.08589">
        <ele>351.02</ele>
        <time>2019-02-21T13:43:18Z</time>
      </trkpt>
      <trkpt lat="43.6834" lon="3.08591">
        <ele>351.02</ele>
        <time>2019-02-21T13:43:19Z</time>
      </trkpt>
      <trkpt lat="43.68335" lon="3.08599">
        <ele>351.02</ele>
        <time>2019-02-21T13:43:25Z</time>
      </trkpt>
      <trkpt lat="43.68332" lon="3.08614">
        <ele>350.54</ele>
        <time>2019-02-21T13:43:36Z</time>
      </trkpt>
      <trkpt lat="43.68329" lon="3.08632">
        <ele>350.06</ele>
        <time>2019-02-21T13:43:47Z</time>
      </trkpt>
      <trkpt lat="43.6833" lon="3.08634">
        <ele>350.06</ele>
        <time>2019-02-21T13:43:48Z</time>
      </trkpt>
      <trkpt lat="43.68328" lon="3.08649">
        <ele>349.1</ele>
        <time>2019-02-21T13:43:57Z</time>
      </trkpt>
      <trkpt lat="43.68324" lon="3.08663">
        <ele>348.62</ele>
        <time>2019-02-21T13:44:06Z</time>
      </trkpt>
      <trkpt lat="43.68317" lon="3.08677">
        <ele>348.13</ele>
        <time>2019-02-21T13:44:16Z</time>
      </trkpt>
      <trkpt lat="43.68314" lon="3.08688">
        <ele>347.65</ele>
        <time>2019-02-21T13:44:23Z</time>
      </trkpt>
      <trkpt lat="43.68313" lon="3.08689">
        <ele>347.65</ele>
        <time>2019-02-21T13:44:24Z</time>
      </trkpt>
      <trkpt lat="43.68313" lon="3.08692">
        <ele>347.65</ele>
        <time>2019-02-21T13:44:25Z</time>
      </trkpt>
      <trkpt lat="43.68312" lon="3.08694">
        <ele>347.65</ele>
        <time>2019-02-21T13:44:26Z</time>
      </trkpt>
      <trkpt lat="43.68311" lon="3.08696">
        <ele>347.17</ele>
        <time>2019-02-21T13:44:29Z</time>
      </trkpt>
      <trkpt lat="43.68311" lon="3.08698">
        <ele>347.17</ele>
        <time>2019-02-21T13:44:30Z</time>
      </trkpt>
      <trkpt lat="43.68306" lon="3.08711">
        <ele>346.21</ele>
        <time>2019-02-21T13:44:39Z</time>
      </trkpt>
      <trkpt lat="43.68305" lon="3.08713">
        <ele>346.21</ele>
        <time>2019-02-21T13:44:41Z</time>
      </trkpt>
      <trkpt lat="43.68305" lon="3.08714">
        <ele>346.69</ele>
        <time>2019-02-21T13:44:42Z</time>
      </trkpt>
      <trkpt lat="43.68304" lon="3.08716">
        <ele>346.69</ele>
        <time>2019-02-21T13:44:43Z</time>
      </trkpt>
      <trkpt lat="43.683" lon="3.08729">
        <ele>345.73</ele>
        <time>2019-02-21T13:44:53Z</time>
      </trkpt>
      <trkpt lat="43.683" lon="3.0873">
        <ele>345.25</ele>
        <time>2019-02-21T13:44:54Z</time>
      </trkpt>
      <trkpt lat="43.68299" lon="3.08732">
        <ele>345.25</ele>
        <time>2019-02-21T13:44:55Z</time>
      </trkpt>
      <trkpt lat="43.68298" lon="3.08734">
        <ele>345.25</ele>
        <time>2019-02-21T13:44:56Z</time>
      </trkpt>
      <trkpt lat="43.68298" lon="3.08736">
        <ele>345.25</ele>
        <time>2019-02-21T13:44:57Z</time>
      </trkpt>
      <trkpt lat="43.68297" lon="3.08739">
        <ele>345.25</ele>
        <time>2019-02-21T13:45:00Z</time>
      </trkpt>
      <trkpt lat="43.68297" lon="3.08741">
        <ele>344.77</ele>
        <time>2019-02-21T13:45:01Z</time>
      </trkpt>
      <trkpt lat="43.68296" lon="3.08742">
        <ele>344.77</ele>
        <time>2019-02-21T13:45:02Z</time>
      </trkpt>
      <trkpt lat="43.68296" lon="3.08744">
        <ele>344.77</ele>
        <time>2019-02-21T13:45:03Z</time>
      </trkpt>
      <trkpt lat="43.68295" lon="3.08747">
        <ele>344.29</ele>
        <time>2019-02-21T13:45:06Z</time>
      </trkpt>
      <trkpt lat="43.68294" lon="3.08749">
        <ele>344.29</ele>
        <time>2019-02-21T13:45:07Z</time>
      </trkpt>
      <trkpt lat="43.68294" lon="3.0875">
        <ele>344.29</ele>
        <time>2019-02-21T13:45:08Z</time>
      </trkpt>
      <trkpt lat="43.68289" lon="3.08772">
        <ele>342.37</ele>
        <time>2019-02-21T13:45:22Z</time>
      </trkpt>
      <trkpt lat="43.68282" lon="3.08786">
        <ele>340.92</ele>
        <time>2019-02-21T13:45:32Z</time>
      </trkpt>
      <trkpt lat="43.6828" lon="3.08789">
        <ele>340.92</ele>
        <time>2019-02-21T13:45:34Z</time>
      </trkpt>
      <trkpt lat="43.68279" lon="3.08791">
        <ele>340.92</ele>
        <time>2019-02-21T13:45:35Z</time>
      </trkpt>
      <trkpt lat="43.68274" lon="3.08799">
        <ele>341.41</ele>
        <time>2019-02-21T13:45:45Z</time>
      </trkpt>
      <trkpt lat="43.68272" lon="3.08803">
        <ele>341.41</ele>
        <time>2019-02-21T13:46:02Z</time>
      </trkpt>
      <trkpt lat="43.68272" lon="3.08803">
        <ele>341.41</ele>
        <time>2019-02-21T13:46:30Z</time>
      </trkpt>
      <trkpt lat="43.68272" lon="3.08806">
        <ele>341.41</ele>
        <time>2019-02-21T13:47:00Z</time>
      </trkpt>
    </trkseg>
  </trk>
</gpx>